Date StartTime U_cm/s V_cm/s W_cm/s Ustd_cm/s Vstd_cm/s Wstd_cm/s Uvar_(cm/s)^2 Vvar_(cm/s)^2 Wvar_(cm/s)^2 KE_(m/s)^2 TurbulentKE_(m/s)^2 HorizWindSpeed_cm/s FrictionSpeec_cm/s DragCoef SpeedOfSound_m/s SonicTemperature_C Pressure_mb 
11/18/2014  00:00:00     -135.430      -34.533      -12.441       35.985       16.450       16.849     1294.907      270.604      283.882        1.077        0.092      139.763       12.487        0.008      330.208       -2.567      868.695
11/18/2014  00:01:00     -103.300      -58.652       -0.738       36.313       30.291       17.723     1318.616      917.528      314.106        0.833        0.128      118.789       14.979        0.016      330.289       -2.433      868.697
11/18/2014  00:02:00      -84.443      -61.512       -2.542       58.475       37.776       25.369     3419.380     1426.991      643.577        0.820        0.274      104.472       25.359        0.059      330.243       -2.508      868.699
11/18/2014  00:03:00      -65.516      -43.452        4.009       50.737       27.907       26.077     2574.292      778.789      680.008        0.511        0.202       78.615       26.070        0.110      330.192       -2.593      868.703
11/18/2014  00:04:00      -82.272      -61.618        2.359       42.385       24.794       20.534     1796.466      614.750      421.660        0.670        0.142      102.788       19.529        0.036      330.210       -2.564      868.705
11/18/2014  00:05:00      -50.876      -36.251        7.294       41.716       29.528       23.585     1740.212      871.904      556.262        0.356        0.158       62.470       21.493        0.118      330.183       -2.607      868.697
11/18/2014  00:06:00     -113.310      -58.904       -1.995       42.672       28.188       20.568     1820.864      794.571      423.022        0.968        0.152      127.707       18.085        0.020      330.193       -2.591      868.702
11/18/2014  00:07:00      -70.016      -54.421        1.888       44.008       24.885       19.624     1936.670      619.272      385.117        0.540        0.147       88.679       17.757        0.040      330.166       -2.635      868.691
11/18/2014  00:08:00      -82.774      -43.962       -4.792       36.487       24.257       21.629     1331.333      588.424      467.796        0.560        0.119       93.724       19.610        0.044      330.187       -2.601      868.676
11/18/2014  00:09:00      -92.899      -40.684      -13.787       15.536       19.578       12.393      241.372      383.314      153.592        0.563        0.039      101.417        4.924        0.002      330.224       -2.541      868.668
11/18/2014  00:10:00     -108.270      -53.939       -9.644       15.255       16.535        9.554      232.718      273.415       91.270        0.766        0.030      120.962        4.006        0.001      330.236       -2.520      868.663
11/18/2014  00:11:00      -89.347      -48.588       -6.041       15.521       15.858       13.751      240.904      251.478      189.081        0.553        0.034      101.704       10.353        0.010      330.199       -2.581      868.656
11/18/2014  00:12:00      -74.684      -27.185      -12.252       20.459       13.377       12.583      418.558      178.947      158.320        0.361        0.038       79.478        5.362        0.005      330.211       -2.563      868.644
11/18/2014  00:13:00      -84.637      -38.738      -16.381       11.564        8.300        7.058      133.729       68.887       49.816        0.459        0.013       93.081        3.813        0.002      330.221       -2.545      868.622
11/18/2014  00:14:00      -61.968      -47.616      -12.154       28.997       21.068       17.545      840.850      443.871      307.813        0.392        0.080       78.149       12.765        0.027      330.221       -2.546      868.605
11/18/2014  00:15:00      -79.011      -37.351      -13.611       12.620       15.242       10.618      159.268      232.326      112.749        0.416        0.025       87.394        5.870        0.005      330.201       -2.579      868.590
11/18/2014  00:16:00      -94.785      -49.789       -7.826       13.121       10.782        9.310      172.172      116.242       86.674        0.595        0.019      107.066        5.689        0.003      330.188       -2.601      868.574
11/18/2014  00:17:00      -83.701      -41.959      -12.115       15.323       16.272       13.791      234.806      264.794      190.185        0.480        0.034       93.629        9.264        0.010      330.141       -2.679      868.551
11/18/2014  00:18:00      -76.023      -34.780      -12.020       11.096       11.464        7.739      123.130      131.414       59.892        0.372        0.016       83.601        4.459        0.003      330.155       -2.654      868.538
11/18/2014  00:19:00      -69.256      -23.273       -6.457       12.525       20.104       11.401      156.870      404.171      129.978        0.304        0.035       73.062        6.792        0.009      330.223       -2.542      868.520
11/18/2014  00:20:00      -79.961      -36.153      -13.358        9.952       16.788       10.564       99.033      281.829      111.602        0.419        0.025       87.754        4.639        0.003      330.199       -2.582      868.504
11/18/2014  00:21:00      -61.306      -42.136       -7.403       21.900       14.860       14.186      479.596      220.822      201.248        0.325        0.045       74.390       12.390        0.028      330.196       -2.586      868.491
11/18/2014  00:22:00      -60.563      -33.099       -8.130       20.348       13.236       11.208      414.028      175.187      125.611        0.277        0.036       69.018        6.971        0.010      330.137       -2.683      868.487
11/18/2014  00:23:00      -79.902      -15.484      -15.632       19.695       15.729        9.803      387.902      247.405       96.102        0.380        0.037       81.388        9.354        0.013      330.123       -2.708      868.486
11/18/2014  00:24:00      -74.714      -23.843       -8.467       10.373       13.064        9.315      107.593      170.660       86.769        0.329        0.018       78.426        5.266        0.005      330.129       -2.697      868.498
11/18/2014  00:25:00      -71.524      -26.915      -13.448       11.284       10.524        9.213      127.327      110.762       84.888        0.317        0.016       76.420        6.494        0.007      330.229       -2.532      868.497
11/18/2014  00:26:00      -76.516      -25.833      -12.688       17.557       11.690       10.173      308.257      136.660      103.481        0.362        0.027       80.759       10.130        0.016      330.233       -2.526      868.487
11/18/2014  00:27:00      -66.659      -25.071       -7.764       12.825       11.603        8.469      164.473      134.629       71.726        0.275        0.019       71.218        5.521        0.006      330.202       -2.577      868.479
11/18/2014  00:28:00      -80.619      -37.535       -9.373       10.377       13.974        7.866      107.679      195.265       61.879        0.418        0.018       88.928        5.153        0.003      330.187       -2.603      868.470
11/18/2014  00:29:00      -74.012      -20.756      -14.290       16.585       14.524        9.923      275.055      210.938       98.459        0.335        0.029       76.868        7.706        0.010      330.225       -2.540      868.455
11/18/2014  00:30:00      -89.219      -27.406      -10.993       14.202        8.633        8.321      201.685       74.532       69.247        0.459        0.017       93.334        4.216        0.002      330.167       -2.634      868.454
11/18/2014  00:31:00      -87.450      -25.190       -6.356       11.076       10.574        8.724      122.684      111.818       76.115        0.432        0.016       91.006        2.372        0.001      330.152       -2.660      868.450
11/18/2014  00:32:00      -61.896      -27.204       -3.602       24.184       18.601       13.977      584.866      345.990      195.370        0.285        0.056       67.611       13.900        0.042      330.181       -2.611      868.439
11/18/2014  00:33:00      -80.360      -25.880      -10.233       12.836       13.672       11.649      164.754      186.930      135.697        0.386        0.024       84.424        6.814        0.007      330.245       -2.506      868.416
11/18/2014  00:34:00      -95.175      -20.107      -12.363       12.115       11.033        9.575      146.782      121.723       91.689        0.499        0.018       97.276        5.803        0.004      330.230       -2.531      868.385
11/18/2014  00:35:00      -93.296      -25.994      -12.612       19.822       11.213       10.294      392.898      125.721      105.971        0.508        0.031       96.849       10.155        0.011      330.182       -2.610      868.364
11/18/2014  00:36:00      -97.740      -29.340      -14.627       10.897       10.162        7.822      118.745      103.268       61.177        0.546        0.014      102.049        2.340        0.001      330.099       -2.743      868.351
11/18/2014  00:37:00      -81.823      -30.468      -17.876        8.085        6.749        5.082       65.375       45.546       25.823        0.404        0.007       87.312        2.931        0.001      330.043       -2.835      868.343
11/18/2014  00:38:00      -84.121      -27.439      -16.890       15.176        9.646        9.457      230.296       93.042       89.439        0.426        0.021       88.483        8.964        0.010      330.090       -2.760      868.336
11/18/2014  00:39:00      -77.987      -31.571      -14.521       23.069       13.140       12.830      532.169      172.661      164.610        0.408        0.043       84.135       13.592        0.026      330.043       -2.837      868.335
11/18/2014  00:40:00     -111.033      -25.944      -13.559       31.642       15.399       10.432     1001.202      237.139      108.823        0.727        0.067      114.024        9.612        0.007      330.038       -2.845      868.341
11/18/2014  00:41:00      -85.809      -22.053       -5.731       31.937       19.288       13.239     1019.972      372.046      175.267        0.472        0.078       88.597       14.049        0.025      330.017       -2.879      868.338
11/18/2014  00:42:00      -90.349      -30.668       -9.026       17.883       14.646        7.258      319.807      214.507       52.682        0.489        0.029       95.412        3.245        0.001      330.148       -2.665      868.330
11/18/2014  00:43:00      -72.964      -20.168       -5.046       13.782       18.524        9.183      189.957      343.131       84.331        0.319        0.031       75.701        7.527        0.010      330.172       -2.626      868.328
11/18/2014  00:44:00      -70.901      -35.540       -6.550       19.559       15.119       12.835      382.545      228.588      164.745        0.355        0.039       79.310       11.844        0.022      330.179       -2.613      868.321
11/18/2014  00:45:00      -70.659      -34.976       -2.828       37.563       16.219       15.358     1410.970      263.043      235.859        0.407        0.095       78.842       20.962        0.071      330.118       -2.714      868.323
11/18/2014  00:46:00      -94.119      -51.035       -9.205       16.912       18.065       13.252      286.013      326.327      175.614        0.617        0.039      107.066        2.942        0.001      330.041       -2.839      868.320
11/18/2014  00:47:00      -56.291      -39.996        4.744       38.477       26.850       19.719     1480.441      720.912      388.846        0.369        0.130       69.053       17.387        0.063      329.906       -3.061      868.332
11/18/2014  00:48:00      -62.673      -40.378        7.284       45.189       29.495       23.193     2042.013      869.946      537.893        0.453        0.172       74.554       26.675        0.128      329.899       -3.073      868.338
11/18/2014  00:49:00      -59.654      -31.459        9.717       58.271       29.774       23.471     3395.550      886.520      550.898        0.474        0.242       67.441       28.381        0.177      329.863       -3.132      868.341
11/18/2014  00:50:00      -94.253      -62.478        3.198       38.681       26.589       20.841     1496.187      707.001      434.343        0.772        0.132      113.080       19.493        0.030      329.913       -3.048      868.346
11/18/2014  00:51:00     -101.291      -64.341       -0.215       36.763       30.935       19.878     1351.508      956.978      395.153        0.855        0.135      119.998       14.551        0.015      329.912       -3.051      868.352
11/18/2014  00:52:00      -58.859      -43.280        6.914       52.523       33.675       25.244     2758.703     1134.006      637.243        0.496        0.226       73.058       28.725        0.155      329.845       -3.161      868.359
11/18/2014  00:53:00     -116.216      -73.677       -2.762       39.550       28.810       27.561     1564.179      829.998      759.606        1.105        0.158      137.603       23.425        0.029      329.847       -3.159      868.361
11/18/2014  00:54:00     -104.843      -67.234       -6.619       43.315       34.829       21.954     1876.148     1213.025      481.960        0.956        0.179      124.549       17.618        0.020      329.835       -3.179      868.365
11/18/2014  00:55:00     -116.076      -50.160       -7.904       43.959       31.594       24.988     1932.424      998.209      624.394        0.980        0.178      126.451       23.894        0.036      329.851       -3.150      868.361
11/18/2014  00:56:00     -101.748      -56.126       -8.495       38.026       34.263       22.503     1445.993     1173.980      506.385        0.835        0.156      116.202       18.712        0.026      329.823       -3.197      868.367
11/18/2014  00:57:00     -102.522      -53.813       -2.832       52.612       27.414       24.009     2768.039      751.552      576.427        0.875        0.205      115.787       19.549        0.029      329.727       -3.354      868.384
11/18/2014  00:58:00      -93.879      -58.255        3.252       56.272       46.183       28.336     3166.545     2132.846      802.942        0.916        0.305      110.485       30.084        0.074      329.713       -3.377      868.401
11/18/2014  00:59:00      -80.142      -45.234       -8.415       34.598       22.528       17.869     1197.038      507.497      319.314        0.528        0.101       92.026       16.193        0.031      329.740       -3.331      868.407
11/18/2014  01:00:00      -90.829      -44.276       -6.274       35.573       28.582       13.338     1265.435      816.918      177.890        0.625        0.113      101.046       10.314        0.010      329.742       -3.328      868.410
11/18/2014  01:01:00     -107.415      -37.537      -13.866       12.333       15.274       10.378      152.108      233.306      107.698        0.682        0.025      113.785        6.573        0.003      329.706       -3.388      868.407
11/18/2014  01:02:00     -115.669      -19.955      -12.482       16.027       16.266       13.187      256.880      264.579      173.895        0.731        0.035      117.378        6.416        0.003      329.663       -3.458      868.404
11/18/2014  01:03:00     -109.879      -46.543      -10.905       11.467       21.937       12.669      131.495      481.236      160.500        0.757        0.039      119.330        8.190        0.005      329.660       -3.465      868.395
11/18/2014  01:04:00     -119.644      -61.191      -13.584       23.348       17.185       13.919      545.145      295.336      193.735        0.964        0.052      134.384        9.777        0.005      329.648       -3.483      868.388
11/18/2014  01:05:00     -107.635      -50.117      -11.038       32.095       15.486       14.455     1030.069      239.816      208.944        0.785        0.074      118.731        8.064        0.005      329.650       -3.479      868.379
11/18/2014  01:06:00      -99.647      -53.145       -8.619       19.760       21.476       15.144      390.463      461.227      229.355        0.695        0.054      112.933        8.856        0.006      329.657       -3.469      868.366
11/18/2014  01:07:00      -96.675      -56.990      -10.989       18.518       14.067       11.303      342.930      197.889      127.756        0.669        0.033      112.222        8.008        0.005      329.675       -3.440      868.362
11/18/2014  01:08:00     -106.580      -70.739      -10.668       23.442       24.105       17.540      549.526      581.072      307.661        0.896        0.072      127.919       13.892        0.012      329.679       -3.434      868.355
11/18/2014  01:09:00      -59.662      -21.910       -1.386       26.239       22.173       17.041      688.503      491.634      290.395        0.276        0.074       63.558        7.973        0.016      329.693       -3.410      868.352
11/18/2014  01:10:00      -93.189      -19.252       -6.875       21.853       29.013       17.523      477.559      841.745      307.058        0.536        0.081       95.157       13.890        0.021      329.734       -3.343      868.342
11/18/2014  01:11:00      -84.188      -60.232      -12.218       25.246       22.384       10.412      637.379      501.033      108.411        0.606        0.062      103.516       10.832        0.011      329.545       -3.651      868.347
11/18/2014  01:12:00      -18.948      -33.052       10.950       35.165       24.443       15.655     1236.577      597.440      245.083        0.182        0.104       38.098       16.690        0.192      329.601       -3.560      868.342
11/18/2014  01:13:00      -24.664      -21.587       -2.796       39.698       19.551       17.155     1575.910      382.248      294.292        0.167        0.113       32.777       20.697        0.399      329.681       -3.430      868.336
11/18/2014  01:14:00      -28.222      -24.482       -6.519       15.639       14.064       11.838      244.584      197.791      140.132        0.101        0.029       37.361        9.450        0.064      329.724       -3.358      868.325
11/18/2014  01:15:00      -26.905      -22.832       -1.359       13.330       13.787       16.738      177.691      190.090      280.176        0.095        0.032       35.287       11.405        0.104      329.761       -3.297      868.330
11/18/2014  01:16:00      -15.433      -14.084       -5.825       20.219       11.452       12.981      408.817      131.153      168.500        0.059        0.035       20.894        9.415        0.203      329.770       -3.284      868.327
11/18/2014  01:17:00      -32.787      -25.364       -2.692       26.682       13.742        9.929      711.927      188.850       98.590        0.136        0.050       41.453        6.336        0.023      329.790       -3.250      868.318
11/18/2014  01:18:00      -63.509      -20.955       -5.184        9.416       15.157        9.550       88.657      229.730       91.203        0.245        0.020       66.877        6.230        0.009      329.710       -3.382      868.299
11/18/2014  01:19:00      -53.440      -20.867       -9.875       17.773       17.182       12.469      315.869      295.205      155.476        0.208        0.038       57.369        7.844        0.019      329.709       -3.385      868.280
11/18/2014  01:20:00      -56.620      -18.361      -16.703       13.369       12.767       10.095      178.729      162.986      101.904        0.213        0.022       59.523        6.221        0.011      329.660       -3.464      868.270
11/18/2014  01:21:00      -56.076        2.734       -3.146        7.093        5.354        8.891       50.317       28.664       79.055        0.166        0.008       56.142        4.836        0.007      330.155       -2.653      868.264
11/18/2014  01:22:00      -38.786       -0.922       -7.468       14.365        9.113        7.715      206.354       83.056       59.523        0.095        0.017       38.797        5.265        0.018      330.067       -2.798      868.260
11/18/2014  01:23:00      -17.575      -31.333        4.317       10.093       15.023       11.914      101.876      225.676      141.932        0.089        0.023       35.925        8.551        0.057      329.880       -3.104      868.258
11/18/2014  01:24:00      -18.682      -32.184       -0.193       14.872       14.579       13.864      221.190      212.543      192.207        0.101        0.031       37.213       11.360        0.093      329.770       -3.283      868.263
11/18/2014  01:25:00      -21.449      -17.720        0.269       21.235       13.189        8.564      450.933      173.948       73.345        0.074        0.035       27.822        6.821        0.060      329.629       -3.515      868.280
11/18/2014  01:26:00      -21.003       -9.845        0.461       13.835        7.470       10.811      191.414       55.798      116.876        0.045        0.018       23.196        9.423        0.165      329.573       -3.606      868.291
11/18/2014  01:27:00      -45.710      -17.043      -10.103       11.013       10.109        9.822      121.277      102.200       96.464        0.140        0.016       48.784        2.844        0.003      329.601       -3.560      868.293
11/18/2014  01:28:00      -60.039      -12.379       -7.950        9.646        9.955        8.328       93.038       99.101       69.357        0.204        0.013       61.302        4.617        0.006      329.600       -3.562      868.288
11/18/2014  01:29:00      -65.863       -8.269       -7.942       10.365       11.367       11.143      107.432      129.218      124.173        0.242        0.018       66.380        5.442        0.007      329.588       -3.581      868.283
11/18/2014  01:30:00      -85.839      -15.893      -15.293       15.205        9.957       11.279      231.200       99.135      127.223        0.416        0.023       87.298        6.048        0.005      329.558       -3.630      868.278
11/18/2014  01:31:00      -92.255       -9.126      -12.711       13.890       12.390        9.293      192.924      153.509       86.359        0.459        0.022       92.706        4.860        0.003      329.529       -3.678      868.278
11/18/2014  01:32:00      -94.411      -13.849      -17.459       11.072       11.749        8.838      122.582      138.038       78.117        0.487        0.017       95.421        4.467        0.002      329.580       -3.593      868.276
11/18/2014  01:33:00      -85.285      -14.035      -10.363       17.785       15.505       11.751      316.289      240.419      138.084        0.414        0.035       86.432        8.870        0.011      329.625       -3.520      868.277
11/18/2014  01:34:00      -88.298      -29.982      -11.770       16.675       11.124        7.598      278.054      123.741       57.728        0.465        0.023       93.250        4.645        0.002      329.632       -3.512      868.283
11/18/2014  01:35:00      -87.024      -10.360       -8.597       20.967       14.128       10.005      439.627      199.611      100.107        0.425        0.037       87.639        9.152        0.011      329.640       -3.497      868.290
11/18/2014  01:36:00     -102.274       -4.512      -16.092       16.207       14.600        9.797      262.656      213.149       95.972        0.566        0.029      102.373        5.724        0.003      329.725       -3.357      868.305
11/18/2014  01:37:00      -85.232      -12.191      -13.230       15.372       14.176        8.708      236.284      200.962       75.832        0.405        0.026       86.099        7.909        0.008      329.695       -3.407      868.316
11/18/2014  01:38:00      -96.781      -22.815      -15.609       16.246       12.986        8.645      263.931      168.624       74.743        0.532        0.025       99.434        6.107        0.004      329.672       -3.445      868.320
11/18/2014  01:39:00     -116.810      -29.824      -13.231       14.779       12.810       10.522      218.430      164.109      110.722        0.760        0.025      120.557        8.124        0.005      329.621       -3.528      868.324
11/18/2014  01:40:00     -106.111      -36.659      -10.641       19.619       17.761       10.379      384.902      315.449      107.719        0.676        0.040      112.265        5.568        0.002      329.637       -3.501      868.326
11/18/2014  01:41:00     -100.436      -20.311      -10.256       12.003       15.344       10.934      144.076      235.444      119.548        0.555        0.025      102.469        4.023        0.002      329.613       -3.540      868.332
11/18/2014  01:42:00      -85.834      -30.196      -10.044       16.689       16.215        9.835      278.507      262.924       96.733        0.451        0.032       90.991        7.160        0.006      329.586       -3.585      868.335
11/18/2014  01:43:00      -89.820      -14.988      -12.722       17.598       13.085       11.246      309.677      171.211      126.468        0.453        0.030       91.062        4.349        0.002      329.583       -3.589      868.341
11/18/2014  01:44:00      -91.743      -14.067      -11.362       13.349       15.151       12.022      178.192      229.542      144.521        0.465        0.028       92.815        6.542        0.005      329.588       -3.582      868.336
11/18/2014  01:45:00      -99.839      -13.345      -10.116       14.181       12.366        9.416      201.111      152.909       88.659        0.535        0.022      100.727        5.353        0.003      329.521       -3.689      868.323
11/18/2014  01:46:00      -95.737      -24.198       -9.902       15.127       12.121       12.395      228.814      146.917      153.634        0.519        0.026       98.748        8.050        0.007      329.538       -3.663      868.314
11/18/2014  01:47:00     -108.823      -13.433      -12.170       17.343       17.889       16.339      300.781      320.000      266.969        0.653        0.044      109.649       12.193        0.012      329.443       -3.819      868.297
11/18/2014  01:48:00     -123.102      -16.828      -14.113       14.133       14.010       10.294      199.752      196.273      105.971        0.807        0.025      124.247        6.882        0.003      329.369       -3.939      868.297
11/18/2014  01:49:00     -111.146      -32.224      -14.477       16.551       15.712       10.761      273.926      246.870      115.790        0.712        0.032      115.723        6.479        0.003      329.374       -3.931      868.297
11/18/2014  01:50:00     -105.602      -23.271      -10.285       21.391       21.341       16.143      457.587      455.420      260.605        0.649        0.059      108.136       12.629        0.014      329.302       -4.049      868.302
11/18/2014  01:51:00      -93.013      -54.916       -9.936       27.450       20.728       16.307      753.478      429.642      265.918        0.661        0.072      108.015       11.279        0.011      329.315       -4.027      868.311
11/18/2014  01:52:00      -86.825      -28.369      -12.004       24.730       18.314       15.108      611.554      335.414      228.259        0.483        0.059       91.342        7.235        0.006      329.357       -3.960      868.327
11/18/2014  01:53:00      -86.865      -40.947       -8.814       17.326       13.597       13.866      300.200      184.884      192.269        0.499        0.034       96.032        4.778        0.002      329.339       -3.988      868.338
11/18/2014  01:54:00     -108.681      -25.796      -14.024       21.113       15.802       15.859      445.777      249.707      251.493        0.681        0.047      111.701       10.162        0.008      329.326       -4.009      868.343
11/18/2014  01:55:00      -97.974      -27.804       -8.120       24.843       17.470       13.666      617.151      305.216      186.762        0.577        0.055      101.843       13.554        0.018      329.280       -4.085      868.339
11/18/2014  01:56:00     -100.531      -28.677       -9.157       21.719       20.012       15.100      471.721      400.477      228.021        0.606        0.055      104.541        9.388        0.008      329.339       -3.989      868.332
11/18/2014  01:57:00     -128.472      -39.801      -12.896       23.248       19.150       13.116      540.451      366.732      172.023        0.967        0.054      134.496        7.091        0.003      329.330       -4.003      868.324
11/18/2014  01:58:00     -122.003      -41.823       -9.366       24.982       18.575       13.894      624.086      345.015      193.038        0.894        0.058      128.972       13.638        0.011      329.402       -3.887      868.321
11/18/2014  01:59:00     -116.761      -54.958      -10.175       15.827       16.855       14.391      250.480      284.105      207.106        0.875        0.037      129.049        8.025        0.004      329.383       -3.918      868.313
11/18/2014  02:00:00      -96.598      -33.336       -2.885       28.386       24.474       16.197      805.759      598.964      262.345        0.606        0.083      102.188       16.536        0.026      329.327       -4.010      868.305
11/18/2014  02:01:00      -96.863      -37.430      -10.569       19.417       19.783       13.663      377.033      391.359      186.688        0.592        0.048      103.843        7.493        0.005      329.371       -3.936      868.288
11/18/2014  02:02:00      -97.641      -44.475       -8.674       13.914       15.558       10.109      193.593      242.047      102.185        0.606        0.027      107.293        8.041        0.006      329.404       -3.884      868.271
11/18/2014  02:03:00     -112.292      -27.782      -14.353       22.093       20.640       13.066      488.090      426.001      170.714        0.734        0.054      115.677       11.545        0.010      329.339       -3.989      868.252
11/18/2014  02:04:00     -117.466      -13.837       -8.855       34.676       17.599       19.728     1202.416      309.722      389.197        0.798        0.095      118.278       16.873        0.020      329.297       -4.057      868.237
11/18/2014  02:05:00      -77.719      -59.552       -5.832       30.575       26.016       13.518      934.828      676.837      182.747        0.571        0.090       97.912       14.215        0.021      329.260       -4.117      868.230
11/18/2014  02:06:00      -22.012      -30.952       11.575       34.712       20.533       23.073     1204.919      421.602      532.348        0.187        0.108       37.981       23.034        0.368      329.287       -4.074      868.216
11/18/2014  02:07:00      -78.791      -51.598       -7.129       21.175       22.657       14.821      448.374      513.332      219.663        0.505        0.059       94.183       10.897        0.013      329.295       -4.061      868.197
11/18/2014  02:08:00      -98.146      -41.327      -14.124       21.051       14.959       11.333      443.156      223.779      128.434        0.617        0.040      106.492        8.745        0.007      329.213       -4.195      868.186
11/18/2014  02:09:00     -116.049      -20.106      -21.040       18.540       20.409       12.914      343.736      416.528      166.774        0.762        0.046      117.778        6.726        0.003      329.219       -4.186      868.182
11/18/2014  02:10:00      -94.503      -38.872      -21.372       18.870       23.002       12.924      356.070      529.082      167.038        0.598        0.053      102.185       12.289        0.014      329.319       -4.022      868.187
11/18/2014  02:11:00      -88.312      -26.306       -7.082       25.103       36.844       20.361      630.171     1357.487      414.591        0.547        0.120       92.147       11.353        0.015      329.477       -3.763      868.185
11/18/2014  02:12:00      -88.417      -13.548      -17.669       29.193       31.352       16.852      852.213      982.971      283.976        0.522        0.106       89.449       13.338        0.022      329.575       -3.604      868.181
11/18/2014  02:13:00     -107.058      -21.544      -20.589       14.703       20.896       12.869      216.167      436.658      165.610        0.658        0.041      109.204       13.082        0.014      329.366       -3.946      868.170
11/18/2014  02:14:00      -81.323      -14.157      -10.831       20.627       19.448       18.651      425.465      378.206      347.854        0.404        0.058       82.546       13.260        0.026      329.381       -3.921      868.165
11/18/2014  02:15:00      -88.944      -12.896      -16.052       12.933       10.616       10.200      167.259      112.704      104.039        0.436        0.019       89.875        7.275        0.007      329.338       -3.990      868.137
11/18/2014  02:16:00     -110.105      -12.756      -16.745       14.980       12.234        9.398      224.403      149.664       88.320        0.651        0.023      110.842        6.936        0.004      329.376       -3.929      868.099
11/18/2014  02:17:00      -66.122      -33.761      -11.388       16.186       12.926       10.936      261.990      167.071      119.590        0.310        0.027       74.242        7.520        0.010      329.531       -3.674      868.066
11/18/2014  02:18:00      -69.176      -24.288      -13.795       17.315       17.062       13.317      299.805      291.110      177.342        0.317        0.038       73.316       10.595        0.021      329.491       -3.741      868.033
11/18/2014  02:19:00      -82.131       -7.942      -11.230       21.652       21.146       12.196      468.801      447.134      148.745        0.400        0.053       82.514       10.180        0.015      329.537       -3.665      868.017
11/18/2014  02:20:00      -89.700      -18.236      -12.919       29.972       18.874       17.125      898.340      356.216      293.260        0.505        0.077       91.535       15.557        0.029      329.384       -3.915      868.010
11/18/2014  02:21:00     -102.811      -21.157      -15.663       23.849       12.212       15.064      568.768      149.140      226.927        0.610        0.047      104.965       10.246        0.010      329.363       -3.949      868.007
11/18/2014  02:22:00      -88.836      -22.515      -15.873       16.796       13.040       13.514      282.114      170.054      182.624        0.464        0.032       91.644        9.064        0.010      329.362       -3.950      867.999
11/18/2014  02:23:00     -101.497      -17.853      -10.387       26.364       20.203       16.827      695.081      408.177      283.155        0.606        0.069      103.055       14.828        0.021      329.263       -4.113      868.000
11/18/2014  02:24:00      -91.750      -43.094      -19.427       21.855       22.263       14.177      477.629      495.660      201.001        0.591        0.059      101.366        9.128        0.008      329.310       -4.036      868.021
11/18/2014  02:25:00     -133.213      -70.266      -27.574       30.891       20.692       16.553      954.243      428.174      273.999        1.255        0.083      150.609       11.166        0.005      329.279       -4.086      868.053
11/18/2014  02:26:00     -137.939      -57.855      -19.795       47.250       22.652       15.179     2232.554      513.101      230.410        1.287        0.149      149.581        5.801        0.002      329.305       -4.044      868.095
11/18/2014  02:27:00     -135.538      -26.734      -19.813       18.477       16.151       15.056      341.387      260.865      226.677        1.015        0.041      138.149        8.251        0.004      329.364       -3.949      868.121
11/18/2014  02:28:00     -104.667      -11.344       -0.733       24.207       19.147       13.601      585.968      366.622      184.982        0.611        0.057      105.280        9.597        0.008      329.328       -4.007      868.135
11/18/2014  02:29:00     -101.729      -38.797       -3.665       18.504       21.784       11.933      342.387      474.553      142.385        0.641        0.048      108.876        8.559        0.006      329.438       -3.826      868.144
11/18/2014  02:30:00      -80.911      -49.840       -1.450       36.825       29.633       17.817     1356.064      878.137      317.438        0.579        0.128       95.030       17.934        0.036      329.453       -3.802      868.145
11/18/2014  02:31:00      -70.115      -39.794        2.000       39.199       40.450       21.363     1536.567     1636.226      456.364        0.507        0.181       80.620       20.150        0.062      329.465       -3.784      868.155
11/18/2014  02:32:00      -44.047      -36.592        5.200       40.835       23.619       18.292     1667.499      557.859      334.600        0.293        0.128       57.263       22.384        0.153      329.413       -3.866      868.151
11/18/2014  02:33:00      -34.328      -38.393        1.716       30.647       12.705       12.683      939.227      161.413      160.859        0.196        0.063       51.502        4.877        0.009      329.485       -3.750      868.140
11/18/2014  02:34:00       10.733      -23.808        4.213        9.375       11.728        8.650       87.895      137.542       74.817        0.050        0.015       26.116        3.590        0.019      329.575       -3.602      868.146
11/18/2014  02:35:00        2.461      -24.036        9.494       12.909       16.766        8.366      166.654      281.094       69.982        0.060        0.026       24.162        4.975        0.042      329.571       -3.611      868.149
11/18/2014  02:36:00      -10.994      -38.840       -6.555       16.469       16.108       11.754      271.214      259.469      138.164        0.117        0.033       40.367        9.006        0.050      329.549       -3.646      868.146
11/18/2014  02:37:00      -50.930      -31.253       -5.283       26.480       20.453        9.245      701.177      418.319       85.475        0.240        0.060       59.754        6.375        0.011      329.480       -3.758      868.144
11/18/2014  02:38:00      -67.250      -36.639       -3.743       17.145       13.187       11.275      293.962      173.908      127.118        0.324        0.030       76.583        3.625        0.002      329.452       -3.805      868.139
11/18/2014  02:39:00      -57.533      -56.040       -3.198       42.083       35.313       22.501     1770.952     1247.007      506.276        0.499        0.176       80.315       28.828        0.129      329.398       -3.893      868.137
11/18/2014  02:40:00     -101.369     -112.451      -12.164       37.391       29.736       25.225     1398.096      884.237      636.288        1.299        0.146      151.397       23.775        0.025      329.325       -4.012      868.127
11/18/2014  02:41:00      -87.631     -103.595       -7.654       41.219       34.887       25.013     1699.018     1217.071      625.650        1.101        0.177      135.688       23.358        0.030      329.264       -4.110      868.112
11/18/2014  02:42:00     -108.098      -59.930       -1.928       30.342       22.811       18.522      920.658      520.338      343.062        0.853        0.089      123.599        7.118        0.003      329.341       -3.986      868.093
11/18/2014  02:43:00      -98.133      -42.472       -3.595       16.623       23.165       12.992      276.315      536.609      168.787        0.621        0.049      106.930        5.113        0.002      329.314       -4.031      868.078
11/18/2014  02:44:00      -99.815      -26.828       -7.209       18.313       18.728       12.809      335.383      350.735      164.067        0.579        0.043      103.358       11.021        0.011      329.292       -4.065      868.062
11/18/2014  02:45:00      -64.998      -17.344      -12.745       12.800       11.945        9.437      163.841      142.695       89.051        0.254        0.020       67.272        8.139        0.015      329.288       -4.072      868.055
11/18/2014  02:46:00      -34.075      -40.362       -8.452       17.608       12.771       12.627      310.057      163.109      159.452        0.175        0.032       52.822       10.179        0.037      329.341       -3.986      868.044
11/18/2014  02:47:00      -61.779      -22.172       -9.728       26.993       15.385       11.531      728.599      236.690      132.955        0.275        0.055       65.637        8.104        0.015      329.384       -3.916      868.037
11/18/2014  02:48:00      -89.535       -7.568      -14.125       12.518        8.266       11.091      156.698       68.321      123.010        0.431        0.017       89.854        6.437        0.005      329.356       -3.959      868.039
11/18/2014  02:49:00      -86.284      -15.961      -12.650       15.652       15.402       11.729      245.000      237.234      137.581        0.424        0.031       87.748        9.315        0.011      329.379       -3.924      868.050
11/18/2014  02:50:00      -76.539      -22.902      -13.112       15.421       16.178       14.590      237.821      261.712      212.882        0.363        0.036       79.892        9.973        0.016      329.388       -3.908      868.060
11/18/2014  02:51:00     -105.790      -35.031      -15.449       14.133       15.550       10.411      199.749      241.788      108.386        0.660        0.027      111.439        5.081        0.002      329.265       -4.108      868.074
11/18/2014  02:52:00     -105.300      -51.414       -8.325       16.024       19.695       10.492      256.780      387.907      110.085        0.728        0.038      117.181       10.140        0.007      329.256       -4.124      868.094
11/18/2014  02:53:00     -121.450      -38.222       -6.084       21.456       24.861       14.063      460.342      618.050      197.771        0.876        0.064      127.323       10.390        0.007      329.240       -4.150      868.115
11/18/2014  02:54:00     -111.123      -23.846       -5.261       29.006       24.710       16.638      841.329      610.600      276.808        0.734        0.086      113.653       10.239        0.008      329.263       -4.113      868.128
11/18/2014  02:55:00     -107.517      -31.253       -4.131       30.111       33.943       15.103      906.652     1152.115      228.110        0.742        0.114      111.968       13.070        0.014      329.306       -4.042      868.136
11/18/2014  02:56:00     -106.557      -21.387      -12.431       32.959       27.502       22.408     1086.312      756.351      502.114        0.716        0.117      108.682       20.057        0.034      329.405       -3.881      868.136
11/18/2014  02:57:00      -91.550      -45.729       -1.099       37.763       30.617       19.388     1426.081      937.412      375.907        0.661        0.137      102.335       16.191        0.025      329.371       -3.936      868.133
11/18/2014  02:58:00     -118.298      -27.466      -16.852       19.303       20.421       15.563      372.587      417.032      242.196        0.803        0.052      121.444        7.391        0.004      329.392       -3.903      868.123
11/18/2014  02:59:00      -83.535      -21.094       -2.881       38.362       27.212       18.277     1471.617      740.471      334.032        0.499        0.127       86.157       18.721        0.047      329.377       -3.928      868.112
11/18/2014  03:00:00      -92.063      -27.637       -0.289       21.422       18.416       14.248      458.888      339.161      203.008        0.512        0.050       96.122       11.819        0.015      329.344       -3.981      868.094
11/18/2014  03:01:00      -94.582      -19.208       -8.560       18.668       19.262       15.653      348.502      371.030      245.003        0.518        0.048       96.513       11.953        0.015      329.262       -4.115      868.076
11/18/2014  03:02:00     -106.436      -17.381      -14.188       12.679       16.332       10.357      160.762      266.727      107.266        0.618        0.027      107.846        6.560        0.004      329.251       -4.132      868.063
11/18/2014  03:03:00      -92.098       -7.693      -15.202       26.015       18.383       13.769      676.798      337.935      189.580        0.499        0.060       92.418       10.498        0.013      329.260       -4.117      868.050
11/18/2014  03:04:00      -88.214       -7.414       -7.644       25.499       21.234       13.562      650.221      450.893      183.931        0.459        0.064       88.525       12.631        0.020      329.457       -3.797      868.036
11/18/2014  03:05:00      -87.533      -22.073       -9.366       18.064       20.878       11.271      326.309      435.906      127.045        0.456        0.044       90.273        8.066        0.008      329.352       -3.968      868.031
11/18/2014  03:06:00      -91.707      -27.990      -11.184       24.065       26.509       13.998      579.103      702.711      195.950        0.540        0.074       95.883       11.029        0.013      329.303       -4.047      868.019
11/18/2014  03:07:00      -96.980      -22.116       -7.178       35.590       29.621       23.047     1266.636      877.379      531.165        0.631        0.134       99.470       14.653        0.022      329.289       -4.070      868.008
11/18/2014  03:08:00      -85.755      -29.751       -6.057       47.432       31.128       22.144     2249.786      968.977      490.376        0.599        0.185       90.769       27.291        0.090      329.267       -4.106      868.000
11/18/2014  03:09:00     -114.816      -46.005      -15.100       21.514       24.481       12.785      462.834      599.311      163.466        0.838        0.061      123.689        3.804        0.001      329.168       -4.266      867.988
11/18/2014  03:10:00      -61.413      -46.514       -8.484       27.767       26.824       16.121      771.022      719.538      259.888        0.388        0.088       77.040       15.753        0.042      329.160       -4.282      867.989
11/18/2014  03:11:00      -11.265      -29.921        7.868       57.870       22.674       24.349     3348.932      514.099      592.892        0.277        0.223       31.971       32.886        1.058      329.214       -4.194      867.991
11/18/2014  03:12:00      -70.208      -22.770       -8.410       21.146       22.447       12.988      447.167      503.875      168.686        0.332        0.056       73.808       11.415        0.024      329.182       -4.245      867.984
11/18/2014  03:13:00      -53.076      -25.692       -4.084       29.564       18.829       14.641      874.024      354.513      214.365        0.247        0.072       58.967       16.471        0.078      329.317       -4.024      867.978
11/18/2014  03:14:00      -56.608      -48.086       -0.963       27.211       15.689       15.169      740.413      246.139      230.101        0.337        0.061       74.275       10.534        0.020      329.319       -4.022      867.982
11/18/2014  03:15:00      -65.659      -42.082       -3.615       18.475       20.752       15.004      341.338      430.640      225.124        0.355        0.050       77.988        7.937        0.010      329.377       -3.926      867.994
11/18/2014  03:16:00      -89.631      -40.654      -12.099       26.056       17.702       12.910      678.891      313.347      166.675        0.550        0.058       98.420       12.333        0.016      329.294       -4.062      867.999
11/18/2014  03:17:00      -89.136      -34.011       -8.966       22.164       16.217       12.414      491.241      262.977      154.116        0.505        0.045       95.404        9.527        0.010      329.312       -4.033      868.007
11/18/2014  03:18:00      -88.017      -20.219       -6.698       23.207       17.250       16.356      538.550      297.565      267.531        0.465        0.055       90.309       13.823        0.023      329.346       -3.978      868.018
11/18/2014  03:19:00      -87.680      -21.844       -9.738       22.616       19.154       13.328      511.493      366.867      177.645        0.466        0.053       90.360        7.574        0.007      329.339       -3.989      868.038
11/18/2014  03:20:00      -99.743      -22.559      -17.746       15.791       15.513       12.298      249.367      240.646      151.248        0.571        0.032      102.263        8.944        0.008      329.270       -4.103      868.057
11/18/2014  03:21:00      -81.893      -32.920       -5.684       24.238       31.603       16.751      587.470      998.756      280.580        0.484        0.093       88.262        9.590        0.012      329.287       -4.074      868.071
11/18/2014  03:22:00      -44.324      -21.432        2.891       34.347       33.253       16.766     1179.699     1105.744      281.091        0.250        0.128       49.233       13.204        0.072      329.361       -3.952      868.084
11/18/2014  03:23:00       -8.330      -16.590        8.197       40.843       32.609       15.429     1668.151     1063.325      238.056        0.169        0.148       18.564       21.421        1.331      329.377       -3.928      868.091
11/18/2014  03:24:00      -42.947      -18.736        0.994       37.350       36.628       19.944     1395.013     1341.579      397.759        0.266        0.157       46.856       16.217        0.120      329.446       -3.813      868.095
11/18/2014  03:25:00      -66.626      -46.820        1.414       41.715       36.553       17.429     1740.178     1336.094      303.784        0.501        0.169       81.432       20.112        0.061      329.409       -3.875      868.089
11/18/2014  03:26:00     -103.297      -31.846      -10.060       41.035       29.780       19.822     1683.837      886.833      392.926        0.737        0.148      108.094       24.225        0.050      329.279       -4.086      868.086
11/18/2014  03:27:00      -72.787      -58.018       -7.416       37.422       28.772       22.378     1400.421      827.802      500.788        0.572        0.136       93.081       20.330        0.048      329.238       -4.154      868.071
11/18/2014  03:28:00     -120.308      -55.442       -9.893       37.111       27.733       23.686     1377.220      769.125      561.014        1.018        0.135      132.468       21.523        0.026      329.138       -4.317      868.054
11/18/2014  03:29:00      -66.720      -38.036       -7.644       39.990       33.201       22.908     1599.162     1102.313      524.796        0.459        0.161       76.800       18.352        0.057      329.130       -4.331      868.038
11/18/2014  03:30:00     -109.270      -19.441       -9.518       27.747       27.450       20.472      769.880      753.525      419.095        0.718        0.097      110.986       16.166        0.021      329.097       -4.383      868.031
11/18/2014  03:31:00      -80.010      -23.670      -10.849       42.308       26.032       22.906     1789.979      677.668      524.667        0.504        0.150       83.438       20.057        0.058      329.054       -4.454      868.025
11/18/2014  03:32:00      -42.440      -21.068       -7.499       34.270       23.808       15.995     1174.404      566.822      255.844        0.215        0.100       47.382       18.264        0.149      329.154       -4.292      868.010
11/18/2014  03:33:00      -65.738      -19.536      -11.024       18.081       21.184       15.083      326.911      448.745      227.493        0.291        0.050       68.580       12.344        0.032      329.118       -4.350      867.994
11/18/2014  03:34:00      -56.114      -35.038       -6.202       18.179       24.818       12.395      330.465      615.951      153.641        0.276        0.055       66.155        5.569        0.007      329.096       -4.387      867.987
11/18/2014  03:35:00      -55.226      -30.892      -10.155       25.713       17.305       13.377      661.166      299.480      178.933        0.262        0.057       63.279       10.342        0.027      329.079       -4.412      867.986
11/18/2014  03:36:00      -57.034      -25.988       -6.083       24.172       16.935       10.198      584.297      286.810      104.008        0.247        0.049       62.675       10.857        0.030      329.179       -4.250      867.992
11/18/2014  03:37:00      -61.314      -24.263       -6.631       13.117       15.394        8.943      172.055      236.965       79.970        0.244        0.024       65.940        5.243        0.006      329.126       -4.336      867.989
11/18/2014  03:38:00      -50.555      -23.113       -9.190       12.624       16.159        8.706      159.375      261.102       75.797        0.184        0.025       55.588        4.819        0.008      329.108       -4.365      867.993
11/18/2014  03:39:00      -48.854      -16.477       -5.904       11.852       11.302        9.816      140.468      127.736       96.347        0.153        0.018       51.557        6.247        0.015      329.149       -4.299      867.985
11/18/2014  03:40:00      -55.524      -16.142      -13.582        9.385       11.168        7.588       88.084      124.718       57.582        0.190        0.014       57.823        3.075        0.003      329.128       -4.333      867.983
11/18/2014  03:41:00      -40.020      -23.857       -7.379       14.432       11.661       13.246      208.276      135.988      175.446        0.137        0.026       46.592        6.666        0.020      329.141       -4.314      867.990
11/18/2014  03:42:00      -42.855      -27.948       -2.065       22.042       13.747       10.448      485.850      188.989      109.171        0.170        0.039       51.163        7.020        0.019      329.015       -4.518      868.011
11/18/2014  03:43:00     -101.372      -26.337      -14.863       13.834       13.754       11.151      191.378      189.178      124.340        0.585        0.025      104.737        8.363        0.006      328.859       -4.771      868.041
11/18/2014  03:44:00      -89.456      -29.251      -13.344       19.565       24.641       14.546      382.793      607.196      211.576        0.512        0.060       94.116        8.792        0.009      328.978       -4.580      868.066
11/18/2014  03:45:00      -97.976      -17.932      -10.787       18.981       19.279       12.825      360.279      371.679      164.481        0.547        0.045       99.604       10.232        0.011      329.033       -4.490      868.089
11/18/2014  03:46:00      -92.869      -17.553      -17.595       17.572       11.471       10.782      308.778      131.594      116.261        0.490        0.028       94.513        5.640        0.004      329.027       -4.498      868.105
11/18/2014  03:47:00      -61.723      -27.866       -7.342       12.393       10.703        9.740      153.586      114.549       94.859        0.250        0.018       67.722        7.656        0.013      329.081       -4.410      868.114
11/18/2014  03:48:00      -55.054      -19.116       -3.860       14.081        9.912       11.005      198.261       98.249      121.119        0.191        0.021       58.278        5.583        0.009      329.102       -4.376      868.117
11/18/2014  03:49:00      -72.761      -20.995       -7.651       13.280       11.087        8.595      176.363      122.932       73.876        0.308        0.019       75.729        6.860        0.008      329.097       -4.385      868.118
11/18/2014  03:50:00      -83.953      -17.605       -8.972        9.044       12.186        7.825       81.796      148.489       61.232        0.386        0.015       85.779        5.615        0.004      329.148       -4.300      868.116
11/18/2014  03:51:00      -70.596      -14.212       -5.797       13.323       14.452        7.914      177.491      208.848       62.637        0.283        0.022       72.013        6.357        0.008      329.225       -4.175      868.126
11/18/2014  03:52:00      -48.623      -23.279       -0.557       19.615       18.116       11.821      384.738      328.180      139.727        0.188        0.043       53.908        7.374        0.019      329.306       -4.041      868.137
11/18/2014  03:53:00      -56.992      -25.622       -7.409       12.382        8.385        8.661      153.326       70.308       75.014        0.213        0.015       62.487        4.838        0.006      329.284       -4.078      868.138
11/18/2014  03:54:00      -74.072      -38.613       -1.296       16.725       11.998        9.722      279.720      143.950       94.512        0.375        0.026       83.532        4.564        0.003      329.259       -4.119      868.138
11/18/2014  03:55:00      -68.602      -28.815        1.153       31.135       21.378       17.350      969.406      457.039      301.039        0.363        0.086       74.408       12.300        0.027      329.103       -4.374      868.132
11/18/2014  03:56:00      -44.060      -47.648        1.648       40.483       29.435       23.574     1638.903      866.435      555.724        0.364        0.153       64.897       15.446        0.057      329.054       -4.454      868.121
11/18/2014  03:57:00      -87.120      -59.992        1.625       53.645       32.068       20.394     2877.829     1028.365      415.900        0.776        0.216      105.778       22.008        0.043      329.097       -4.382      868.121
11/18/2014  03:58:00      -82.052      -54.848        0.521       43.430       32.029       24.600     1886.140     1025.859      605.155        0.663        0.176       98.695       18.409        0.035      329.057       -4.448      868.122
11/18/2014  03:59:00      -77.464      -71.398        2.377       34.616       42.118       21.411     1198.253     1773.956      458.434        0.727        0.172      105.348       16.103        0.023      329.060       -4.443      868.125
11/18/2014  04:00:00     -100.840      -59.619       -3.493       28.598       25.841       16.609      817.845      667.745      275.875        0.775        0.088      117.146       14.017        0.014      329.072       -4.425      868.132
11/18/2014  04:01:00      -99.771      -38.874      -10.264       21.185       15.889       14.896      448.797      252.459      221.883        0.625        0.046      107.077       12.856        0.014      329.023       -4.506      868.131
11/18/2014  04:02:00      -92.071      -12.038       -4.220       22.619       16.820       17.342      511.610      282.904      300.737        0.487        0.055       92.855       16.081        0.030      328.914       -4.684      868.129
11/18/2014  04:03:00      -96.963      -24.889       -5.008       23.347       19.162       14.489      545.086      367.165      209.928        0.558        0.056      100.107        9.854        0.010      328.936       -4.648      868.130
11/18/2014  04:04:00      -96.922      -38.955       -5.514       46.738       28.810       16.047     2184.411      830.007      257.498        0.711        0.164      104.457       12.248        0.014      328.982       -4.572      868.132
11/18/2014  04:05:00      -74.696      -32.122        5.036       40.267       21.283       17.830     1621.444      452.971      317.894        0.451        0.120       81.310       14.782        0.033      329.029       -4.494      868.135
11/18/2014  04:06:00      -76.287      -20.992        0.533       42.532       22.745       16.255     1808.939      517.328      264.227        0.443        0.130       79.122       18.087        0.052      328.951       -4.623      868.144
11/18/2014  04:07:00      -79.423      -44.038        0.447       29.156       24.758       21.378      850.077      612.962      457.033        0.508        0.096       90.815       17.485        0.037      328.979       -4.576      868.147
11/18/2014  04:08:00      -84.806      -16.243       -5.270       16.660       13.100        8.660      277.562      171.621       74.991        0.400        0.026       86.348        3.463        0.002      329.000       -4.542      868.149
11/18/2014  04:09:00      -64.645      -27.356       -4.929       17.972       14.606       10.579      322.998      213.343      111.924        0.280        0.032       70.194        7.525        0.011      329.031       -4.490      868.149
11/18/2014  04:10:00      -51.689      -21.245       -9.153       13.242        9.482        9.047      175.351       89.914       81.840        0.178        0.017       55.885        3.867        0.005      329.047       -4.466      868.156
11/18/2014  04:11:00      -58.000       -8.571       -7.359        7.015       13.587        8.063       49.211      184.607       65.008        0.190        0.015       58.630        4.193        0.005      329.020       -4.509      868.152
11/18/2014  04:12:00      -52.840      -13.870       -5.108       10.938       14.565        9.944      119.630      212.141       98.880        0.172        0.022       54.630        7.021        0.017      329.111       -4.360      868.144
11/18/2014  04:13:00      -65.198      -19.852       -7.371       12.997       12.811        9.851      168.919      164.111       97.050        0.256        0.022       68.153        1.350        0.000      329.092       -4.393      868.142
11/18/2014  04:14:00      -77.830      -11.872       -8.175       11.125       13.713        9.396      123.769      188.058       88.288        0.333        0.020       78.730        6.770        0.007      328.958       -4.611      868.138
11/18/2014  04:15:00      -92.628      -15.427      -15.529       16.266        8.370        9.347      264.594       70.055       87.369        0.474        0.021       93.904        7.869        0.007      328.980       -4.576      868.151
11/18/2014  04:16:00      -84.878      -13.092      -10.781       17.096       11.838       12.186      292.269      140.148      148.508        0.404        0.029       85.881       10.321        0.014      328.892       -4.719      868.162
11/18/2014  04:17:00      -69.676      -22.755      -11.138       16.430       13.502        8.887      269.931      182.300       78.977        0.301        0.027       73.298        5.775        0.006      328.876       -4.744      868.162
11/18/2014  04:18:00      -67.412      -26.311      -12.627       13.441        8.621        8.936      180.651       74.313       79.856        0.287        0.017       72.364        7.124        0.010      328.850       -4.786      868.153
11/18/2014  04:19:00      -48.682      -13.410      -11.116       12.567       13.605        6.428      157.919      185.091       41.320        0.153        0.019       50.495        4.625        0.008      328.939       -4.642      868.139
11/18/2014  04:20:00      -13.198       -3.426       -5.238       10.596        6.685        6.848      112.275       44.695       46.893        0.021        0.010       13.635        5.851        0.184      329.167       -4.270      868.125
11/18/2014  04:21:00        2.288       29.150       -2.931        8.900       13.809        6.291       79.209      190.698       39.576        0.059        0.015       29.240        6.800        0.054      329.410       -3.872      868.121
11/18/2014  04:22:00        3.769       52.202       -5.175       11.545        9.481        8.846      133.282       89.896       78.251        0.153        0.015       52.338        6.557        0.016      329.487       -3.745      868.119
11/18/2014  04:23:00       -1.314       64.300       -9.761        8.910        9.700        5.640       79.380       94.088       31.811        0.222        0.010       64.313        4.737        0.005      329.563       -3.623      868.113
11/18/2014  04:24:00       10.549       53.172       -8.278        6.765        5.559        3.271       45.765       30.897       10.698        0.155        0.004       54.208        1.743        0.001      329.690       -3.415      868.110
11/18/2014  04:25:00       16.159       53.901       -5.723        5.698        7.304        4.822       32.469       53.347       23.247        0.165        0.005       56.271        1.668        0.001      329.676       -3.438      868.115
11/18/2014  04:26:00        6.497       62.620       -3.612        9.751        9.131        3.898       95.075       83.378       15.198        0.209        0.010       62.956        2.616        0.002      329.618       -3.533      868.131
11/18/2014  04:27:00       -3.033       42.589       -4.719       12.123        9.596        5.200      146.974       92.088       27.044        0.106        0.013       42.696        3.722        0.008      329.599       -3.566      868.144
11/18/2014  04:28:00      -32.102      -22.314       -8.169       21.853       16.276       13.507      477.544      264.919      182.428        0.126        0.046       39.096       10.753        0.076      329.117       -4.351      868.153
11/18/2014  04:29:00      -90.374      -11.156      -14.536       12.298       11.451       10.087      151.242      131.117      101.750        0.444        0.019       91.060        7.556        0.007      328.797       -4.874      868.160
11/18/2014  04:30:00      -64.986       -7.468      -11.317       20.949       16.179       13.342      438.842      261.770      178.002        0.264        0.044       65.414       10.994        0.028      329.071       -4.426      868.168
11/18/2014  04:31:00      -39.274        6.718       -9.606       25.858       23.545       12.036      668.613      554.387      144.866        0.152        0.068       39.844        8.737        0.048      329.219       -4.185      868.169
11/18/2014  04:32:00      -20.318       -9.898       -8.926       10.596        7.946        5.994      112.276       63.137       35.927        0.040        0.011       22.600        4.144        0.034      329.263       -4.114      868.181
11/18/2014  04:33:00       10.361       15.742        3.411        9.813        8.912        6.216       96.302       79.422       38.645        0.029        0.011       18.846        5.771        0.094      329.499       -3.728      868.184
11/18/2014  04:34:00        5.189       15.290        4.326        4.929        3.913        4.958       24.298       15.314       24.579        0.017        0.003       16.147        3.449        0.046      329.560       -3.628      868.193
11/18/2014  04:35:00        9.008        8.161        5.205        4.492        3.543        3.922       20.174       12.555       15.385        0.011        0.002       12.155        2.035        0.028      329.500       -3.728      868.202
11/18/2014  04:36:00       -2.426       -2.518        4.237        7.418        6.749        5.415       55.031       45.554       29.319        0.008        0.006        3.496        4.448        1.618      329.226       -4.173      868.204
11/18/2014  04:37:00       -7.941       -9.026        0.392        4.489        6.161        7.641       20.155       37.953       58.380        0.013        0.006       12.022        3.277        0.074      329.171       -4.265      868.203
11/18/2014  04:38:00        5.640        3.819       -0.721       10.955        9.889        3.842      120.005       97.790       14.764        0.014        0.012        6.812        3.899        0.328      329.229       -4.170      868.197
11/18/2014  04:39:00        3.310        8.877        9.013        8.910        5.466        6.085       79.386       29.877       37.024        0.016        0.007        9.474        5.646        0.355      329.240       -4.149      868.203
11/18/2014  04:40:00       13.055       21.126       12.112       13.012        9.384        6.640      169.310       88.061       44.083        0.053        0.015       24.834        4.399        0.031      329.252       -4.131      868.198
11/18/2014  04:41:00       19.930       14.952        5.620        7.479        7.757        6.345       55.933       60.166       40.263        0.040        0.008       24.915        4.457        0.032      329.349       -3.974      868.202
11/18/2014  04:42:00       25.017       13.189        1.139        8.006        5.904        7.542       64.093       34.851       56.889        0.048        0.008       28.281        6.062        0.046      329.355       -3.964      868.203
11/18/2014  04:43:00        8.387        8.406        2.509        7.793        6.954        5.156       60.733       48.358       26.585        0.014        0.007       11.875        4.708        0.157      329.301       -4.051      868.211
11/18/2014  04:44:00      -14.215      -12.940       -4.717       19.025       17.539        8.451      361.932      307.624       71.414        0.057        0.037       19.223       12.180        0.402      329.139       -4.316      868.223
11/18/2014  04:45:00      -44.708      -26.701       -9.904       16.815       10.144        8.851      282.743      102.908       78.334        0.164        0.023       52.075        4.755        0.008      328.835       -4.812      868.247
11/18/2014  04:46:00      -76.315      -17.378      -13.067       10.593        9.038        6.223      112.221       81.682       38.720        0.326        0.012       78.268        2.592        0.001      328.858       -4.775      868.264
11/18/2014  04:47:00      -84.549      -27.958      -10.023       14.940       13.213       12.192      223.203      174.578      148.653        0.429        0.027       89.051        7.610        0.007      328.872       -4.750      868.266
11/18/2014  04:48:00      -57.995      -19.726       -8.947       13.545       10.249        6.590      183.476      105.045       43.429        0.208        0.017       61.258        7.207        0.014      328.877       -4.744      868.264
11/18/2014  04:49:00      -45.560      -19.584      -13.739        7.908        8.770        5.872       62.535       76.920       34.486        0.141        0.009       49.591        4.401        0.008      328.983       -4.570      868.256
11/18/2014  04:50:00      -44.594      -13.505       -3.551       14.610       10.920        8.124      213.439      119.250       66.006        0.129        0.020       46.594        6.466        0.019      329.011       -4.524      868.250
11/18/2014  04:51:00       -3.892       -9.251       -6.914       13.626       11.236        9.474      185.674      126.254       89.759        0.028        0.020       10.036        7.845        0.611      328.946       -4.630      868.251
11/18/2014  04:52:00      -22.877      -20.026       -1.212       14.531       13.006        9.113      211.145      169.164       83.043        0.069        0.023       30.404        8.360        0.076      329.002       -4.539      868.256
11/18/2014  04:53:00      -50.023      -19.076       -3.993       18.466       13.587       11.296      340.986      184.606      127.601        0.177        0.033       53.537        8.309        0.024      328.995       -4.551      868.260
11/18/2014  04:54:00      -38.352      -15.632       -4.589       11.385        7.602        6.011      129.612       57.785       36.129        0.098        0.011       41.415        5.441        0.017      328.924       -4.667      868.264
11/18/2014  04:55:00      -53.897       -3.730      -11.932        6.949        9.811        6.222       48.290       96.264       38.712        0.162        0.009       54.026        2.984        0.003      328.887       -4.726      868.263
11/18/2014  04:56:00      -43.202       -4.472       -8.513       14.424       22.602        8.845      208.066      510.857       78.235        0.138        0.040       43.432        6.521        0.023      329.000       -4.544      868.264
11/18/2014  04:57:00      -54.342      -13.149       -9.583        9.215        8.650        6.619       84.909       74.828       43.805        0.171        0.010       55.910        4.418        0.006      328.990       -4.561      868.262
11/18/2014  04:58:00      -56.961      -12.641       -6.757        6.929        8.079        5.978       48.009       65.274       35.738        0.180        0.007       58.347        1.825        0.001      329.010       -4.527      868.262
11/18/2014  04:59:00      -32.217      -16.792       -6.898       12.497        9.332        6.877      156.178       87.084       47.294        0.083        0.015       36.331        4.526        0.016      328.947       -4.629      868.255
11/18/2014  05:00:00      -39.662      -18.183       -9.844       12.403       14.927        8.337      153.847      222.804       69.512        0.122        0.022       43.632        5.661        0.017      328.932       -4.653      868.253
11/18/2014  05:01:00      -30.347      -18.243        1.202       33.395       13.991       15.639     1115.237      195.750      244.574        0.141        0.078       35.408       17.209        0.236      328.800       -4.868      868.254
11/18/2014  05:02:00      -95.452      -23.591      -13.556       14.442       12.433        9.307      208.576      154.589       86.629        0.515        0.022       98.325        8.590        0.008      328.598       -5.198      868.248
11/18/2014  05:03:00     -107.820      -26.566      -20.533       12.333       11.900       10.340      152.110      141.618      106.917        0.658        0.020      111.045        4.682        0.002      328.593       -5.207      868.246
11/18/2014  05:04:00      -92.692      -16.933      -13.554       17.843       15.601       11.087      318.362      243.401      122.931        0.487        0.034       94.226        4.817        0.003      328.511       -5.340      868.238
11/18/2014  05:05:00      -93.943        3.779      -10.078       28.271       18.522       14.866      799.272      343.082      220.996        0.515        0.068       94.019       16.705        0.032      328.650       -5.112      868.238
11/18/2014  05:06:00      -74.486        1.631      -10.503       20.297       11.981       10.290      411.949      143.539      105.889        0.316        0.033       74.504        5.166        0.005      328.677       -5.069      868.236
11/18/2014  05:07:00      -35.826       -1.598       -4.749       10.714        8.044        7.533      114.785       64.700       56.740        0.077        0.012       35.862        3.312        0.009      328.726       -4.988      868.239
11/18/2014  05:08:00      -19.086       -4.691       -6.281       10.596        8.537        6.242      112.268       72.888       38.963        0.032        0.011       19.654        3.626        0.034      328.763       -4.930      868.242
11/18/2014  05:09:00      -33.932      -11.336      -11.961        8.223        8.193        5.575       67.624       67.128       31.078        0.079        0.008       35.775        3.473        0.009      328.849       -4.788      868.242
11/18/2014  05:10:00      -36.478      -20.715       -8.764       14.454       10.216       10.609      208.920      104.366      112.552        0.113        0.021       41.949        6.396        0.023      328.791       -4.885      868.243
11/18/2014  05:11:00      -55.086      -25.702       -2.489       31.239       24.150       16.300      975.849      583.234      265.675        0.276        0.091       60.787       18.087        0.089      328.647       -5.118      868.246
11/18/2014  05:12:00      -75.633      -47.091       -8.046       21.869       22.987       16.667      478.265      528.396      277.784        0.464        0.064       89.095       14.444        0.026      328.550       -5.276      868.255
11/18/2014  05:13:00      -84.549      -46.305       -1.512       18.816       19.006       12.038      354.024      361.212      144.922        0.508        0.043       96.399       10.316        0.011      328.611       -5.177      868.274
11/18/2014  05:14:00      -93.966      -45.180       -2.558       23.597       28.555       11.206      556.795      815.394      125.567        0.619        0.075      104.263        9.136        0.008      328.624       -5.156      868.289
11/18/2014  05:15:00      -67.294      -44.066        4.277       46.902       28.875       21.219     2199.829      833.761      450.239        0.499        0.174       80.438       21.310        0.070      328.675       -5.073      868.305
11/18/2014  05:16:00      -65.573      -41.537        5.450       36.593       25.126       19.833     1339.077      631.329      393.335        0.421        0.118       77.622       21.481        0.077      328.711       -5.014      868.328
11/18/2014  05:17:00      -48.477      -54.279        2.064       42.302       30.941       23.564     1789.479      957.365      555.250        0.430        0.165       72.775       25.398        0.122      328.762       -4.931      868.357
11/18/2014  05:18:00      -51.000      -43.882       -0.518       35.707       23.539       18.771     1274.977      554.098      352.338        0.335        0.109       67.280       19.961        0.088      328.731       -4.981      868.360
11/18/2014  05:19:00      -55.247      -33.748        0.994       20.612       25.216       11.619      424.840      635.850      134.992        0.269        0.060       64.739        7.666        0.014      328.813       -4.847      868.356
11/18/2014  05:20:00      -34.347      -16.078       -0.524       23.256        9.861        7.409      540.845       97.233       54.897        0.107        0.035       37.924        9.528        0.063      328.801       -4.868      868.355
11/18/2014  05:21:00       -8.937        0.552       -0.619        7.896        7.261        4.731       62.349       52.716       22.386        0.011        0.007        8.954        6.146        0.471      328.936       -4.648      868.344
11/18/2014  05:22:00       22.901        6.374        0.359       13.604       10.633       12.247      185.063      113.051      149.983        0.051        0.022       23.772        4.499        0.036      328.954       -4.618      868.334
11/18/2014  05:23:00       24.459       28.018        3.474       12.390       11.150       20.364      153.500      124.315      414.713        0.104        0.035       37.192       12.283        0.109      328.979       -4.577      868.336
11/18/2014  05:24:00       42.612       24.704       10.483       12.583        7.459        9.705      158.324       55.630       94.189        0.142        0.015       49.255        8.675        0.031      328.959       -4.611      868.349
11/18/2014  05:25:00       31.590       20.448       -1.211       12.975       10.779        6.072      168.345      116.182       36.869        0.087        0.016       37.631        4.621        0.015      328.922       -4.669      868.353
11/18/2014  05:26:00       13.599       22.658       -0.120       11.066        7.229        4.854      122.452       52.258       23.562        0.045        0.010       26.425        4.298        0.026      328.993       -4.553      868.360
11/18/2014  05:27:00      -17.471       11.423        1.404       11.864        6.656        4.759      140.743       44.302       22.644        0.032        0.010       20.874        6.631        0.101      328.963       -4.603      868.375
11/18/2014  05:28:00      -49.346       -5.278       -6.378        8.668        8.504        7.121       75.138       72.320       50.703        0.135        0.010       49.628        5.116        0.011      328.636       -5.136      868.372
11/18/2014  05:29:00      -51.223       -6.901      -13.269        4.589        6.123        5.332       21.061       37.492       28.426        0.147        0.004       51.686        2.690        0.003      328.681       -5.063      868.380
11/18/2014  05:30:00      -56.532       -6.916      -13.876       11.339        8.813        7.775      128.581       77.661       60.448        0.185        0.013       56.954        5.657        0.010      328.703       -5.029      868.388
11/18/2014  05:31:00      -71.153       -4.161       -8.977       13.531       11.956        7.955      183.081      142.943       63.276        0.277        0.019       71.275        4.912        0.005      328.513       -5.337      868.384
11/18/2014  05:32:00      -58.864        1.556       -7.749       20.091       11.987       14.548      403.636      143.692      211.658        0.214        0.038       58.885       13.068        0.049      328.387       -5.543      868.385
11/18/2014  05:33:00      -56.194      -18.557       -9.283       19.128       15.682       12.294      365.898      245.914      151.137        0.218        0.038       59.178        4.445        0.006      328.437       -5.461      868.380
11/18/2014  05:34:00      -40.793      -17.504       -8.387       18.549       20.572       13.237      344.054      423.193      175.206        0.149        0.047       44.390       11.681        0.069      328.427       -5.478      868.366
11/18/2014  05:35:00      -65.097      -20.955       -9.828       36.843       20.454       13.521     1357.433      418.382      182.829        0.337        0.098       68.387       12.943        0.036      328.454       -5.434      868.360
11/18/2014  05:36:00      -76.305      -21.718       -8.603       26.568       23.202       17.396      705.864      538.329      302.619        0.396        0.077       79.335       11.314        0.020      328.436       -5.463      868.359
11/18/2014  05:37:00      -86.534       -4.377       -0.665       27.293       26.205       15.529      744.894      686.682      241.143        0.459        0.084       86.645       13.260        0.023      328.530       -5.309      868.349
11/18/2014  05:38:00      -87.177        1.909       -9.268       34.724       19.589       17.347     1205.733      383.743      300.931        0.479        0.095       87.198       17.769        0.042      328.477       -5.395      868.359
11/18/2014  05:39:00      -80.469       -0.621       -8.621       35.367       22.438       19.581     1250.825      503.450      383.399        0.434        0.107       80.472       18.454        0.053      328.438       -5.460      868.372
11/18/2014  05:40:00      -55.543        7.069       -4.400       26.676       26.691       17.967      711.619      712.387      322.812        0.245        0.087       55.991       15.127        0.073      328.433       -5.467      868.378
11/18/2014  05:41:00      -63.215        3.289       -5.862       22.945       24.222       18.140      526.451      586.694      329.046        0.274        0.072       63.301       12.410        0.038      328.465       -5.415      868.384
11/18/2014  05:42:00      -67.025       10.919      -10.511       35.616       31.120       16.856     1268.481      968.468      284.116        0.362        0.126       67.908        7.755        0.013      328.533       -5.305      868.387
11/18/2014  05:43:00      -64.892       11.888      -17.923       26.994       29.742       14.927      728.701      884.604      222.823        0.325        0.092       65.972        9.549        0.021      328.586       -5.217      868.367
11/18/2014  05:44:00      -32.886       10.461      -11.934       13.829       16.384        9.260      191.249      268.441       85.750        0.094        0.027       34.510        5.003        0.021      328.733       -4.976      868.350
11/18/2014  05:45:00       10.482       27.795       -2.575       16.760       11.673        9.469      280.882      136.252       89.660        0.070        0.025       29.706        7.236        0.059      328.891       -4.719      868.321
11/18/2014  05:46:00       39.877       34.873       -0.806       10.504       12.971        7.450      110.325      168.257       55.496        0.157        0.017       52.974        6.142        0.013      329.044       -4.471      868.291
11/18/2014  05:47:00       40.328       34.367        2.344        9.669        9.460        8.826       93.481       89.484       77.890        0.154        0.013       52.986        7.091        0.018      329.017       -4.515      868.276
11/18/2014  05:48:00       47.370       33.925        4.872       12.597       11.609       13.614      158.689      134.774      185.329        0.195        0.024       58.265        8.322        0.020      329.158       -4.283      868.261
11/18/2014  05:49:00       28.834       23.077       -0.954       14.190       10.980        7.298      201.354      120.569       53.265        0.087        0.019       36.932        7.513        0.041      329.120       -4.347      868.272
11/18/2014  05:50:00       23.546       22.782       -2.505       10.292       10.825       10.677      105.930      117.183      114.000        0.071        0.017       32.763        7.375        0.051      329.167       -4.270      868.269
11/18/2014  05:51:00       30.030       20.575       -2.661       11.573        9.166        7.114      133.944       84.017       50.605        0.080        0.013       36.403        6.648        0.033      329.233       -4.165      868.283
11/18/2014  05:52:00       28.664       15.602       -3.737        8.880        8.948        6.586       78.857       80.074       43.376        0.064        0.010       32.635        2.911        0.008      329.238       -4.154      868.307
11/18/2014  05:53:00        7.460        0.378        3.256       13.813        8.950        7.633      190.811       80.095       58.263        0.020        0.016        7.470        6.734        0.813      329.204       -4.209      868.325
11/18/2014  05:54:00      -38.110        2.683       -3.829       22.692        9.648        8.698      514.907       93.089       75.648        0.108        0.034       38.204       11.548        0.091      329.084       -4.406      868.347
11/18/2014  05:55:00     -107.144        2.545      -11.339       22.894       19.580       15.775      524.157      383.365      248.839        0.639        0.058      107.174       13.576        0.016      328.672       -5.078      868.370
11/18/2014  05:56:00     -118.464        2.328      -11.143       19.379       11.948       12.737      375.533      142.751      162.229        0.742        0.034      118.487       10.563        0.008      328.624       -5.156      868.367
11/18/2014  05:57:00      -82.329        5.626      -14.737       24.441       13.575       10.069      597.345      184.279      101.381        0.395        0.044       82.521        7.116        0.007      328.693       -5.043      868.362
11/18/2014  05:58:00      -77.936       -4.933      -12.313       15.665       12.640       10.461      245.392      159.759      109.439        0.338        0.026       78.092       10.007        0.016      328.793       -4.880      868.378
11/18/2014  05:59:00      -53.127      -24.758      -11.370       11.872       12.487        8.306      140.948      155.928       68.984        0.197        0.018       58.613        3.138        0.003      328.722       -4.997      868.402
11/18/2014  06:00:00      -52.905      -31.363       -3.083       15.427       15.154       12.572      237.981      229.657      158.065        0.221        0.031       61.502        7.845        0.016      328.670       -5.081      868.429
11/18/2014  06:01:00      -65.516      -38.981       -5.248       20.591       28.686       13.592      424.003      822.913      184.750        0.364        0.072       76.235        9.590        0.016      328.657       -5.100      868.449
11/18/2014  06:02:00      -56.690      -31.659       -3.848       14.972       20.641        9.579      224.162      426.067       91.751        0.249        0.037       64.931        6.268        0.009      328.622       -5.157      868.466
11/18/2014  06:03:00      -61.489      -34.456       -1.240       22.956       15.745       11.786      526.990      247.908      138.907        0.294        0.046       70.485       11.842        0.028      328.663       -5.092      868.468
11/18/2014  06:04:00      -68.739      -27.302       -2.658       17.157       18.007       10.014      294.360      324.265      100.271        0.310        0.036       73.962        6.657        0.008      328.640       -5.131      868.478
11/18/2014  06:05:00     -100.620      -14.222      -13.600       14.462       15.748       11.671      209.148      247.994      136.214        0.555        0.030      101.620        9.170        0.008      328.619       -5.164      868.504
11/18/2014  06:06:00     -124.706      -35.209      -10.047       17.436       18.510       10.643      304.023      342.636      113.283        0.883        0.038      129.581        7.069        0.003      328.594       -5.205      868.521
11/18/2014  06:07:00      -92.859      -42.627       -7.819       26.116       29.402       16.892      682.068      864.458      285.326        0.617        0.092      102.176       10.628        0.011      328.641       -5.129      868.539
11/18/2014  06:08:00      -91.469      -31.077        1.959       29.810       28.353       18.359      888.643      803.893      337.047        0.568        0.101       96.604       17.697        0.034      328.611       -5.177      868.563
11/18/2014  06:09:00      -71.718      -26.323        2.924       26.881       22.829       15.920      722.615      521.145      253.456        0.367        0.075       76.396       12.692        0.028      328.758       -4.938      868.584
11/18/2014  06:10:00      -44.151      -25.200       -3.379       23.204       13.999       12.663      538.421      195.976      160.345        0.175        0.045       50.836       12.005        0.056      328.797       -4.874      868.578
11/18/2014  06:11:00      -26.401      -37.005       -8.670       23.743       13.096       13.143      563.725      171.497      172.737        0.152        0.045       45.457        9.789        0.046      328.907       -4.694      868.559
11/18/2014  06:12:00      -26.535      -12.425        3.025       18.448       20.141       10.387      340.346      405.657      107.885        0.086        0.043       29.299        9.509        0.105      328.905       -4.699      868.549
11/18/2014  06:13:00      -38.234      -13.743       -1.506       14.600       15.769       12.737      213.157      248.673      162.227        0.114        0.031       40.629        6.844        0.028      328.876       -4.745      868.529
11/18/2014  06:14:00      -23.976       -0.961        2.362       14.246       13.714        7.242      202.939      188.084       52.443        0.051        0.022       23.996        3.699        0.024      328.906       -4.695      868.502
11/18/2014  06:15:00        6.254       18.388        8.651       12.157       10.931        9.653      147.794      119.482       93.178        0.041        0.018       19.423        7.044        0.132      328.867       -4.760      868.476
11/18/2014  06:16:00       -6.284       -6.737       10.014        7.709       10.419       10.945       59.436      108.566      119.799        0.024        0.014        9.213        7.818        0.720      328.905       -4.698      868.479
11/18/2014  06:17:00       -7.683        2.101        0.947        5.816        3.841        6.240       33.827       14.756       38.936        0.008        0.004        7.965        1.971        0.061      328.915       -4.682      868.498
11/18/2014  06:18:00      -38.610        0.992       -7.675       22.530       11.947        6.958      507.591      142.724       48.407        0.112        0.035       38.623        5.168        0.018      328.929       -4.660      868.522
11/18/2014  06:19:00      -88.848      -18.862       -6.557       32.183       19.288       13.603     1035.723      372.022      185.052        0.494        0.080       90.828       15.284        0.028      328.722       -4.996      868.534
11/18/2014  06:20:00     -110.068      -14.111       -9.102       21.669       12.678       13.253      469.566      160.728      175.643        0.660        0.040      110.969       11.786        0.011      328.634       -5.139      868.550
11/18/2014  06:21:00      -99.995      -20.875       -7.305       19.940       15.881       10.404      397.613      252.207      108.238        0.562        0.038      102.151       10.157        0.010      328.638       -5.133      868.560
11/18/2014  06:22:00      -88.444      -14.560       -7.455       18.627       14.095       11.780      346.981      198.665      138.778        0.439        0.034       89.635       12.322        0.019      328.639       -5.131      868.571
11/18/2014  06:23:00     -104.276      -13.795      -13.998       18.730       13.339       12.340      350.795      177.916      152.288        0.597        0.034      105.185        8.779        0.007      328.579       -5.229      868.570
11/18/2014  06:24:00      -80.191       -8.913      -13.075       15.350       10.525       10.224      235.613      110.782      104.532        0.357        0.023       80.685        4.528        0.003      328.610       -5.179      868.567
11/18/2014  06:25:00      -64.057       -9.426      -13.035       10.579        8.423        8.185      111.917       70.955       67.001        0.231        0.012       64.747        4.904        0.006      328.688       -5.052      868.570
11/18/2014  06:26:00      -64.483      -16.956       -5.721       14.669       12.781        8.259      215.188      163.346       68.209        0.246        0.022       66.675        5.675        0.007      328.699       -5.033      868.557
11/18/2014  06:27:00      -67.785       -8.791      -13.088        9.046        9.153        7.382       81.827       83.769       54.492        0.253        0.011       68.353        4.684        0.005      328.671       -5.079      868.551
11/18/2014  06:28:00      -73.634      -16.415      -11.913       12.302        8.248        7.460      151.344       68.035       55.657        0.305        0.014       75.442        4.660        0.004      328.646       -5.118      868.565
11/18/2014  06:29:00      -44.996       -3.534       -8.010        8.378        7.240        5.756       70.195       52.420       33.129        0.113        0.008       45.134        3.077        0.005      328.711       -5.015      868.572
11/18/2014  06:30:00      -56.219      -20.073       -8.004       15.358       12.608        5.915      235.872      158.964       34.993        0.203        0.021       59.695        3.081        0.003      328.718       -5.004      868.580
11/18/2014  06:31:00      -75.177      -16.164      -10.748       17.505       14.372       10.016      306.425      206.557      100.317        0.332        0.031       76.895        7.799        0.010      328.676       -5.071      868.584
11/18/2014  06:32:00      -69.356      -33.404      -10.199       14.478       15.393       12.193      209.599      236.953      148.662        0.331        0.030       76.981        7.360        0.009      328.577       -5.233      868.597
11/18/2014  06:33:00      -89.505       -6.990      -10.333       14.214       10.389        9.244      202.044      107.940       85.459        0.428        0.020       89.777        5.603        0.004      328.568       -5.249      868.616
11/18/2014  06:34:00      -36.502       -8.611       -8.175       10.195        8.821        7.058      103.947       77.808       49.810        0.085        0.012       37.504        3.233        0.007      328.590       -5.212      868.623
11/18/2014  06:35:00       -7.225       -0.145       -2.046        6.352        4.768        4.664       40.349       22.731       21.753        0.007        0.004        7.227        4.240        0.344      328.659       -5.098      868.619
11/18/2014  06:36:00        6.752        6.405       -3.870        7.625        4.730        4.578       58.134       22.375       20.954        0.010        0.005        9.306        2.112        0.052      328.854       -4.779      868.616
11/18/2014  06:37:00      -13.769       -7.681       -7.291       20.500       11.309        6.245      420.262      127.902       38.997        0.044        0.029       15.766        5.975        0.144      328.917       -4.675      868.614
11/18/2014  06:38:00      -73.806      -22.155      -13.213        9.235       11.529        9.546       85.294      132.921       91.121        0.321        0.015       77.059        3.912        0.003      328.597       -5.200      868.626
11/18/2014  06:39:00     -103.354      -17.239      -14.281       18.501       20.217       15.033      342.282      408.727      225.983        0.608        0.049      104.782        9.085        0.008      328.556       -5.268      868.639
11/18/2014  06:40:00      -90.395      -14.365       -8.968       18.680       18.493       15.150      348.937      341.977      229.508        0.469        0.046       91.529        9.973        0.012      328.507       -5.348      868.651
11/18/2014  06:41:00     -100.959       -6.339       -8.838       19.488       19.686       13.622      379.795      387.543      185.570        0.563        0.048      101.158        6.632        0.004      328.523       -5.320      868.660
11/18/2014  06:42:00      -78.688      -22.491       -7.681       18.388       17.004        9.879      338.119      289.131       97.598        0.374        0.036       81.839       10.031        0.015      328.617       -5.168      868.669
11/18/2014  06:43:00      -87.236      -21.133      -10.378       14.532       13.337       11.855      211.188      177.883      140.543        0.435        0.026       89.759        7.348        0.007      328.597       -5.198      868.673
11/18/2014  06:44:00      -79.745      -12.153       -7.008       25.561       12.945       11.563      653.351      167.575      133.711        0.376        0.048       80.665       11.366        0.020      328.596       -5.201      868.673
11/18/2014  06:45:00      -56.416       -8.489       -7.014       17.893        8.513        6.776      320.145       72.471       45.918        0.187        0.022       57.052        4.741        0.007      328.679       -5.066      868.674
11/18/2014  06:46:00      -58.941       -3.621       -8.494       10.977        7.630        7.267      120.498       58.220       52.807        0.190        0.012       59.052        2.867        0.002      328.815       -4.843      868.686
11/18/2014  06:47:00      -63.638      -13.364      -12.377        8.741        7.280        7.517       76.397       52.991       56.498        0.228        0.009       65.026        5.981        0.008      328.966       -4.598      868.689
11/18/2014  06:48:00      -79.605      -22.957      -15.472       12.315        8.593        7.343      151.656       73.831       53.918        0.369        0.014       82.849        4.295        0.003      328.886       -4.728      868.700
11/18/2014  06:49:00      -90.472      -22.356       -9.532       15.932       16.408       10.870      253.817      269.219      118.159        0.471        0.032       93.193        8.650        0.009      328.728       -4.985      868.711
11/18/2014  06:50:00      -67.414       -7.999       -5.481       24.140       26.501       18.341      582.739      702.320      336.406        0.313        0.081       67.887       14.730        0.047      328.632       -5.144      868.732
11/18/2014  06:51:00      -40.280      -31.639        0.343       23.103       15.103       13.989      533.737      228.113      195.682        0.179        0.048       51.220       12.052        0.055      328.652       -5.110      868.730
11/18/2014  06:52:00      -75.462       -9.354       -3.711       17.297       11.886       10.923      299.170      141.271      119.307        0.318        0.028       76.039        6.959        0.008      328.628       -5.148      868.726
11/18/2014  06:53:00      -66.615      -21.208      -12.494       13.330       12.502       11.495      177.681      156.303      132.133        0.275        0.023       69.909        9.465        0.018      328.743       -4.962      868.736
11/18/2014  06:54:00      -60.915      -13.023       -7.290       14.054       16.493       10.070      197.516      272.019      101.405        0.225        0.029       62.292        8.296        0.018      328.812       -4.848      868.756
11/18/2014  06:55:00      -48.104      -12.550       -5.677       10.428       10.520        8.799      108.746      110.677       77.420        0.140        0.015       49.715        6.958        0.020      328.794       -4.879      868.779
11/18/2014  06:56:00      -42.409      -31.290       -5.796       13.834       10.771        7.219      191.376      116.014       52.110        0.159        0.018       52.703        2.118        0.002      328.848       -4.790      868.798
11/18/2014  06:57:00      -26.343      -12.548       -0.359       16.040        9.028       11.126      257.291       81.507      123.788        0.066        0.023       29.179       12.051        0.171      328.863       -4.766      868.809
11/18/2014  06:58:00      -59.313      -25.520       -8.319        8.895       12.412        7.864       79.113      154.070       61.844        0.227        0.015       64.570        3.356        0.003      328.956       -4.615      868.810
11/18/2014  06:59:00      -67.231       -3.507       -9.192       11.694        8.444        6.670      136.755       71.298       44.485        0.243        0.013       67.323        3.780        0.003      328.918       -4.676      868.816
11/18/2014  07:00:00      -74.915       -4.415      -13.183        5.781        5.994        6.513       33.419       35.929       42.416        0.296        0.006       75.045        1.719        0.001      328.910       -4.689      868.816
11/18/2014  07:01:00      -50.198       -7.578       -6.560       14.888        6.741        5.821      221.658       45.444       33.881        0.146        0.015       50.767        7.087        0.019      328.923       -4.667      868.817
11/18/2014  07:02:00      -12.068       -3.895       -2.990        7.137        4.989        5.396       50.939       24.887       29.116        0.014        0.005       12.681        3.368        0.071      328.981       -4.574      868.817
11/18/2014  07:03:00      -22.295        2.855       -3.018        9.317        6.061        3.920       86.807       36.738       15.363        0.033        0.007       22.477        3.250        0.021      329.054       -4.454      868.808
11/18/2014  07:04:00      -37.099       -2.618       -4.757       10.581        5.160        7.746      111.960       26.630       60.003        0.080        0.010       37.191        5.171        0.019      329.020       -4.508      868.807
11/18/2014  07:05:00      -41.352       -5.847       -6.866       10.334        8.799        9.151      106.790       77.422       83.743        0.103        0.013       41.763        4.883        0.014      329.065       -4.436      868.810
11/18/2014  07:06:00      -27.580      -13.105       -2.874       18.591        9.812        7.343      345.638       96.283       53.920        0.072        0.025       30.535        6.900        0.051      329.086       -4.401      868.814
11/18/2014  07:07:00        0.295        1.345       -1.594        8.772        5.488        3.421       76.956       30.115       11.704        0.006        0.006        1.377        4.098        8.860      329.049       -4.467      868.828
11/18/2014  07:08:00       27.108       16.605        0.901       16.308       12.401        6.017      265.963      153.773       36.208        0.073        0.023       31.789        4.357        0.019      329.070       -4.427      868.838
11/18/2014  07:09:00       41.018       33.432        6.622       11.765        9.492        9.362      138.406       90.099       87.647        0.158        0.016       52.916        7.570        0.020      329.009       -4.527      868.847
11/18/2014  07:10:00       56.061       48.503        5.466       23.052       12.655       10.983      531.390      160.158      120.621        0.317        0.041       74.131        8.770        0.014      328.966       -4.595      868.852
11/18/2014  07:11:00       65.049       65.992       -2.856       22.585       14.511       15.638      510.086      210.577      244.550        0.478        0.048       92.663        5.887        0.004      328.955       -4.615      868.850
11/18/2014  07:12:00      105.637       68.387        1.189       26.476       19.580       15.776      700.978      383.386      248.868        0.859        0.067      125.841       11.242        0.008      328.933       -4.651      868.865
11/18/2014  07:13:00       99.307       58.847        0.119       23.749       20.934       23.432      564.022      438.241      549.061        0.744        0.078      115.434       15.278        0.018      328.913       -4.684      868.879
11/18/2014  07:14:00       63.084       28.615        5.854       20.043       18.657       14.934      401.713      348.097      223.025        0.290        0.049       69.270        9.608        0.019      328.964       -4.602      868.895
11/18/2014  07:15:00       58.288       44.741        6.344        9.989       12.498       10.204       99.787      156.196      104.119        0.290        0.018       73.479        4.757        0.004      328.956       -4.616      868.904
11/18/2014  07:16:00       60.489       50.881       11.783       13.839       11.046       12.059      191.519      122.013      145.410        0.342        0.023       79.043        8.077        0.010      329.003       -4.538      868.899
11/18/2014  07:17:00       67.414       52.035        3.940       12.855       11.528       13.469      165.250      132.886      181.420        0.387        0.024       85.160        3.662        0.002      328.980       -4.577      868.887
11/18/2014  07:18:00       67.344       32.432       10.950       11.929       13.612       14.956      142.290      185.291      223.681        0.313        0.028       74.746       10.444        0.020      329.018       -4.513      868.880
11/18/2014  07:19:00       82.781       48.630        1.978       14.282       11.781       12.055      203.976      138.784      145.321        0.485        0.024       96.008        8.829        0.008      329.063       -4.439      868.884
11/18/2014  07:20:00       66.992       37.363       12.015       12.123        9.673       12.550      146.966       93.573      157.507        0.321        0.020       76.707        6.054        0.006      329.083       -4.408      868.910
11/18/2014  07:21:00       48.781       29.816       13.884       13.502       11.662       17.265      182.311      136.011      298.068        0.204        0.031       57.171        7.102        0.015      329.140       -4.314      868.935
11/18/2014  07:22:00       23.589       23.216       10.552       12.296        6.837        9.608      151.183       46.742       92.306        0.075        0.015       33.097        7.821        0.056      329.129       -4.331      868.955
11/18/2014  07:23:00       15.321       16.493        5.024        8.169        5.002        6.538       66.728       25.016       42.752        0.033        0.007       22.511        6.082        0.073      329.136       -4.319      868.971
11/18/2014  07:24:00        0.014        5.223       -0.200        6.932        5.549        3.120       48.051       30.788        9.735        0.006        0.004        5.223        1.927        0.136      329.216       -4.189      868.980
11/18/2014  07:25:00      -13.413       -2.418       -3.067       13.968        4.994        4.084      195.113       24.944       16.683        0.022        0.012       13.629        2.939        0.046      329.259       -4.120      868.984
11/18/2014  07:26:00        1.813        6.056       -1.258        5.218        8.801        4.242       27.225       77.454       17.996        0.008        0.006        6.322        3.098        0.240      329.251       -4.133      868.963
11/18/2014  07:27:00       27.249       20.014        6.014       15.705        8.732        9.515      246.632       76.254       90.530        0.080        0.021       33.809        7.288        0.046      329.256       -4.125      868.943
11/18/2014  07:28:00        2.742       18.603       -5.238       14.961       14.790        4.104      223.833      218.739       16.845        0.042        0.023       18.804        6.587        0.123      329.216       -4.191      868.940
11/18/2014  07:29:00      -35.626       -6.900       -2.680       13.052       12.600        5.416      170.342      158.764       29.336        0.084        0.018       36.288        2.845        0.006      329.245       -4.142      868.946
11/18/2014  07:30:00      -49.789       -9.524       -4.103       22.106       17.938       10.111      488.668      321.761      102.228        0.175        0.046       50.692       10.113        0.040      329.248       -4.137      868.950
11/18/2014  07:31:00      -33.673      -23.318       -2.223       12.800        9.754       10.853      163.829       95.138      117.780        0.103        0.019       40.959        8.892        0.047      329.265       -4.109      868.964
11/18/2014  07:32:00      -19.571       -7.169        0.957       16.489       11.095       10.470      271.881      123.107      109.613        0.047        0.025       20.843       12.779        0.376      329.333       -3.997      868.959
11/18/2014  07:33:00       14.401       19.798       12.515       17.193       15.787        8.192      295.590      249.243       67.105        0.068        0.031       24.481        4.294        0.031      329.392       -3.902      868.963
11/18/2014  07:34:00       10.097       14.972       19.795        9.522       16.383        9.411       90.663      268.408       88.569        0.058        0.022       18.059       10.154        0.316      329.502       -3.721      868.990
11/18/2014  07:35:00       -4.999       -4.594        3.501       22.893       12.029        9.646      524.105      144.700       93.047        0.041        0.038        6.789       11.472        2.855      329.503       -3.720      869.008
11/18/2014  07:36:00       -4.900       23.651        6.575       19.082       15.710        9.240      364.120      246.795       85.373        0.066        0.035       24.153       11.065        0.210      329.432       -3.837      869.009
11/18/2014  07:37:00       31.692       56.581       14.532       17.734       13.797       19.176      314.478      190.347      367.718        0.264        0.044       64.852        4.060        0.004      329.459       -3.793      868.970
11/18/2014  07:38:00       37.046       41.325       31.933       25.026       26.130       25.558      626.309      682.762      653.194        0.303        0.098       55.499       16.564        0.089      329.514       -3.704      868.942
11/18/2014  07:39:00       44.968       39.121       22.356       20.858       20.738       22.094      435.038      430.071      488.149        0.270        0.068       59.604       10.086        0.029      329.497       -3.731      868.935
11/18/2014  07:40:00       34.132       34.021        7.120       20.673       18.244       16.588      427.391      332.859      275.159        0.170        0.052       48.191        9.986        0.043      329.485       -3.748      868.935
11/18/2014  07:41:00       11.630       25.512        8.499       13.077       19.200        9.753      170.998      368.621       95.112        0.075        0.032       28.038        5.934        0.045      329.498       -3.728      868.943
11/18/2014  07:42:00       36.324       28.118        6.190       15.943       10.025       11.586      254.189      100.495      134.240        0.132        0.024       45.935        5.561        0.015      329.449       -3.808      868.931
11/18/2014  07:43:00        8.006       20.660       13.681       15.954       19.354        8.059      254.545      374.575       64.945        0.069        0.035       22.157        5.939        0.072      329.579       -3.595      868.944
11/18/2014  07:44:00       -4.947        1.125       20.135        6.428        8.556        5.301       41.317       73.204       28.103        0.029        0.007        5.073        4.461        0.773      329.799       -3.236      868.954
11/18/2014  07:45:00        3.788        9.883        5.986       15.783        7.574        8.142      249.092       57.365       66.295        0.026        0.019       10.584        5.095        0.232      329.683       -3.426      868.961
11/18/2014  07:46:00       13.285       14.823        0.672       13.433       17.741        7.829      180.440      314.738       61.291        0.048        0.028       19.905        8.011        0.162      329.752       -3.314      868.948
11/18/2014  07:47:00       26.173       26.134        2.335       22.646       22.854       19.427      512.835      522.328      377.391        0.139        0.071       36.986       10.472        0.080      329.686       -3.421      868.920
11/18/2014  07:48:00       40.357       17.026       -0.400       28.445       17.971       10.214      809.093      322.942      104.320        0.158        0.062       43.801        7.371        0.028      329.663       -3.458      868.889
11/18/2014  07:49:00       59.153       48.101        0.642       17.565       20.211       17.672      308.522      408.497      312.307        0.342        0.051       76.242       15.849        0.043      329.668       -3.449      868.893
11/18/2014  07:50:00       55.515       39.654        8.817       20.506       15.505       17.830      420.505      240.410      317.910        0.286        0.049       68.223        9.243        0.018      329.706       -3.389      868.905
11/18/2014  07:51:00       51.360       29.095        6.350       16.182       17.238       14.283      261.856      297.159      204.009        0.214        0.038       59.029       11.913        0.041      329.780       -3.268      868.910
11/18/2014  07:52:00       48.988       43.608       -0.397       26.256       20.641       23.412      689.357      426.063      548.124        0.298        0.083       65.586       15.282        0.054      329.715       -3.373      868.913
11/18/2014  07:53:00       75.705       46.906       23.234       14.863       13.495       14.443      220.901      182.115      208.588        0.454        0.031       89.059        6.968        0.006      329.675       -3.439      868.910
11/18/2014  07:54:00       55.873       28.988        2.122       23.172       16.902       17.558      536.935      285.668      308.278        0.255        0.057       62.946        7.721        0.015      329.800       -3.234      868.913
11/18/2014  07:55:00       54.776       44.655       18.516       16.046       14.940       15.322      257.483      223.198      234.777        0.303        0.036       70.672        9.487        0.018      329.774       -3.278      868.937
11/18/2014  07:56:00       36.586       23.959        5.878       27.884       22.755       18.212      777.524      517.795      331.680        0.179        0.081       43.733       12.373        0.080      329.906       -3.061      868.954
11/18/2014  07:57:00       53.624       39.473        4.995       30.420       15.280       15.387      925.383      233.478      236.762        0.293        0.070       66.586        9.396        0.020      329.821       -3.201      868.959
11/18/2014  07:58:00       75.020       34.818       -3.524       30.972       33.863       19.587      959.236     1146.703      383.645        0.467        0.124       82.706       16.691        0.041      329.849       -3.153      868.946
11/18/2014  07:59:00       66.335       29.465       21.997       42.339       33.612       29.399     1792.584     1129.747      864.326        0.477        0.189       72.585       19.227        0.070      329.887       -3.092      868.940
11/18/2014  08:00:00       98.134       60.148        8.132       32.994       23.566       24.588     1088.591      555.346      604.550        0.778        0.112      115.100       11.141        0.009      329.823       -3.197      868.937
11/18/2014  08:01:00       75.820       49.703        0.072       36.420       24.010       27.311     1326.413      576.493      745.873        0.543        0.132       90.659       15.916        0.031      329.831       -3.182      868.938
11/18/2014  08:02:00       99.183       71.059        1.815       27.620       24.938       22.951      762.867      621.916      526.768        0.840        0.096      122.011       11.315        0.009      329.777       -3.272      868.938
11/18/2014  08:03:00      101.252       69.699       -0.406       22.942       20.200       18.675      526.338      408.033      348.754        0.820        0.064      122.923       10.409        0.007      329.761       -3.299      868.936
11/18/2014  08:04:00       92.032       56.643       -7.287       25.829       29.074       16.522      667.149      845.297      272.989        0.676        0.089      108.067       14.863        0.019      329.739       -3.336      868.943
11/18/2014  08:05:00       73.230       51.125        2.847       36.404       33.463       27.859     1325.245     1119.796      776.143        0.560        0.161       89.311       18.550        0.043      329.841       -3.167      868.943
11/18/2014  08:06:00       74.188       51.103        7.591       28.721       22.334       25.966      824.911      498.826      674.231        0.509        0.100       90.085       12.507        0.019      329.896       -3.078      868.933
11/18/2014  08:07:00       78.677       53.691       -1.838       23.523       25.152       21.338      553.321      632.607      455.331        0.536        0.082       95.251       16.175        0.029      329.860       -3.136      868.940
11/18/2014  08:08:00       58.603       46.468       16.937       26.453       29.892       39.490      699.744      893.547     1559.494        0.452        0.158       74.790        6.898        0.009      330.014       -2.885      868.938
11/18/2014  08:09:00       58.242       60.758       49.731       44.338       30.988       33.868     1965.852      960.283     1147.059        0.681        0.204       84.165       27.378        0.106      330.002       -2.904      868.938
11/18/2014  08:10:00       73.075       68.208       37.224       40.614       26.514       31.625     1649.533      702.974     1000.115        0.736        0.168       99.961       24.577        0.060      329.927       -3.027      868.938
11/18/2014  08:11:00       49.455       36.735       33.103       44.968       31.553       31.251     2022.133      995.588      976.594        0.444        0.200       61.606       26.232        0.181      330.054       -2.819      868.955
11/18/2014  08:12:00       62.267       45.587       28.466       53.142       38.558       39.146     2824.067     1486.685     1532.401        0.630        0.292       77.171       39.135        0.257      330.078       -2.779      868.960
11/18/2014  08:13:00       98.543       76.473       28.680       32.551       24.318       33.796     1059.595      591.346     1142.191        0.959        0.140      124.735       16.221        0.017      330.051       -2.823      868.947
11/18/2014  08:14:00      128.400       75.735       10.079       29.021       23.505       24.524      842.241      552.484      601.438        1.216        0.100      149.071       13.404        0.008      329.913       -3.050      868.927
11/18/2014  08:15:00      123.430       90.610       16.283       45.612       29.328       36.354     2080.432      860.157     1321.594        1.399        0.213      153.118       34.227        0.050      329.901       -3.070      868.912
11/18/2014  08:16:00      149.784       96.565       34.713       46.815       36.442       42.185     2191.624     1327.983     1779.583        1.913        0.265      178.213       31.347        0.031      329.883       -3.098      868.893
11/18/2014  08:17:00      130.629       75.531       14.185       30.872       27.832       25.918      953.099      774.597      671.753        1.268        0.120      150.894       19.600        0.017      329.759       -3.301      868.883
11/18/2014  08:18:00      114.778       81.585       12.815       32.896       36.655       27.461     1082.115     1343.585      754.131        1.159        0.159      140.819       18.352        0.017      329.801       -3.233      868.883
11/18/2014  08:19:00       75.655       68.850       21.637       22.480       17.914       18.736      505.372      320.927      351.038        0.605        0.059      102.293       14.287        0.020      329.821       -3.200      868.892
11/18/2014  08:20:00       46.945       57.563       56.000       52.076       34.931       25.774     2711.921     1220.189      664.281        0.662        0.230       74.279       17.453        0.055      330.122       -2.706      868.898
11/18/2014  08:21:00       85.809       89.765       48.112       25.552       28.114       21.815      652.914      790.424      475.889        0.983        0.096      124.181        9.805        0.006      329.913       -3.049      868.908
11/18/2014  08:22:00       64.431       37.987       22.683       33.481       36.525       25.526     1121.008     1334.049      651.568        0.461        0.155       74.796       12.359        0.027      330.026       -2.865      868.908
11/18/2014  08:23:00       82.406       69.782       14.644       21.956       26.387       24.462      482.069      696.282      598.370        0.683        0.089      107.983       16.322        0.023      329.951       -2.989      868.904
11/18/2014  08:24:00       75.831       48.927       24.685       28.733       26.776       30.628      825.594      716.939      938.091        0.562        0.124       90.245       15.881        0.031      330.054       -2.820      868.911
11/18/2014  08:25:00       33.312       57.833       67.677       43.123       35.877       23.420     1859.606     1287.179      548.482        0.636        0.185       66.741       19.512        0.085      330.150       -2.661      868.910
11/18/2014  08:26:00       77.036       73.779       33.736       33.487       24.364       33.804     1121.394      593.604     1142.735        0.769        0.143      106.668       23.776        0.050      330.055       -2.818      868.900
11/18/2014  08:27:00       68.261       39.053       12.985       38.012       24.857       25.607     1444.916      617.882      655.732        0.454        0.136       78.643       23.583        0.090      330.151       -2.660      868.905
11/18/2014  08:28:00       37.046       53.540       13.531       34.475       31.280       24.167     1188.522      978.451      584.020        0.359        0.138       65.107       14.459        0.049      330.252       -2.494      868.913
11/18/2014  08:29:00        1.741       23.963       33.472       17.272       26.362       12.764      298.305      694.981      162.915        0.143        0.058       24.026        7.108        0.088      330.521       -2.053      868.916
11/18/2014  08:30:00       50.949       32.748       10.726       36.342       24.262       29.416     1320.707      588.630      865.276        0.328        0.139       60.566       15.340        0.064      330.265       -2.473      868.903
11/18/2014  08:31:00       28.687       56.743       -6.122       22.402       22.198       25.763      501.828      492.768      663.709        0.287        0.083       63.583       20.365        0.103      330.127       -2.698      868.887
11/18/2014  08:32:00       62.897       47.366        5.480       40.838       30.554       21.570     1667.760      933.568      465.253        0.465        0.153       78.738       22.412        0.081      330.253       -2.492      868.872
11/18/2014  08:33:00      101.211       54.211        4.424       24.968       18.793       20.901      623.394      353.195      436.867        0.731        0.071      114.815       10.651        0.009      330.048       -2.829      868.882
11/18/2014  08:34:00       75.952       50.889       -1.749       22.688       24.057       26.266      514.725      578.725      689.920        0.507        0.089       91.424       17.888        0.038      330.226       -2.537      868.906
11/18/2014  08:35:00       50.741       36.228       12.846       26.515       33.879       27.972      703.025     1147.814      782.406        0.334        0.132       62.347       13.976        0.050      330.439       -2.187      868.924
11/18/2014  08:36:00        4.973       28.401       16.710       12.215       41.347       19.679      149.211     1709.588      387.251        0.168        0.112       28.833       26.845        0.867      330.823       -1.557      868.932
11/18/2014  08:37:00        8.238       50.777        5.889       21.163       26.597       23.583      447.889      707.415      556.165        0.220        0.086       51.441       18.368        0.128      330.554       -1.999      868.939
11/18/2014  08:38:00       -5.200       44.370       -5.000       11.010       23.164       15.290      121.220      536.572      233.775        0.146        0.045       44.674       12.158        0.074      330.423       -2.214      868.939
11/18/2014  08:39:00       15.704       41.968       -3.046       21.664       13.718       21.208      469.349      188.174      449.775        0.156        0.055       44.810       15.070        0.113      330.494       -2.096      868.931
11/18/2014  08:40:00       52.899       48.827       -0.180       18.629       20.542       31.570      347.034      421.961      996.689        0.347        0.088       71.988       19.598        0.074      330.550       -2.005      868.911
11/18/2014  08:41:00       49.444       54.699        2.487       20.892       21.160       19.664      436.490      447.736      386.659        0.336        0.064       73.734       14.744        0.040      330.482       -2.116      868.894
11/18/2014  08:42:00       33.535       42.734        9.675       28.643       20.049       21.367      820.395      401.946      456.567        0.236        0.084       54.321       14.446        0.071      330.566       -1.979      868.884
11/18/2014  08:43:00       25.423       56.904       49.894       47.643       31.880       39.813     2269.832     1016.320     1585.109        0.562        0.244       62.325       27.825        0.199      330.696       -1.767      868.882
11/18/2014  08:44:00       79.488       21.305       -7.065       20.023       24.941       17.293      400.930      622.078      299.063        0.407        0.066       82.293        7.509        0.008      330.414       -2.229      868.888
11/18/2014  08:45:00       27.991       68.795      -12.008       26.396       22.790       21.969      696.771      519.404      482.650        0.368        0.085       74.272       12.246        0.027      330.694       -1.768      868.884
11/18/2014  08:46:00        6.561       15.258        6.248       20.180       28.906       18.833      407.236      835.570      354.678        0.096        0.080       16.609       15.390        0.859      330.775       -1.636      868.881
11/18/2014  08:47:00      -15.654        9.732        4.746       12.345       14.527       19.387      152.392      211.035      375.845        0.055        0.037       18.433       10.265        0.310      330.921       -1.397      868.877
11/18/2014  08:48:00       12.114       31.438       26.484       16.830       21.979       27.756      283.256      483.078      770.418        0.169        0.077       33.692       18.594        0.305      330.930       -1.382      868.881
11/18/2014  08:49:00      -12.539       25.783       -1.656       26.358       13.765       20.910      694.737      189.485      437.218        0.107        0.066       28.670       19.339        0.455      330.718       -1.731      868.890
11/18/2014  08:50:00      -31.034       13.088       14.684       13.933       12.591       12.004      194.126      158.521      144.090        0.092        0.025       33.681        7.800        0.054      330.769       -1.646      868.882
11/18/2014  08:51:00       24.534        9.745       19.585       32.215       19.843       21.149     1037.834      393.744      447.300        0.148        0.094       26.399       22.484        0.725      331.318       -0.745      868.871
11/18/2014  08:52:00       34.388       30.188        2.667       28.411       27.533       24.161      807.173      758.050      583.747        0.212        0.107       45.759       10.135        0.049      331.050       -1.185      868.867
11/18/2014  08:53:00       11.745       28.129        9.395       33.689       24.174       19.508     1134.958      584.371      380.557        0.156        0.105       30.482       18.544        0.370      331.371       -0.657      868.872
11/18/2014  08:54:00       37.108       18.836       -9.480       21.184       37.581       17.753      448.762     1412.366      315.172        0.200        0.109       41.615       10.485        0.063      331.169       -0.989      868.881
11/18/2014  08:55:00       12.822       32.614      -11.685       22.217       28.951       22.905      493.598      838.140      524.626        0.161        0.093       35.044       13.764        0.154      331.195       -0.946      868.886
11/18/2014  08:56:00       -1.644       15.466       22.931       34.531       36.697       17.942     1192.400     1346.681      321.903        0.181        0.143       15.553       10.189        0.429      331.508       -0.431      868.871
11/18/2014  08:57:00       18.103       55.757       68.172       29.132       35.369       23.953      848.646     1250.950      573.735        0.538        0.134       58.622       19.070        0.106      331.422       -0.574      868.830
11/18/2014  08:58:00       46.401       70.290       52.635       51.176       23.696       35.777     2619.029      561.484     1279.963        0.716        0.223       84.225       34.925        0.172      331.290       -0.791      868.787
11/18/2014  08:59:00       57.539       53.400       -3.955       37.334       35.848       28.083     1393.794     1285.065      788.659        0.482        0.173       78.500       20.939        0.071      331.331       -0.723      868.760
11/18/2014  09:00:00       65.150       56.107        1.093       38.168       23.562       31.170     1456.775      555.167      971.557        0.519        0.149       85.979       18.196        0.045      331.206       -0.929      868.751
11/18/2014  09:01:00       27.617       44.029      -13.491       16.910       24.732       28.644      285.935      611.651      820.501        0.230        0.086       51.973       19.532        0.141      331.028       -1.221      868.739
11/18/2014  09:02:00       44.100       24.392       -4.800       15.321       15.449       15.879      234.739      238.670      252.138        0.164        0.036       50.396       11.784        0.055      330.972       -1.314      868.737
11/18/2014  09:03:00       19.073       27.641        4.427       13.462       22.391       25.571      181.225      501.347      653.862        0.124        0.067       33.583       16.214        0.233      331.096       -1.110      868.738
11/18/2014  09:04:00      -20.296        1.977      -13.306       28.273       13.061       14.243      799.362      170.599      202.868        0.088        0.059       20.392        8.415        0.170      331.160       -1.004      868.751
11/18/2014  09:05:00       -5.731       19.411       12.031       25.917       27.706       17.467      671.714      767.628      305.098        0.115        0.087       20.239       17.329        0.733      331.558       -0.349      868.767
11/18/2014  09:06:00       -0.532      -11.422        5.038       12.542       17.450       14.805      157.293      304.512      219.203        0.042        0.034       11.434        5.971        0.273      331.706       -0.105      868.783
11/18/2014  09:07:00      -24.347      -34.057       -8.756       20.992       12.026       12.189      440.644      144.626      148.572        0.128        0.037       41.865       10.811        0.067      331.205       -0.931      868.787
11/18/2014  09:08:00      -12.255      -11.032       -4.211        9.077        9.912        5.666       82.389       98.246       32.101        0.025        0.011       16.489        5.206        0.100      331.368       -0.663      868.783
11/18/2014  09:09:00      -22.417      -11.339       -2.539       18.319       25.872       19.930      335.594      669.335      397.206        0.102        0.070       25.121       15.839        0.398      331.460       -0.510      868.771
11/18/2014  09:10:00      -35.481      -19.334      -10.040       12.554       15.753       12.443      157.608      248.156      154.821        0.115        0.028       40.407        4.746        0.014      331.360       -0.674      868.768
11/18/2014  09:11:00      -10.902       15.193      -11.246       24.540       13.730       10.416      602.188      188.517      108.491        0.069        0.045       18.700        8.034        0.185      331.542       -0.377      868.768
11/18/2014  09:12:00       -4.565       10.363        0.416       25.558       18.563       11.452      653.204      344.578      131.158        0.063        0.056       11.324       11.991        1.121      331.762       -0.011      868.779
11/18/2014  09:13:00       49.327       25.388       -2.521       32.574       32.033       22.047     1061.079     1026.101      486.050        0.283        0.129       55.477       13.991        0.064      331.655       -0.189      868.780
11/18/2014  09:14:00       27.023       24.456       31.384       35.683       26.052       19.669     1273.264      678.695      386.886        0.233        0.117       36.446       11.525        0.100      332.012        0.398      868.780
11/18/2014  09:15:00       46.030       24.596       13.057       38.110       26.133       21.905     1452.403      682.927      479.830        0.275        0.131       52.189       12.270        0.055      331.650       -0.197      868.781
11/18/2014  09:16:00       84.742       55.841       -4.778       14.615       15.556       16.959      213.601      241.994      287.622        0.553        0.037      101.486       10.695        0.011      331.411       -0.591      868.773
11/18/2014  09:17:00       64.085       57.579       10.910       24.836       20.237       20.709      616.824      409.522      428.869        0.450        0.073       86.153       12.203        0.020      331.631       -0.229      868.753
11/18/2014  09:18:00       95.752       70.795       10.858       40.344       29.389       28.563     1627.630      863.702      815.831        0.880        0.165      119.081       18.824        0.025      331.717       -0.087      868.720
11/18/2014  09:19:00      111.304       96.342       42.533       45.441       27.782       45.093     2064.857      771.852     2033.374        1.417        0.244      147.208       24.165        0.027      331.774        0.006      868.691
11/18/2014  09:20:00       85.255       70.186       -2.875       43.798       25.362       38.481     1918.305      643.247     1480.817        0.812        0.202      110.428       26.631        0.058      331.634       -0.224      868.680
11/18/2014  09:21:00       27.552       65.221        5.415       35.720       47.721       32.134     1275.931     2277.298     1032.603        0.481        0.229       70.802       28.346        0.160      331.927        0.258      868.659
11/18/2014  09:22:00        9.807      -15.157        5.011       25.335       42.273       34.539      641.864     1786.993     1192.970        0.199        0.181       18.053       13.941        0.596      332.251        0.792      868.659
11/18/2014  09:23:00        8.647       37.641       38.703       30.203       38.442       27.111      912.193     1477.778      735.008        0.306        0.156       38.621       21.805        0.319      332.387        1.016      868.648
11/18/2014  09:24:00       93.208       51.064        0.371       37.750       34.370       35.981     1425.061     1181.274     1294.611        0.760        0.195      106.279       28.544        0.072      331.923        0.252      868.657
11/18/2014  09:25:00       25.430       44.774       10.779       41.438       43.813       30.657     1717.109     1919.621      939.838        0.367        0.229       51.492       28.408        0.304      332.163        0.648      868.671
11/18/2014  09:26:00       29.451       46.666       78.834       45.232       45.089       26.227     2045.905     2032.994      687.857        0.701        0.238       55.182       27.047        0.240      332.156        0.635      868.686
11/18/2014  09:27:00       70.145       61.495       44.568       32.490       27.390       33.208     1055.633      750.187     1102.797        0.680        0.145       93.284        9.521        0.010      331.910        0.230      868.693
11/18/2014  09:28:00       64.162       37.453        0.004       42.916       32.100       26.141     1841.797     1030.388      683.364        0.454        0.178       74.293       21.384        0.083      331.578       -0.317      868.699
11/18/2014  09:29:00       15.664       72.740        1.100       26.254       42.950       22.207      689.292     1844.731      493.144        0.428        0.151       74.407       14.294        0.037      332.067        0.489      868.684
11/18/2014  09:30:00       32.273       56.885        3.020       25.793       27.426       27.709      665.285      752.208      767.803        0.324        0.109       65.402       16.050        0.060      332.289        0.854      868.659
11/18/2014  09:31:00       44.948       40.709       -0.967       39.541       31.071       36.724     1563.487      965.424     1348.619        0.378        0.194       60.643       23.677        0.152      332.133        0.599      868.637
11/18/2014  09:32:00       22.920       48.828       54.383       40.611       36.504       44.378     1649.229     1332.574     1969.416        0.541        0.248       53.940       33.604        0.388      332.405        1.047      868.620
11/18/2014  09:33:00       33.041       34.372       43.579       41.011       42.784       28.944     1681.883     1830.476      837.759        0.426        0.218       47.678       17.962        0.142      332.294        0.863      868.610
11/18/2014  09:34:00       15.166       44.523       24.232       30.941       27.583       34.627      957.343      760.839     1199.040        0.286        0.146       47.035       13.638        0.084      332.341        0.940      868.613
11/18/2014  09:35:00       -6.342       18.938       18.758       13.995       23.576       33.495      195.862      555.831     1121.911        0.131        0.094       19.972       17.829        0.797      332.480        1.170      868.608
11/18/2014  09:36:00       13.768       73.252       69.774       25.826       39.405       31.132      666.979     1552.718      969.203        0.681        0.159       74.535       18.873        0.064      332.535        1.260      868.611
11/18/2014  09:37:00       74.390       41.179       34.379       29.044       35.512       34.912      843.535     1261.113     1218.861        0.587        0.166       85.026       19.599        0.053      332.341        0.939      868.630
11/18/2014  09:38:00       33.693       52.695       12.746       38.344       33.803       34.677     1470.247     1142.665     1202.493        0.394        0.191       62.546       21.653        0.120      332.420        1.071      868.631
11/18/2014  09:39:00       80.071       88.467       82.723       64.009       49.574       47.645     4097.177     2457.584     2270.025        1.495        0.441      119.323       41.099        0.119      332.218        0.739      868.630
11/18/2014  09:40:00      125.063       64.634        8.990       45.134       37.469       33.950     2037.043     1403.897     1152.627        1.225        0.230      140.777       22.292        0.025      331.842        0.117      868.657
11/18/2014  09:41:00       28.552       54.278        9.862       40.289       18.839       27.850     1623.232      354.920      775.610        0.331        0.138       61.329       17.511        0.082      332.197        0.704      868.674
11/18/2014  09:42:00       51.120       55.607       67.446       39.297       35.582       30.407     1544.290     1266.056      924.590        0.699        0.187       75.534       23.013        0.093      332.487        1.181      868.680
11/18/2014  09:43:00       60.905       74.895       86.139       52.480       47.773       40.425     2754.105     2282.271     1634.217        1.170        0.334       96.533       32.013        0.110      332.411        1.057      868.669
11/18/2014  09:44:00       54.892       74.212       94.309       49.461       66.256       37.727     2446.385     4389.813     1423.325        1.284        0.413       92.307       40.032        0.188      332.436        1.098      868.646
11/18/2014  09:45:00       59.898       42.425       40.062       59.765       41.813       35.973     3571.804     1748.301     1294.044        0.680        0.331       73.400       33.017        0.202      332.414        1.060      868.633
11/18/2014  09:46:00       12.771       83.598       91.880       49.653       59.128       47.479     2465.414     3496.145     2254.234        1.190        0.411       84.568       35.145        0.173      332.671        1.486      868.629
11/18/2014  09:47:00       80.077      118.244       83.134       44.328       49.885       37.335     1964.935     2488.482     1393.898        1.658        0.292      142.808       30.576        0.046      332.127        0.587      868.659
11/18/2014  09:48:00       45.558       88.177       52.133       34.623       35.227       36.801     1198.766     1240.959     1354.328        0.818        0.190       99.251       22.765        0.053      332.163        0.648      868.670
11/18/2014  09:49:00       75.921       59.338       54.544       66.948       41.084       34.843     4481.989     1687.886     1214.067        0.982        0.369       96.359       36.270        0.142      332.353        0.959      868.658
11/18/2014  09:50:00      107.794      100.583        8.987       38.828       38.631       31.855     1507.635     1492.332     1014.740        1.292        0.201      147.434       18.178        0.015      332.156        0.636      868.639
11/18/2014  09:51:00       77.287       64.775       23.274       47.081       35.352       39.105     2216.609     1249.740     1529.228        0.785        0.250      100.842       16.635        0.027      332.468        1.149      868.605
11/18/2014  09:52:00       98.841       74.112       35.387       56.491       50.162       29.773     3191.282     2516.188      886.413        1.155        0.330      123.540       25.196        0.042      332.750        1.615      868.576
11/18/2014  09:53:00        9.632      -30.334       32.286       22.719       47.993       25.845      516.149     2303.346      667.961        0.277        0.174       31.827       24.923        0.613      332.907        1.876      868.574
11/18/2014  09:54:00       40.331       34.191       -2.861       41.953       38.879       24.775     1760.055     1511.544      613.788        0.334        0.194       52.873       27.436        0.269      332.879        1.830      868.580
11/18/2014  09:55:00        5.447       65.591       10.120       48.628       48.147       28.312     2364.713     2318.122      801.552        0.496        0.274       65.817       19.623        0.089      333.006        2.040      868.572
11/18/2014  09:56:00      -23.207       77.698        8.782       27.978       48.943       32.815      782.793     2395.396     1076.813        0.545        0.213       81.090       27.543        0.115      332.989        2.011      868.551
11/18/2014  09:57:00       43.221       52.570       19.401       51.323       46.191       36.502     2634.070     2133.586     1332.411        0.555        0.305       68.056       35.465        0.272      332.991        2.015      868.520
11/18/2014  09:58:00       61.541       66.509       19.481       33.426       43.900       35.304     1117.280     1927.183     1246.394        0.644        0.215       90.613       26.320        0.084      332.875        1.823      868.498
11/18/2014  09:59:00       12.572       67.496       24.951       43.482       48.575       47.518     1890.655     2359.539     2258.002        0.592        0.325       68.657       26.956        0.154      333.013        2.050      868.491
11/18/2014  10:00:00        8.091       33.523       55.415       21.199       42.689       34.840      449.404     1822.371     1213.820        0.387        0.174       34.486       30.614        0.788      333.079        2.159      868.492
11/18/2014  10:01:00       69.196      -37.160        9.422       34.817       52.922       30.694     1212.255     2800.718      942.109        0.561        0.248       78.543       31.556        0.161      332.833        1.753      868.483
11/18/2014  10:02:00       59.667       45.167        3.366       17.659       20.683       21.767      311.823      427.772      473.797        0.341        0.061       74.834       10.899        0.021      332.449        1.119      868.474
11/18/2014  10:03:00       35.900       21.393        4.639       20.978       21.830       21.516      440.068      476.555      462.943        0.157        0.069       41.791        8.529        0.042      332.724        1.572      868.474
11/18/2014  10:04:00       33.519       47.865       37.252       35.884       35.815       30.812     1287.685     1282.725      949.361        0.416        0.176       58.435       22.991        0.155      333.077        2.156      868.476
11/18/2014  10:05:00        5.215       32.605       19.919       31.157       24.415       32.352      970.755      596.078     1046.670        0.205        0.131       33.019       23.323        0.499      333.193        2.349      868.480
11/18/2014  10:06:00       17.896       15.831       23.190       37.023       28.169       22.372     1370.716      793.477      500.505        0.189        0.133       23.893       11.781        0.243      333.296        2.518      868.478
11/18/2014  10:07:00       52.716       47.456       26.469       61.098       54.874       40.070     3732.981     3011.145     1605.630        0.704        0.417       70.930       30.329        0.183      333.321        2.559      868.466
11/18/2014  10:08:00      122.363       86.655        8.082       24.028       24.495       24.219      577.337      600.010      586.540        1.216        0.088      149.939        9.109        0.004      332.706        1.543      868.448
11/18/2014  10:09:00       84.794       73.692       -2.923       47.939       23.872       23.109     2298.135      569.856      534.010        0.801        0.170      112.341       20.887        0.035      332.735        1.591      868.423
11/18/2014  10:10:00       71.963       65.717       28.031       44.784       27.906       30.630     2005.585      778.718      938.186        0.700        0.186       97.455       13.423        0.019      332.916        1.891      868.399
11/18/2014  10:11:00       48.315       47.891       69.643       55.275       60.341       44.621     3055.349     3641.079     1991.005        0.908        0.434       68.029       44.048        0.419      333.157        2.290      868.391
11/18/2014  10:12:00       -8.515       43.593       93.560       32.650       68.537       38.077     1066.028     4697.287     1449.867        0.897        0.361       44.417       33.064        0.554      333.491        2.841      868.405
11/18/2014  10:13:00       90.422       66.856       63.826       29.986       31.183       40.963      899.172      972.377     1677.953        1.013        0.177      112.454       18.599        0.027      332.802        1.701      868.433
11/18/2014  10:14:00       60.565       57.078       25.800       20.147       17.730       24.072      405.906      314.350      579.461        0.445        0.065       83.223       11.419        0.019      332.781        1.666      868.420
11/18/2014  10:15:00       24.447       58.058       48.550       31.036       35.618       50.510      963.207     1268.620     2551.247        0.555        0.239       62.995       29.618        0.221      333.307        2.537      868.394
11/18/2014  10:16:00       20.816       53.526       56.648       41.639       39.399       29.358     1733.833     1552.270      861.897        0.533        0.207       57.431       19.746        0.118      333.625        3.063      868.374
11/18/2014  10:17:00       27.205      -13.231       32.809       38.027       71.710       38.683     1446.073     5142.288     1496.404        0.504        0.404       30.251       44.711        2.184      333.323        2.563      868.363
11/18/2014  10:18:00       22.215      -75.972       17.157       27.641       55.002       26.031      764.023     3025.226      677.593        0.551        0.223       79.153       25.087        0.100      333.407        2.701      868.355
11/18/2014  10:19:00       19.238       38.321       48.054       41.888       36.936       21.380     1754.605     1364.254      457.122        0.386        0.179       42.879       19.166        0.200      333.839        3.419      868.340
11/18/2014  10:20:00       91.461       69.166       12.654       39.122       40.897       32.627     1530.533     1672.594     1064.496        0.879        0.213      114.670       17.402        0.023      333.107        2.205      868.316
11/18/2014  10:21:00       90.114       68.714        4.974       50.439       43.256       25.699     2544.127     1871.049      660.447        0.897        0.254      113.323        8.657        0.006      333.133        2.249      868.299
11/18/2014  10:22:00       23.788       26.747       29.418       28.688       24.689       26.416      823.024      609.555      697.781        0.214        0.107       35.795       18.772        0.275      333.588        3.002      868.290
11/18/2014  10:23:00       70.505       59.848        8.939       29.104       27.489       22.854      847.042      755.652      522.291        0.538        0.106       92.481       13.539        0.021      333.199        2.357      868.285
11/18/2014  10:24:00       23.390       43.332       31.463       34.250       39.206       18.756     1173.038     1537.126      351.786        0.324        0.153       49.241       11.687        0.056      333.718        3.216      868.284
11/18/2014  10:25:00       29.681       18.145       12.854       36.704       27.021       27.087     1347.179      730.161      733.684        0.209        0.141       34.788       23.646        0.462      333.832        3.405      868.266
11/18/2014  10:26:00       15.759      -33.775       -4.509       41.234       74.172       35.399     1700.262     5501.468     1253.083        0.493        0.423       37.271       23.004        0.381      333.535        2.913      868.239
11/18/2014  10:27:00       54.234      -56.476       16.854       43.648       69.322       48.343     1905.142     4805.541     2337.006        0.773        0.452       78.300       52.669        0.452      333.368        2.637      868.207
11/18/2014  10:28:00       41.573      -54.612       30.797       52.643      100.767       61.493     2771.324    10153.944     3781.376        1.118        0.835       68.635       73.002        1.131      333.420        2.721      868.195
11/18/2014  10:29:00       -2.631       17.157       55.220       34.417       42.047       27.702     1184.515     1767.983      767.406        0.353        0.186       17.357       21.529        1.538      333.527        2.898      868.178
11/18/2014  10:30:00       21.416       40.032       61.333       36.796       50.270       24.173     1353.972     2527.052      584.337        0.514        0.223       45.401       18.150        0.160      333.651        3.105      868.175
11/18/2014  10:31:00       36.490       27.648       31.252       42.274       32.694       26.982     1787.096     1068.877      728.029        0.333        0.179       45.781       20.554        0.202      333.448        2.769      868.157
11/18/2014  10:32:00       27.266       88.082       99.517       56.359       47.802       39.737     3176.328     2284.995     1578.991        1.272        0.352       92.206       37.000        0.161      333.237        2.420      868.142
11/18/2014  10:33:00       -1.134       52.119       85.619       23.818       54.347       23.510      567.321     2953.608      552.740        0.706        0.204       52.131       25.891        0.247      333.485        2.830      868.121
11/18/2014  10:34:00        0.287       59.023       85.370       26.001       53.531       28.111      676.063     2865.620      790.248        0.755        0.217       59.024       29.737        0.254      333.551        2.940      868.112
11/18/2014  10:35:00      109.807       81.002        7.954       33.206       29.368       37.324     1102.669      862.503     1393.104        1.102        0.168      136.451       20.140        0.022      333.104        2.200      868.099
11/18/2014  10:36:00      103.641       80.283        6.534       36.177       34.855       31.139     1308.773     1214.867      969.632        1.036        0.175      131.098       22.712        0.030      333.093        2.183      868.085
11/18/2014  10:37:00      110.790       96.298        3.747       28.427       27.094       29.834      808.100      734.083      890.092        1.200        0.122      146.791       13.312        0.008      333.048        2.109      868.087
11/18/2014  10:38:00       56.994       58.890        5.962       49.081       42.935       28.117     2408.974     1843.373      790.586        0.590        0.252       81.953       16.522        0.041      333.264        2.465      868.100
11/18/2014  10:39:00       69.107       65.530       23.329       31.448       25.480       40.465      988.947      649.212     1637.403        0.644        0.164       95.236       13.124        0.019      333.345        2.599      868.102
11/18/2014  10:40:00      114.382       67.751       23.088       29.689       34.598       23.701      881.450     1197.020      561.737        1.042        0.132      132.941       18.601        0.020      333.111        2.214      868.112
11/18/2014  10:41:00       52.819       80.116       88.933       77.148       66.561       55.039     5951.779     4430.305     3029.257        1.526        0.671       95.961       55.028        0.329      333.419        2.722      868.095
11/18/2014  10:42:00       91.095       95.373       70.588       57.292       41.444       48.007     3282.373     1717.641     2304.684        1.484        0.365      131.888       33.299        0.064      333.376        2.649      868.086
11/18/2014  10:43:00       -9.981       14.004       62.556       21.537       50.567       33.968      463.835     2557.048     1153.803        0.419        0.209       17.196       34.311        3.981      333.805        3.360      868.070
11/18/2014  10:44:00       14.383       95.123      104.551       45.025       51.858       35.253     2027.230     2689.201     1242.809        1.307        0.298       96.205       27.624        0.082      333.659        3.118      868.065
11/18/2014  10:45:00       54.371       73.914       55.503       51.504       44.617       42.837     2652.694     1990.659     1835.040        0.899        0.324       91.758       38.742        0.178      333.476        2.816      868.056
11/18/2014  10:46:00       75.880       77.802       34.565       28.215       26.754       37.498      796.060      715.801     1406.092        0.796        0.146      108.678        9.384        0.007      333.502        2.858      868.045
11/18/2014  10:47:00       44.828       41.004       24.553       20.017       21.455       13.049      400.663      460.317      170.277        0.266        0.052       60.752       11.255        0.034      333.340        2.591      868.068
11/18/2014  10:48:00       31.699       16.335       29.495       30.602       44.231       29.638      936.510     1956.378      878.394        0.296        0.189       35.661       28.087        0.620      333.495        2.847      868.089
11/18/2014  10:49:00       76.440       69.226       39.483       22.137       22.990       26.823      490.053      528.524      719.468        0.697        0.087      103.128       15.860        0.024      333.413        2.711      868.116
11/18/2014  10:50:00       52.832       79.847       62.525       43.794       33.563       25.646     1917.911     1126.501      657.709        0.839        0.185       95.743       19.238        0.040      333.512        2.875      868.129
11/18/2014  10:51:00       59.450       45.136       22.697       24.761       21.429       19.507      613.124      459.205      380.542        0.377        0.073       74.643       11.796        0.025      333.451        2.774      868.124
11/18/2014  10:52:00       39.714       54.216       11.193       30.797       30.854       25.860      948.481      951.993      668.736        0.360        0.128       67.205       21.449        0.102      333.711        3.204      868.111
11/18/2014  10:53:00       38.898       18.983       27.220       20.402       21.402       20.537      416.254      458.038      421.776        0.195        0.065       43.283        9.289        0.046      333.776        3.313      868.128
11/18/2014  10:54:00       17.361       40.463       43.608       27.324       31.110       16.558      746.619      967.829      274.178        0.291        0.099       44.031       15.133        0.118      334.142        3.921      868.153
11/18/2014  10:55:00       18.488      -45.193       12.108       32.002       72.617       37.512     1024.102     5273.263     1407.164        0.512        0.385       48.829       44.233        0.821      334.095        3.841      868.174
11/18/2014  10:56:00      -46.502      -66.048        1.413       34.018       22.629       20.044     1157.247      512.073      401.744        0.430        0.104       80.776       16.607        0.042      333.891        3.503      868.159
11/18/2014  10:57:00        0.532       18.336       47.989       41.248       35.275       37.327     1701.420     1244.343     1393.284        0.349        0.217       18.343       36.641        3.990      334.272        4.135      868.110
11/18/2014  10:58:00       99.239       81.122        7.487       66.337       48.177       43.741     4400.603     2321.051     1913.300        1.256        0.432      128.176       31.115        0.059      333.996        3.677      868.065
11/18/2014  10:59:00      133.750      102.986       20.701       65.249       46.766       50.531     4257.477     2187.103     2553.348        1.896        0.450      168.805       29.011        0.030      334.000        3.682      868.038
11/18/2014  11:00:00      102.021      105.814        3.284       49.351       43.859       39.436     2435.487     1923.610     1555.207        1.376        0.296      146.986       21.082        0.021      333.915        3.542      868.013
11/18/2014  11:01:00      115.565      103.863       30.325       44.739       37.046       35.226     2001.619     1372.369     1240.849        1.484        0.231      155.380       20.794        0.018      333.776        3.311      867.998
11/18/2014  11:02:00       37.362       36.077        9.493       34.065       24.888       22.135     1160.424      619.401      489.977        0.253        0.113       51.937        8.516        0.027      333.759        3.283      867.976
11/18/2014  11:03:00       74.686       40.829        8.737       54.410       39.718       36.592     2960.417     1577.544     1338.967        0.660        0.294       85.117       30.076        0.125      333.950        3.601      867.948
11/18/2014  11:04:00       54.014       70.049       46.321       62.266       47.183       53.579     3877.079     2226.197     2870.747        0.947        0.449       88.455       41.358        0.219      334.118        3.882      867.927
11/18/2014  11:05:00      114.699       75.001       22.134       42.063       37.628       43.034     1769.330     1415.899     1851.943        1.215        0.252      137.044       29.780        0.047      333.777        3.314      867.914
11/18/2014  11:06:00       61.161       65.551        2.285       39.007       28.027       36.981     1521.575      785.540     1367.563        0.586        0.184       89.653       19.671        0.048      333.854        3.442      867.902
11/18/2014  11:07:00       -1.719       25.870       31.761       19.039       33.991       22.841      362.487     1155.378      521.730        0.186        0.102       25.927       19.736        0.579      334.289        4.162      867.889
11/18/2014  11:08:00       12.678       56.099       83.989       29.269       45.933       27.393      856.696     2109.799      750.397        0.704        0.186       57.514       28.545        0.246      334.097        3.845      867.866
11/18/2014  11:09:00       57.568       52.860       49.155       27.518       40.246       29.286      757.227     1619.748      857.665        0.588        0.162       78.155       29.085        0.138      333.870        3.469      867.851
11/18/2014  11:10:00       29.473       64.255       60.471       42.597       30.569       25.474     1814.527      934.443      648.901        0.603        0.170       70.692       23.954        0.115      334.104        3.858      867.842
11/18/2014  11:11:00       51.784       66.567       45.736       34.108       46.802       34.440     1163.368     2190.422     1186.119        0.687        0.227       84.337       28.675        0.116      334.074        3.807      867.830
11/18/2014  11:12:00        3.163       10.099       59.898       30.453       50.908       30.040      927.375     2591.627      902.407        0.406        0.221       10.582       22.049        4.341      334.490        4.498      867.823
11/18/2014  11:13:00       -7.335       42.691       69.551       35.968       49.450       40.256     1293.701     2445.339     1620.582        0.604        0.268       43.316       29.465        0.463      334.453        4.435      867.792
11/18/2014  11:14:00      156.349       64.478       32.774       44.502       41.139       43.580     1980.404     1692.394     1899.260        1.762        0.279      169.122       22.054        0.017      333.963        3.621      867.774
11/18/2014  11:15:00       91.120       70.191       29.155       40.612       30.921       34.837     1649.327      956.103     1213.605        0.895        0.191      115.020       15.756        0.019      333.979        3.651      867.775
11/18/2014  11:16:00       56.980       51.218       12.557       36.421       29.679       34.122     1326.468      880.862     1164.292        0.470        0.169       76.616       20.745        0.073      334.038        3.747      867.765
11/18/2014  11:17:00       76.076        6.996       27.662       63.209       44.611       30.359     3995.342     1990.182      921.659        0.675        0.345       76.397       27.066        0.126      334.143        3.921      867.759
11/18/2014  11:18:00      100.604       83.592       76.342       48.362       38.425       39.644     2338.856     1476.485     1571.631        1.416        0.269      130.801       17.043        0.017      333.988        3.663      867.745
11/18/2014  11:19:00       70.056       91.597       78.011       49.856       32.737       26.732     2485.594     1071.683      714.611        1.183        0.214      115.316       15.519        0.018      333.952        3.604      867.737
11/18/2014  11:20:00       61.171       58.450       35.945       46.090       41.291       41.918     2124.263     1704.934     1757.159        0.702        0.279       84.606       32.611        0.149      333.976        3.645      867.705
11/18/2014  11:21:00       21.667       56.786       55.845       31.220       41.244       30.667      974.695     1701.064      940.474        0.521        0.181       60.779       12.748        0.044      334.341        4.250      867.662
11/18/2014  11:22:00       60.229       72.942       44.306       42.925       33.245       31.095     1842.533     1105.250      966.879        0.741        0.196       94.594       22.742        0.058      334.311        4.201      867.624
11/18/2014  11:23:00       77.898       53.624        7.894       34.247       23.063       26.126     1172.880      531.900      682.583        0.570        0.119       94.571       22.628        0.057      333.861        3.454      867.605
11/18/2014  11:24:00       47.108       51.056        6.801       38.494       35.851       32.633     1481.792     1285.269     1064.891        0.435        0.192       69.469       24.526        0.125      333.996        3.677      867.577
11/18/2014  11:25:00       44.283       68.368        2.785       37.385       45.291       26.653     1397.667     2051.305      710.382        0.540        0.208       81.457       19.575        0.058      334.043        3.755      867.552
11/18/2014  11:26:00       12.890       41.105       33.269       43.578       44.594       37.591     1899.018     1988.609     1413.076        0.413        0.265       43.079       25.873        0.361      334.223        4.056      867.529
11/18/2014  11:27:00       71.034       55.181       30.582       71.010       44.501       43.296     5042.459     1980.312     1874.539        0.896        0.445       89.948       40.419        0.202      334.434        4.404      867.507
11/18/2014  11:28:00       70.650       62.910       18.287       48.350       31.548       28.741     2337.768      995.252      826.042        0.672        0.208       94.600       19.523        0.043      334.189        3.997      867.486
11/18/2014  11:29:00      102.630       46.616        2.616       50.783       31.411       25.793     2578.897      986.625      665.284        0.847        0.212      112.721       17.292        0.024      334.084        3.823      867.477
11/18/2014  11:30:00       91.848       44.795       -2.525       38.593       30.127       22.558     1489.426      907.657      508.876        0.668        0.145      102.189       21.393        0.044      334.006        3.694      867.487
11/18/2014  11:31:00       45.108       46.567       31.948       49.865       45.504       41.480     2486.481     2070.593     1720.564        0.575        0.314       64.832       31.534        0.237      334.226        4.059      867.489
11/18/2014  11:32:00      113.390       77.746       34.116       38.172       21.574       43.130     1457.070      465.455     1860.155        1.192        0.189      137.484       20.252        0.022      333.922        3.554      867.486
11/18/2014  11:33:00       86.909       67.218       38.115       25.275       18.631       18.225      638.846      347.126      332.155        0.742        0.066      109.870        8.349        0.006      333.978        3.648      867.465
11/18/2014  11:34:00      113.586      108.786       81.989       68.843       46.696       51.412     4739.350     2180.500     2643.180        2.051        0.478      157.278       49.913        0.101      334.245        4.089      867.442
11/18/2014  11:35:00       63.752       87.647       63.266       44.103       32.685       33.471     1945.088     1068.336     1120.320        0.994        0.207      108.381       28.193        0.068      333.997        3.679      867.444
11/18/2014  11:36:00       68.985       46.889       37.438       49.711       39.878       28.994     2471.150     1590.280      840.638        0.663        0.245       83.412       21.670        0.067      334.258        4.111      867.436
11/18/2014  11:37:00       70.723      -73.176        7.149       38.308       45.523       37.169     1467.472     2072.361     1381.522        0.766        0.246      101.767       34.580        0.115      334.286        4.158      867.422
11/18/2014  11:38:00       74.136     -104.491      -20.800       33.088       25.608       20.369     1094.824      655.766      414.902        0.951        0.108      128.119       13.422        0.011      334.279        4.147      867.392
11/18/2014  11:39:00       32.855      -51.298        4.592       36.011       49.785       27.547     1296.795     2478.516      758.830        0.413        0.227       60.918       24.313        0.159      334.496        4.507      867.381
11/18/2014  11:40:00       22.863       43.628       34.015       34.994       31.593       32.968     1224.599      998.086     1086.858        0.345        0.165       49.255       25.833        0.275      334.847        5.090      867.394
11/18/2014  11:41:00       14.743       46.708       -5.955       53.377       33.033       32.980     2849.127     1091.165     1087.678        0.373        0.251       48.979        5.627        0.013      334.645        4.755      867.403
11/18/2014  11:42:00       17.398       75.492       -2.839       34.219       39.460       24.583     1170.944     1557.097      604.311        0.467        0.167       77.470       22.901        0.087      334.392        4.333      867.385
11/18/2014  11:43:00       19.804       33.128       34.574       41.299       42.983       35.983     1705.579     1847.571     1294.781        0.377        0.242       38.596       33.135        0.737      334.715        4.871      867.344
11/18/2014  11:44:00       23.634       64.888       89.899       55.134       50.077       32.920     3039.787     2507.752     1083.742        0.974        0.332       69.058       30.364        0.193      334.719        4.876      867.311
11/18/2014  11:45:00       63.325       96.585       70.878       51.320       37.922       45.231     2633.721     1438.116     2045.815        1.224        0.306      115.493       37.577        0.106      334.427        4.390      867.297
11/18/2014  11:46:00       79.512       80.834       75.159       45.219       32.102       35.074     2044.740     1030.553     1230.204        1.140        0.215      113.385       27.329        0.058      334.314        4.205      867.290
11/18/2014  11:47:00       81.179       68.285       54.936       58.602       33.609       38.205     3434.194     1129.565     1459.647        1.015        0.301      106.079       35.541        0.112      334.350        4.265      867.265
11/18/2014  11:48:00       54.203       67.651       76.618       39.804       33.354       23.294     1584.324     1112.496      542.611        0.831        0.162       86.686       16.567        0.037      334.407        4.359      867.254
11/18/2014  11:49:00       87.047       69.520       54.901       39.737       26.615       26.162     1579.052      708.334      684.459        0.920        0.149      111.402       18.122        0.026      334.251        4.101      867.242
11/18/2014  11:50:00      112.114       89.791       56.131       43.438       28.203       39.916     1886.903      795.417     1593.309        1.403        0.214      143.638       24.215        0.028      334.264        4.122      867.209
11/18/2014  11:51:00      101.432       45.008       -0.269       23.375       18.232       16.453      546.401      332.410      270.698        0.673        0.057      110.969       11.972        0.012      334.131        3.901      867.187
11/18/2014  11:52:00       31.081       21.690       -4.763       22.337       12.717        5.375      498.921      161.712       28.888        0.107        0.034       37.901        5.315        0.020      334.175        3.974      867.167
11/18/2014  11:53:00       11.798        5.175        8.998       25.695       37.089       17.797      660.236     1375.619      316.750        0.130        0.118       12.883       11.514        0.799      334.488        4.493      867.135
11/18/2014  11:54:00       93.337       47.865        0.346       50.127       31.680       32.996     2512.746     1003.628     1088.756        0.780        0.230      104.894       18.090        0.030      334.296        4.175      867.105
11/18/2014  11:55:00       77.962       46.325       -2.175       39.604       31.870       23.508     1568.495     1015.687      552.635        0.568        0.157       90.686       14.052        0.024      334.349        4.263      867.081
11/18/2014  11:56:00       50.280       55.931       15.107       40.034       36.751       43.020     1602.689     1350.663     1850.720        0.534        0.240       75.209       18.648        0.061      334.700        4.846      867.074
11/18/2014  11:57:00       21.006       40.770       62.626       28.633       33.943       19.567      819.821     1152.142      382.867        0.419        0.118       45.863        9.154        0.040      334.850        5.095      867.071
11/18/2014  11:58:00       64.564       61.458       45.163       29.945       27.704       29.445      896.719      767.505      867.004        0.626        0.127       89.138       19.820        0.049      334.610        4.696      867.063
11/18/2014  11:59:00       -3.847       46.986       71.185       20.865       29.187       17.298      435.338      851.872      299.208        0.444        0.079       47.143       13.598        0.083      334.986        5.321      867.042
11/18/2014  12:00:00      -14.855        0.217       36.602       19.297       25.894       12.957      372.369      670.506      167.889        0.139        0.061       14.856        8.722        0.345      335.160        5.610      867.040
11/18/2014  12:01:00      -23.159       -1.405       15.859       20.589       15.386       15.004      423.921      236.739      225.127        0.084        0.044       23.201        9.956        0.184      335.105        5.518      867.036
11/18/2014  12:02:00      -30.743        3.196        6.006       31.877       26.114       16.933     1016.145      681.937      286.737        0.149        0.099       30.908       13.015        0.177      335.030        5.393      867.040
11/18/2014  12:03:00      -25.859       11.026       -2.950       32.626       13.918       27.811     1064.465      193.701      773.426        0.141        0.102       28.112       25.758        0.840      334.970        5.293      867.043
11/18/2014  12:04:00       13.244      -12.800       23.751       17.990       16.973       17.557      323.657      288.094      308.234        0.091        0.046       18.419       12.872        0.488      335.227        5.720      867.034
11/18/2014  12:05:00        3.809       21.627       -2.578       17.790       20.616       21.637      316.472      425.011      468.168        0.085        0.060       21.960       19.090        0.756      335.003        5.349      867.020
11/18/2014  12:06:00      -21.173       -3.608       -6.453       29.697       22.834       13.546      881.924      521.402      183.504        0.104        0.079       21.479       10.271        0.229      335.091        5.497      867.000
11/18/2014  12:07:00      -34.407       22.685        5.244       22.155       25.342       24.381      490.847      642.220      594.443        0.173        0.086       41.212       18.411        0.200      335.367        5.955      866.994
11/18/2014  12:08:00       -7.739       -5.030       17.899       17.316       21.161       18.386      299.831      447.777      338.054        0.075        0.054        9.229       14.614        2.507      335.727        6.554      866.971
11/18/2014  12:09:00      -36.136      -48.951       -8.167       33.408       47.695       26.894     1116.126     2274.847      723.296        0.394        0.206       60.844       23.365        0.147      335.306        5.853      866.960
11/18/2014  12:10:00        5.510      -46.534       25.347       39.054       32.339       39.767     1525.196     1045.820     1581.422        0.349        0.208       46.859       24.817        0.280      335.461        6.110      866.942
11/18/2014  12:11:00       61.999      -45.514        3.347       50.098       47.703       35.492     2509.806     2275.553     1259.715        0.598        0.302       76.912       38.679        0.253      335.115        5.537      866.912
11/18/2014  12:12:00        7.211       17.460       17.558       16.423       30.878       26.418      269.705      953.426      697.900        0.129        0.096       18.891       17.813        0.889      335.102        5.512      866.902
11/18/2014  12:13:00       21.581       28.564       19.797       26.351       35.954       26.608      694.397     1292.720      707.986        0.218        0.135       35.800       20.932        0.342      335.307        5.854      866.904
11/18/2014  12:14:00       51.117       54.290       45.979       39.915       27.983       37.932     1593.210      783.066     1438.823        0.574        0.191       74.568       25.309        0.115      335.036        5.404      866.902
11/18/2014  12:15:00       41.916       22.627       46.390       35.531       57.598       36.198     1262.432     3317.479     1310.308        0.515        0.295       47.633       37.029        0.604      335.153        5.599      866.893
11/18/2014  12:16:00       81.178       78.975       42.626       69.444       56.985       52.157     4822.514     3247.332     2720.396        1.271        0.540      113.256       48.359        0.182      334.937        5.238      866.877
11/18/2014  12:17:00       84.452       26.307       24.285       54.073       56.614       52.501     2923.879     3205.168     2756.340        0.865        0.444       88.455       40.543        0.210      334.915        5.202      866.877
11/18/2014  12:18:00       14.174       83.276       78.488       52.587       48.378       33.856     2765.386     2340.437     1146.221        0.977        0.313       84.474       28.286        0.112      335.198        5.673      866.860
11/18/2014  12:19:00      128.620       89.698       10.685       47.064       46.056       42.564     2214.975     2121.144     1811.732        1.542        0.307      156.808       24.973        0.025      335.037        5.406      866.860
11/18/2014  12:20:00      100.401       76.405       13.702       59.191       38.563       28.355     3503.519     1487.123      803.991        1.095        0.290      126.166       16.976        0.018      334.946        5.256      866.861
11/18/2014  12:21:00      124.917       90.817        0.963       43.642       28.152       29.984     1904.592      792.557      899.051        1.372        0.180      154.441       13.501        0.008      334.756        4.937      866.864
11/18/2014  12:22:00       33.473       96.951       -6.142       28.109       41.719       29.366      790.094     1740.501      862.343        0.697        0.170      102.566       28.482        0.077      334.891        5.163      866.843
11/18/2014  12:23:00       76.702       70.056        3.007       37.992       38.904       35.852     1443.419     1513.491     1285.341        0.752        0.212      103.880       28.773        0.077      334.876        5.139      866.836
11/18/2014  12:24:00       74.561       47.964        7.142       36.052       18.738       22.949     1299.770      351.111      526.649        0.504        0.109       88.656       10.184        0.013      334.798        5.009      866.817
11/18/2014  12:25:00       70.156       38.102       29.697       54.140       39.164       34.151     2931.190     1533.809     1166.307        0.644        0.282       79.835       23.829        0.089      335.102        5.514      866.801
11/18/2014  12:26:00       82.780       36.352        6.398       39.416       35.145       25.092     1553.634     1235.141      629.625        0.582        0.171       90.411       19.523        0.047      334.889        5.161      866.795
11/18/2014  12:27:00        9.876       40.772      -16.449       47.849       19.767       19.205     2289.486      390.717      368.824        0.254        0.152       41.952       13.069        0.097      334.994        5.335      866.787
11/18/2014  12:28:00       -1.015      -33.288       15.508       25.872       27.827       21.974      669.349      774.370      482.846        0.164        0.096       33.303        9.287        0.078      335.170        5.627      866.783
11/18/2014  12:29:00       23.058       36.263       62.235       27.017       30.079       12.345      729.916      904.774      152.392        0.375        0.089       42.973       15.943        0.138      335.271        5.794      866.780
11/18/2014  12:30:00       53.319       63.333       60.980       28.938       29.339       21.179      837.396      860.794      448.535        0.636        0.107       82.789       16.219        0.038      335.144        5.583      866.768
11/18/2014  12:31:00       40.140       19.667        9.464       25.969       35.015       23.872      674.409     1226.063      569.887        0.228        0.124       44.699       19.754        0.195      334.932        5.231      866.765
11/18/2014  12:32:00       58.808       54.820       23.964       36.427       40.274       25.771     1326.894     1622.018      664.164        0.532        0.181       80.397       20.723        0.066      335.002        5.347      866.735
11/18/2014  12:33:00       96.152       83.316       45.936       46.919       30.131       37.833     2201.406      907.892     1431.319        1.142        0.227      127.227       25.883        0.041      335.239        5.740      866.711
11/18/2014  12:34:00       58.754       46.832       35.819       44.583       37.166       26.917     1987.630     1381.325      724.517        0.551        0.205       75.135       14.079        0.035      335.195        5.668      866.704
11/18/2014  12:35:00       63.788       67.022       40.238       49.485       31.968       36.681     2448.755     1021.924     1345.489        0.750        0.241       92.525       33.146        0.128      335.127        5.555      866.695
11/18/2014  12:36:00       84.726       49.505       29.933       41.697       40.653       33.133     1738.679     1652.656     1097.800        0.751        0.224       98.129       21.773        0.049      335.030        5.394      866.695
11/18/2014  12:37:00       48.148       -0.103       27.679       50.489       52.460       46.962     2549.098     2752.038     2205.393        0.529        0.375       48.148       51.221        1.132      335.151        5.595      866.712
11/18/2014  12:38:00       32.452      -33.634        1.679       33.451       30.168       32.197     1118.990      910.106     1036.635        0.263        0.153       46.737       22.368        0.229      335.287        5.820      866.713
11/18/2014  12:39:00       29.075       18.340       36.763       34.552       59.157       40.068     1193.812     3499.516     1605.428        0.441        0.315       34.376       43.508        1.602      335.402        6.012      866.705
11/18/2014  12:40:00       -1.738       28.036      -10.461       23.851       17.221       10.602      568.851      296.570      112.409        0.094        0.049       28.090        7.551        0.072      335.227        5.721      866.693
11/18/2014  12:41:00      -14.034       -2.316      -12.535       15.298       14.977       12.711      234.035      224.308      161.565        0.049        0.031       14.224        7.776        0.299      335.372        5.961      866.671
11/18/2014  12:42:00        6.493        5.786       19.316       16.329       10.565       17.189      266.632      111.627      295.470        0.056        0.034        8.697        7.628        0.769      335.673        6.463      866.625
11/18/2014  12:43:00       48.350       56.548       -5.156       43.683       63.765       26.016     1908.175     4065.943      676.809        0.611        0.333       74.401       26.400        0.126      335.324        5.883      866.590
11/18/2014  12:44:00       -3.760       46.105       -2.432       17.901       28.946       19.770      320.461      837.896      390.838        0.185        0.077       46.258       10.099        0.048      335.236        5.735      866.567
11/18/2014  12:45:00       -0.260       59.518      -18.253       22.674       35.610       15.424      514.111     1268.047      237.896        0.295        0.101       59.518       15.221        0.065      335.100        5.509      866.541
11/18/2014  12:46:00       38.084       36.536        9.905       18.011       16.564       14.302      324.407      274.373      204.540        0.184        0.040       52.776        9.385        0.032      335.341        5.910      866.523
11/18/2014  12:47:00       28.785       54.697       70.661       46.481       46.911       33.744     2160.528     2200.624     1138.626        0.716        0.275       61.809       24.031        0.151      335.513        6.198      866.495
11/18/2014  12:48:00        9.454       78.185      100.599       40.332       49.290       33.388     1626.662     2429.509     1114.727        1.075        0.259       78.754       28.760        0.133      335.588        6.323      866.474
11/18/2014  12:49:00       26.206       32.250       63.264       42.086       60.553       35.072     1771.196     3666.722     1230.046        0.620        0.333       41.555       27.635        0.442      335.671        6.461      866.450
11/18/2014  12:50:00       38.078       70.218       83.649       37.491       23.672       18.834     1405.591      560.345      354.736        0.785        0.116       79.878       16.100        0.041      335.472        6.129      866.433
11/18/2014  12:51:00       57.634       53.209       42.126       42.198       35.631       45.728     1780.660     1269.585     2091.026        0.653        0.257       78.440       39.678        0.256      335.502        6.177      866.401
11/18/2014  12:52:00        8.511       33.375       60.809       40.900       35.021       35.272     1672.833     1226.491     1244.117        0.451        0.207       34.443       28.614        0.690      335.910        6.859      866.367
11/18/2014  12:53:00       64.067       46.662       27.945       44.725       40.770       35.795     2000.361     1662.216     1281.298        0.600        0.247       79.259       22.160        0.078      335.521        6.209      866.372
11/18/2014  12:54:00       -9.201       17.256       -6.408       12.019       18.107       15.791      144.449      327.864      249.349        0.057        0.036       19.555       12.061        0.380      335.539        6.240      866.372
11/18/2014  12:55:00       -0.111       25.666       13.148       17.107       22.283       23.046      292.658      496.547      531.127        0.108        0.066       25.666        9.570        0.139      335.612        6.361      866.364
11/18/2014  12:56:00       10.071       24.924       22.357       21.697       15.273       21.835      470.766      233.264      476.785        0.120        0.059       26.882       17.030        0.401      335.639        6.406      866.342
11/18/2014  12:57:00       18.158       15.915       16.203       26.039       20.951       26.383      678.047      438.935      696.048        0.133        0.091       24.145        5.471        0.051      335.790        6.659      866.322
11/18/2014  12:58:00       22.037       33.261       65.252       47.085       57.901       46.038     2216.987     3352.517     2119.504        0.677        0.384       39.899       43.481        1.188      335.864        6.781      866.296
11/18/2014  12:59:00        4.193        8.259       59.241       41.919       57.014       39.732     1757.164     3250.630     1578.597        0.509        0.329        9.263       33.981       13.458      335.914        6.865      866.277
11/18/2014  13:00:00       42.182      -38.992       21.627       35.116       44.183       31.777     1233.142     1952.107     1009.753        0.398        0.210       57.443       24.932        0.188      335.566        6.286      866.274
11/18/2014  13:01:00       18.785      -19.059       15.627       24.383       34.395       22.730      594.510     1183.015      516.640        0.163        0.115       26.761        5.513        0.042      335.656        6.435      866.275
11/18/2014  13:02:00       -0.183       14.356       28.824       15.037       24.450       14.992      226.101      597.792      224.754        0.104        0.052       14.357        7.912        0.304      335.898        6.839      866.266
11/18/2014  13:03:00        5.790       20.544       39.754       31.228       25.790       28.353      975.198      665.113      803.872        0.224        0.122       21.345       26.614        1.555      335.943        6.913      866.245
11/18/2014  13:04:00       17.361       59.676       61.782       39.060       35.808       31.894     1525.695     1282.219     1017.230        0.575        0.191       62.150       25.110        0.163      335.843        6.747      866.211
11/18/2014  13:05:00      116.467       84.613       27.628       40.930       27.133       41.308     1675.305      736.178     1706.367        1.280        0.206      143.958       23.017        0.026      335.588        6.321      866.189
11/18/2014  13:06:00       40.541       58.839       51.801       43.129       36.583       36.568     1860.114     1338.283     1337.192        0.616        0.227       71.453       25.024        0.123      335.795        6.667      866.184
11/18/2014  13:07:00       57.701      -13.811       23.765       63.568       35.097       32.568     4040.878     1231.829     1060.703        0.521        0.317       59.330       31.365        0.279      335.692        6.494      866.180
11/18/2014  13:08:00       18.421       -3.906       20.673       28.755       29.963       29.343      826.868      897.765      861.025        0.168        0.129       18.831       16.204        0.740      335.648        6.421      866.174
11/18/2014  13:09:00       35.747      -16.348       27.205       43.048       27.219       23.811     1853.155      740.871      566.969        0.272        0.158       39.308       23.773        0.366      335.762        6.611      866.162
11/18/2014  13:10:00       33.450      -58.255        6.713       29.094       38.224       25.779      846.455     1461.096      664.572        0.376        0.149       67.176       15.328        0.052      335.726        6.553      866.160
11/18/2014  13:11:00       36.802       28.164       18.112       34.223       47.652       33.252     1171.219     2270.742     1105.707        0.351        0.227       46.342       23.991        0.268      335.694        6.498      866.157
11/18/2014  13:12:00       27.679       43.974       -1.529       19.315       26.461       16.421      373.080      700.183      269.633        0.202        0.067       51.960        7.876        0.023      335.561        6.277      866.158
11/18/2014  13:13:00       34.161       27.735        4.309       30.899       21.893       17.166      954.747      479.319      294.655        0.184        0.086       44.002       14.720        0.112      335.661        6.444      866.147
11/18/2014  13:14:00       17.689      -38.385        3.419       25.180       61.055       28.204      634.011     3727.765      795.457        0.348        0.258       42.265       30.371        0.516      335.716        6.535      866.138
11/18/2014  13:15:00       18.422      -13.902       22.282       25.376       50.810       25.551      643.954     2581.625      652.853        0.245        0.194       23.079       30.680        1.767      335.876        6.801      866.128
11/18/2014  13:16:00       25.141       26.226       35.862       33.382       29.734       23.763     1114.365      884.112      564.671        0.258        0.128       36.330       15.360        0.179      335.966        6.952      866.127
11/18/2014  13:17:00       32.265       19.378       13.346       22.579       26.048       23.641      509.809      678.478      558.917        0.167        0.087       37.636       17.176        0.208      335.855        6.766      866.131
11/18/2014  13:18:00       12.115       34.469        7.963       20.938       27.229       22.005      438.413      741.435      484.203        0.153        0.083       36.536       14.264        0.152      335.893        6.830      866.141
11/18/2014  13:19:00       15.380      -73.562        4.550       49.673       63.051       24.220     2467.421     3975.421      586.625        0.635        0.351       75.153       14.902        0.039      335.873        6.796      866.143
11/18/2014  13:20:00       25.931       -5.392       45.721       25.236       42.434       25.618      636.838     1800.630      656.258        0.294        0.155       26.486       18.759        0.502      336.051        7.093      866.144
11/18/2014  13:21:00       45.457        6.651       27.707       53.426       51.560       40.428     2854.297     2658.435     1634.453        0.501        0.357       45.941       47.085        1.050      335.815        6.699      866.155
11/18/2014  13:22:00       41.973      -15.259       14.926       56.602       43.840       25.361     3203.757     1921.956      643.203        0.399        0.288       44.660       34.273        0.589      335.801        6.677      866.151
11/18/2014  13:23:00       25.466       39.288       52.167       29.462       37.302       28.438      867.994     1391.475      808.746        0.399        0.153       46.819       23.316        0.248      335.886        6.818      866.143
11/18/2014  13:24:00       16.999       -0.236       29.025       27.223       37.041       25.984      741.115     1372.034      675.183        0.196        0.139       17.001       25.787        2.301      335.925        6.882      866.132
11/18/2014  13:25:00       15.337       37.317       32.202       21.738       27.691       24.077      472.557      766.776      579.679        0.224        0.091       40.346       16.405        0.165      336.043        7.080      866.125
11/18/2014  13:26:00       31.097       37.881       14.157       50.192       29.367       24.648     2519.224      862.446      607.536        0.330        0.199       49.010       21.337        0.190      335.961        6.942      866.113
11/18/2014  13:27:00       33.921       35.441       24.124       53.194       36.495       23.854     2829.645     1331.864      568.992        0.386        0.237       49.058       26.201        0.285      336.057        7.104      866.098
11/18/2014  13:28:00       89.131       50.859        3.565       18.164       18.267       20.395      329.921      333.670      415.948        0.581        0.054      102.620       10.594        0.011      335.658        6.441      866.097
11/18/2014  13:29:00       92.391       43.278        5.137       24.010       16.797       20.245      576.491      282.138      409.847        0.585        0.063      102.025        8.571        0.007      335.655        6.435      866.095
11/18/2014  13:30:00       39.757       43.897       -1.739       22.783       21.199       16.408      519.052      449.413      269.212        0.237        0.062       59.224        8.796        0.022      335.692        6.496      866.084
11/18/2014  13:31:00       46.538       59.143       -5.589       30.448       18.970       19.671      927.063      359.872      386.963        0.368        0.084       75.257       12.856        0.029      335.701        6.510      866.079
11/18/2014  13:32:00       52.831       58.018        1.868       42.757       25.638       23.084     1828.197      657.320      532.874        0.459        0.151       78.468       18.438        0.055      335.746        6.586      866.082
11/18/2014  13:33:00       60.176       43.743        4.441       29.814       30.402       19.621      888.896      924.289      384.981        0.388        0.110       74.395       14.162        0.036      335.758        6.606      866.087
11/18/2014  13:34:00       61.436       56.672       17.447       16.648       18.981       20.324      277.151      360.268      413.070        0.417        0.053       83.583        7.329        0.008      335.724        6.549      866.108
11/18/2014  13:35:00       19.341       26.146       -1.403       17.615       16.974       10.449      310.284      288.110      109.172        0.088        0.035       32.522       11.212        0.119      335.741        6.579      866.114
11/18/2014  13:36:00       72.500       50.195       16.565       18.513       17.158       21.859      342.737      294.397      477.828        0.458        0.056       88.180        9.406        0.011      335.766        6.619      866.109
11/18/2014  13:37:00       50.283       44.346       27.226       34.719       23.762       29.036     1205.433      564.619      843.071        0.392        0.131       67.044       21.545        0.103      335.888        6.819      866.093
11/18/2014  13:38:00       78.040       58.363       11.847       27.817       22.133       27.227      773.803      489.862      741.295        0.582        0.100       97.450       14.320        0.022      335.804        6.683      866.068
11/18/2014  13:39:00      106.323       63.314       12.407       19.796       18.837       19.997      391.869      354.824      399.885        0.831        0.057      123.747        3.838        0.001      335.788        6.655      866.050
11/18/2014  13:40:00       75.054       48.521        7.282       35.923       29.379       21.209     1290.489      863.142      449.808        0.532        0.130       89.372       17.748        0.039      335.799        6.673      866.034
11/18/2014  13:41:00       37.480       48.412        0.214        9.924       12.132       11.333       98.493      147.192      128.428        0.206        0.019       61.224        6.126        0.010      335.788        6.657      866.023
11/18/2014  13:42:00       14.948       29.030       -2.776       10.989        8.451       14.501      120.759       71.419      210.288        0.074        0.020       32.653        5.759        0.031      335.839        6.741      866.026
11/18/2014  13:43:00       12.076       14.774       -5.266        5.466        9.981        4.021       29.881       99.616       16.166        0.027        0.007       19.081        4.598        0.058      335.811        6.691      866.030
11/18/2014  13:44:00       18.661       15.284       -8.472        9.402       13.506        5.125       88.402      182.416       26.262        0.048        0.015       24.121        5.349        0.049      335.847        6.753      866.024
11/18/2014  13:45:00       31.546       26.459       11.715       13.939       17.883       13.174      194.288      319.797      173.562        0.126        0.034       41.173       11.085        0.072      335.875        6.800      866.010
11/18/2014  13:46:00       31.296       58.751       59.587       37.858       30.999       26.099     1433.200      960.951      681.165        0.553        0.154       66.567       21.081        0.100      336.059        7.107      866.002
11/18/2014  13:47:00       26.423       41.248       46.003       34.001       33.017       25.076     1156.039     1090.141      628.822        0.369        0.144       48.985       19.908        0.165      336.072        7.129      866.013
11/18/2014  13:48:00       34.918       -2.931       23.895       22.309       39.253       23.135      497.712     1540.821      535.220        0.219        0.129       35.041       26.654        0.579      336.010        7.026      866.031
11/18/2014  13:49:00       97.731       63.539       19.929       46.298       28.948       36.911     2143.498      837.999     1362.458        0.916        0.217      116.569       34.224        0.086      335.973        6.962      866.033
11/18/2014  13:50:00       23.615       40.746       34.455       35.801       28.454       25.897     1281.738      809.636      670.651        0.308        0.138       47.094       20.830        0.196      336.002        7.009      866.026
11/18/2014  13:51:00      111.935       61.192       26.083       43.130       26.715       35.301     1860.193      713.694     1246.130        1.039        0.191      127.569       24.109        0.036      335.965        6.950      866.013
11/18/2014  13:52:00       83.129       52.453       24.240       38.327       37.004       33.738     1468.968     1369.278     1138.225        0.711        0.199       98.294       25.701        0.068      335.935        6.898      866.006
11/18/2014  13:53:00       47.045        6.653       15.249       36.787       41.654       25.175     1353.287     1735.080      633.773        0.311        0.186       47.513       21.844        0.211      335.996        7.001      865.993
11/18/2014  13:54:00      110.940       59.115       16.511       36.921       25.871       27.201     1363.134      669.320      739.919        0.942        0.139      125.707       22.888        0.033      335.946        6.917      865.972
11/18/2014  13:55:00       98.389       64.194        5.829       36.384       21.870       25.208     1323.823      478.304      635.451        0.814        0.122      117.479       18.538        0.025      335.924        6.883      865.955
11/18/2014  13:56:00      109.077       46.111        7.892       57.081       38.616       29.143     3258.275     1491.194      849.299        0.984        0.280      118.423       25.713        0.047      335.968        6.954      865.932
11/18/2014  13:57:00       85.805       54.831       -2.927       34.977       33.158       22.753     1223.398     1099.429      517.713        0.661        0.142      101.828       10.805        0.011      336.013        7.029      865.921
11/18/2014  13:58:00       74.062       38.185        0.998       35.047       46.550       25.020     1228.296     2166.919      626.000        0.548        0.201       83.326       13.226        0.025      336.065        7.117      865.914
11/18/2014  13:59:00       26.130       55.900        2.095       28.279       42.608       23.424      799.691     1815.415      548.683        0.349        0.158       61.705       24.187        0.154      336.153        7.262      865.900
11/18/2014  14:00:00       28.730       57.577       -3.854       19.294       35.401       17.413      372.268     1253.202      303.202        0.304        0.096       64.347       18.647        0.084      336.089        7.156      865.881
11/18/2014  14:01:00       20.758       27.635       16.148       39.040       19.597       18.121     1524.132      384.054      328.375        0.185        0.112       34.563       18.501        0.287      336.278        7.471      865.865
11/18/2014  14:02:00       52.963       24.781        7.473       35.192       28.700       18.939     1238.492      823.704      358.671        0.295        0.121       58.473       16.214        0.077      336.186        7.318      865.841
11/18/2014  14:03:00       69.671       63.225       11.365       35.473       36.856       26.742     1258.329     1358.367      715.138        0.616        0.167       94.082       19.421        0.043      336.271        7.460      865.807
11/18/2014  14:04:00       80.100       83.219        5.323       30.370       31.456       27.898      922.351      989.470      778.315        0.803        0.135      115.505       20.899        0.033      336.162        7.278      865.775
11/18/2014  14:05:00       45.334       68.631       -3.202       32.762       46.573       30.377     1073.357     2169.021      922.738        0.547        0.208       82.252       24.806        0.091      336.187        7.319      865.762
11/18/2014  14:06:00       66.322       19.641        0.983       24.757       60.597       25.992      612.900     3671.985      675.587        0.487        0.248       69.169       10.362        0.022      336.140        7.242      865.769
11/18/2014  14:07:00      -12.549       32.491      -17.265       34.567       39.158       26.152     1194.870     1533.329      683.906        0.246        0.171       34.831       27.713        0.633      336.336        7.569      865.762
11/18/2014  14:08:00       43.476       50.739       10.587       43.356       34.933       36.081     1879.762     1220.322     1301.811        0.449        0.220       66.818       35.089        0.276      336.331        7.561      865.759
11/18/2014  14:09:00       -9.932       42.131       -3.856       19.627       21.944       17.146      385.210      481.542      293.980        0.152        0.058       43.286       14.581        0.113      336.395        7.669      865.768
11/18/2014  14:10:00       51.161       43.381        7.120       75.253       34.332       30.546     5663.056     1178.676      933.038        0.616        0.389       67.077       28.760        0.184      336.437        7.738      865.786
11/18/2014  14:11:00      105.748       74.856       28.633       44.474       35.232       35.443     1977.894     1241.291     1256.215        1.104        0.224      129.561       17.240        0.018      336.420        7.709      865.807
11/18/2014  14:12:00       82.119       79.911       23.916       36.452       30.794       31.148     1328.761      948.273      970.208        0.847        0.162      114.583       17.797        0.024      336.335        7.568      865.826
11/18/2014  14:13:00       46.325       38.408        3.118       39.163       31.124       24.259     1533.731      968.673      588.486        0.336        0.155       60.176       18.515        0.095      336.528        7.890      865.836
11/18/2014  14:14:00       32.971        4.467       11.665       40.391       43.114       30.276     1631.458     1858.814      916.661        0.282        0.220       33.272       20.741        0.389      336.732        8.231      865.821
11/18/2014  14:15:00      -22.458        7.006       22.408       26.625       36.378       32.524      708.912     1323.329     1057.817        0.207        0.155       23.525       18.617        0.626      336.993        8.668      865.797
11/18/2014  14:16:00        1.538      -20.489       27.625       36.077       27.225       21.650     1301.518      741.175      468.721        0.185        0.126       20.546       16.766        0.666      336.995        8.671      865.788
11/18/2014  14:17:00       37.000      -57.578        4.695       21.259       25.448       24.078      451.936      647.593      579.738        0.319        0.084       68.441       17.000        0.062      336.571        7.962      865.784
11/18/2014  14:18:00        1.089       16.583       21.419       16.610       16.313       17.261      275.877      266.126      297.929        0.079        0.042       16.619        9.615        0.335      336.997        8.675      865.760
11/18/2014  14:19:00       12.040        3.539       27.711       21.515       33.204       20.581      462.889     1102.509      423.581        0.146        0.099       12.550       15.652        1.556      336.996        8.673      865.758
11/18/2014  14:20:00       28.318       68.989       95.619       66.106       69.221       48.438     4370.051     4791.501     2346.253        1.310        0.575       74.575       46.539        0.389      336.904        8.518      865.730
11/18/2014  14:21:00      123.581       91.197       61.110       58.864       45.448       40.826     3464.992     2065.524     1666.764        1.726        0.360      153.588       33.327        0.047      336.474        7.800      865.712
11/18/2014  14:22:00       13.417       81.252       69.365       39.963       44.900       40.964     1597.007     2016.049     1678.089        0.844        0.265       82.353       24.539        0.089      336.800        8.346      865.686
11/18/2014  14:23:00       96.811       63.263        4.473       37.280       40.530       41.309     1389.822     1642.670     1706.464        0.907        0.237      115.649       15.184        0.017      336.553        7.933      865.665
11/18/2014  14:24:00       44.753       32.203       10.846       28.255       20.138       21.935      798.333      405.525      481.127        0.242        0.084       55.135       11.810        0.046      336.529        7.892      865.659
11/18/2014  14:25:00       11.087        9.824        5.187       28.535       26.878       20.629      814.241      722.428      425.562        0.110        0.098       14.813       16.845        1.293      336.735        8.237      865.665
11/18/2014  14:26:00       -1.138       41.038       -3.215       12.280       19.661       15.397      150.805      386.574      237.079        0.123        0.039       41.054       10.826        0.070      336.763        8.284      865.687
11/18/2014  14:27:00       22.427       18.302       -8.306       16.521       21.314       18.350      272.941      454.304      336.715        0.099        0.053       28.947       15.866        0.300      336.763        8.283      865.709
11/18/2014  14:28:00       82.998       73.953       31.075       30.629       30.528       25.534      938.110      931.962      651.975        0.792        0.126      111.166        7.490        0.005      336.781        8.313      865.715
11/18/2014  14:29:00      116.671       87.616        4.137       53.754       36.556       39.395     2889.523     1336.358     1551.996        1.354        0.289      145.906       24.991        0.029      336.608        8.025      865.718
11/18/2014  14:30:00       99.032       80.431       14.763       38.012       33.643       30.523     1444.932     1131.827      931.671        1.000        0.175      127.579       18.605        0.021      336.635        8.070      865.717
11/18/2014  14:31:00      122.409       90.082       22.324       43.616       28.882       26.758     1902.365      834.159      716.016        1.352        0.173      151.983       11.420        0.006      336.748        8.258      865.706
11/18/2014  14:32:00       97.671       58.416        9.643       49.315       40.074       34.751     2431.970     1605.934     1207.627        0.914        0.262      113.807        8.643        0.006      336.706        8.189      865.724
11/18/2014  14:33:00       67.055       55.134        6.870       29.960       28.297       26.007      897.621      800.711      676.340        0.498        0.119       86.811       22.171        0.065      336.778        8.308      865.729
11/18/2014  14:34:00       22.756       62.620        8.483       26.062       26.730       23.388      679.203      714.498      547.001        0.323        0.097       66.627       11.106        0.028      336.801        8.347      865.734
11/18/2014  14:35:00       22.347        5.590       20.903       28.318       27.113       28.538      801.922      735.111      814.409        0.166        0.118       23.036       16.593        0.519      337.112        8.864      865.752
11/18/2014  14:36:00       48.448       50.686       61.127       53.790       47.468       40.846     2893.386     2253.167     1668.403        0.773        0.341       70.116       34.008        0.235      336.937        8.573      865.742
11/18/2014  14:37:00       67.336       47.957       45.852       65.266       44.035       52.587     4259.657     1939.071     2765.426        0.895        0.448       82.668       48.590        0.345      336.840        8.412      865.750
11/18/2014  14:38:00       97.680       56.519       17.111       52.184       34.478       34.216     2723.216     1188.714     1170.738        0.905        0.254      112.853       22.036        0.038      336.799        8.343      865.744
11/18/2014  14:39:00       58.931       31.718        5.050       39.299       31.464       23.479     1544.401      989.977      551.266        0.379        0.154       66.925       16.173        0.058      336.862        8.449      865.729
11/18/2014  14:40:00      107.228       68.641        8.812       30.182       24.736       31.293      910.944      611.846      979.274        0.939        0.125      127.316       13.612        0.011      336.719        8.210      865.715
11/18/2014  14:41:00       79.991       74.359       13.760       43.581       27.462       23.097     1899.276      754.189      533.467        0.765        0.159      109.215       15.807        0.021      336.685        8.154      865.699
11/18/2014  14:42:00       87.430       50.013       29.371       41.129       42.132       35.990     1691.629     1775.098     1295.280        0.788        0.238      100.723       27.411        0.074      336.792        8.331      865.675
11/18/2014  14:43:00       67.546       62.117       26.313       65.899       36.449       39.157     4342.695     1328.532     1533.295        0.816        0.360       91.766       30.646        0.112      336.992        8.665      865.673
11/18/2014  14:44:00       51.830       55.905       37.644       31.306       36.320       34.527      980.072     1319.157     1192.115        0.536        0.175       76.235       29.619        0.151      336.866        8.456      865.687
11/18/2014  14:45:00       65.860       56.332       17.414       34.364       28.778       25.884     1180.900      828.175      669.976        0.525        0.134       86.665       17.215        0.039      336.890        8.495      865.680
11/18/2014  14:46:00       57.703       39.040        0.641       36.424       37.165       26.265     1326.703     1381.263      689.873        0.413        0.170       69.669       14.617        0.044      336.793        8.334      865.665
11/18/2014  14:47:00       52.004       15.853       24.816       49.711       31.853       24.358     2471.143     1014.633      593.298        0.382        0.204       54.366       27.021        0.247      336.959        8.612      865.642
11/18/2014  14:48:00       60.003       53.109       23.663       47.936       41.008       31.923     2297.814     1681.682     1019.074        0.599        0.250       80.130       17.708        0.049      336.937        8.572      865.621
11/18/2014  14:49:00       62.829       75.052       56.065       54.596       59.233       46.199     2980.732     3508.581     2134.368        1.067        0.431       97.879       34.691        0.126      336.914        8.535      865.606
11/18/2014  14:50:00       93.246       66.004       45.861       48.889       44.593       52.191     2390.171     1988.495     2723.868        1.113        0.355      114.243       36.023        0.099      336.923        8.550      865.602
11/18/2014  14:51:00      107.522       77.079        4.841       32.444       32.742       30.429     1052.599     1072.057      925.943        1.029        0.153      132.296       23.568        0.032      336.752        8.266      865.615
11/18/2014  14:52:00       97.765       64.806        5.665       26.911       24.485       23.726      724.213      599.502      562.901        0.784        0.094      117.294       12.804        0.012      336.776        8.306      865.621
11/18/2014  14:53:00       87.429       25.348       16.241       36.198       42.435       25.519     1310.279     1800.744      651.199        0.616        0.188       91.029       19.989        0.048      336.760        8.282      865.621
11/18/2014  14:54:00       64.458       19.541       27.863       40.525       20.774       18.577     1642.290      431.562      345.121        0.387        0.121       67.355       21.221        0.099      336.809        8.361      865.604
11/18/2014  14:55:00       51.348       43.974       18.513       26.524       15.795       17.636      703.514      249.473      311.035        0.309        0.063       67.605       13.034        0.037      336.841        8.413      865.580
11/18/2014  14:56:00       61.988       38.136       21.798       24.685       15.154       18.456      609.341      229.646      340.614        0.348        0.059       72.779        7.999        0.012      336.849        8.426      865.552
11/18/2014  14:57:00       56.516       44.886       38.081       50.766       24.996       20.902     2577.211      624.807      436.902        0.515        0.182       72.172       13.501        0.035      336.941        8.579      865.536
11/18/2014  14:58:00      149.186       66.027        6.032       38.076       26.475       29.812     1449.797      700.911      888.755        1.485        0.152      163.144       18.842        0.013      336.861        8.444      865.538
11/18/2014  14:59:00       46.440       34.367       12.036       35.364       31.873       25.597     1250.579     1015.902      655.222        0.320        0.146       57.773       20.782        0.129      336.930        8.562      865.553
11/18/2014  15:00:00       54.965        6.896       15.672       42.072       36.375       24.729     1770.029     1323.113      611.521        0.351        0.185       55.396       23.582        0.181      336.986        8.653      865.579
11/18/2014  15:01:00       87.055       53.877       22.337       44.716       31.269       33.884     1999.478      977.745     1148.121        0.755        0.206      102.378       25.887        0.064      336.928        8.559      865.608
11/18/2014  15:02:00       91.469       35.855       -3.456       26.280       25.052       24.487      690.624      627.580      599.638        0.579        0.096       98.245        9.907        0.010      336.887        8.488      865.619
11/18/2014  15:03:00       86.724       54.108        6.344       25.729       17.519       20.545      661.958      306.919      422.104        0.594        0.070      102.219       13.208        0.017      336.907        8.524      865.618
11/18/2014  15:04:00        9.239       27.409       -8.307       19.416       15.135        9.003      376.979      229.071       81.059        0.080        0.034       28.924        9.582        0.110      336.951        8.596      865.616
11/18/2014  15:05:00       45.899       35.665        8.996       29.036       20.061       23.028      843.075      402.456      530.310        0.262        0.089       58.127       19.524        0.113      336.984        8.652      865.615
11/18/2014  15:06:00       24.995        3.389       28.687       31.720       39.589       27.305     1006.165     1567.292      745.568        0.239        0.166       25.223       25.261        1.003      337.018        8.708      865.618
11/18/2014  15:07:00       37.577       30.032       13.223       29.670       39.783       22.063      880.324     1582.693      486.791        0.272        0.147       48.104       15.359        0.102      336.989        8.660      865.602
11/18/2014  15:08:00       39.818       44.870       34.078       33.621       35.127       23.058     1130.401     1233.933      531.668        0.383        0.145       59.989       11.715        0.038      336.980        8.645      865.579
11/18/2014  15:09:00       61.174       39.274       27.696       41.142       31.274       23.633     1692.701      978.067      558.514        0.464        0.161       72.696       15.149        0.043      336.985        8.652      865.550
11/18/2014  15:10:00       91.886       53.356       36.525       43.757       26.849       29.137     1914.701      720.862      848.983        0.805        0.174      106.254       24.121        0.052      336.945        8.587      865.522
11/18/2014  15:11:00       81.053       56.431       33.795       48.531       27.586       31.308     2355.292      760.985      980.177        0.750        0.205       98.762       27.425        0.077      337.026        8.722      865.492
11/18/2014  15:12:00       89.270       78.213       40.906       36.363       36.380       34.692     1322.271     1323.529     1203.535        0.980        0.192      118.686       19.639        0.027      337.001        8.681      865.480
11/18/2014  15:13:00       77.459       59.863       42.812       36.861       35.146       32.202     1358.715     1235.209     1036.989        0.752        0.182       97.895       16.743        0.029      336.988        8.657      865.490
11/18/2014  15:14:00       15.065       38.017       57.504       28.231       33.279       31.607      796.993     1107.496      998.976        0.394        0.145       40.893       29.196        0.510      337.020        8.710      865.487
11/18/2014  15:15:00       51.313       49.422       29.360       33.305       30.874       29.629     1109.201      953.213      877.855        0.444        0.147       71.243       22.280        0.098      337.004        8.684      865.468
11/18/2014  15:16:00       14.862       38.096       21.446       43.387       23.005       23.069     1882.472      529.246      532.192        0.254        0.147       40.892       14.793        0.131      337.021        8.713      865.447
11/18/2014  15:17:00       58.010       50.609       17.073       31.415       23.412       20.115      986.882      548.125      404.633        0.408        0.097       76.983        8.821        0.013      336.933        8.567      865.438
11/18/2014  15:18:00       88.393       48.918       27.201       45.365       31.730       29.494     2058.002     1006.770      869.871        0.744        0.197      101.026       21.225        0.044      336.954        8.602      865.442
11/18/2014  15:19:00       49.866       17.116        5.613       40.397       23.873       20.064     1631.912      569.911      402.566        0.271        0.130       52.722       12.452        0.056      336.996        8.671      865.479
11/18/2014  15:20:00        3.912       -3.092        0.939       15.160       16.405       15.963      229.824      269.130      254.823        0.039        0.038        4.987       12.307        6.091      337.108        8.859      865.521
11/18/2014  15:21:00       61.837       -2.957       -1.124       35.113       19.949       27.817     1232.943      397.953      773.810        0.312        0.120       61.907       25.706        0.172      336.993        8.665      865.556
11/18/2014  15:22:00       70.166       18.234       22.226       20.780       30.638       22.445      431.812      938.678      503.788        0.381        0.094       72.496       18.612        0.066      336.977        8.639      865.566
11/18/2014  15:23:00       48.517       13.091       10.909       22.119       31.985       15.100      489.261     1023.067      228.023        0.219        0.087       50.252        7.914        0.025      337.000        8.677      865.564
11/18/2014  15:24:00       41.337       20.453       11.654       27.829       18.064       17.872      774.476      326.323      319.418        0.184        0.071       46.120       15.293        0.110      337.012        8.697      865.556
11/18/2014  15:25:00        1.995        9.285       24.747       14.107       20.591       21.521      199.011      424.008      463.174        0.089        0.054        9.497       17.201        3.280      337.119        8.878      865.547
11/18/2014  15:26:00       36.353       39.691       28.216       30.728       17.351       24.761      944.186      301.046      613.085        0.278        0.093       53.823       20.683        0.148      337.049        8.760      865.542
11/18/2014  15:27:00       29.424       16.658       19.842       14.549       18.836       16.362      211.673      354.780      267.725        0.119        0.042       33.812       13.498        0.159      337.024        8.719      865.532
11/18/2014  15:28:00       59.752       22.453       -5.329       18.438       19.243       15.708      339.967      370.282      246.743        0.253        0.048       63.832        7.687        0.015      336.991        8.664      865.517
11/18/2014  15:29:00       33.704       35.568       -0.125       13.179       18.475       16.820      173.697      341.326      282.922        0.160        0.040       49.000       14.241        0.084      336.993        8.665      865.502
11/18/2014  15:30:00       39.334       23.162        7.200       13.923       10.574       11.559      193.838      111.801      133.605        0.129        0.022       45.647        7.852        0.030      336.960        8.613      865.480
11/18/2014  15:31:00       32.104       15.158       -0.579       18.899       16.002        6.515      357.177      256.059       42.444        0.096        0.033       35.503        5.528        0.024      336.967        8.622      865.462
11/18/2014  15:32:00       23.149       21.196       10.486       14.452       18.648       13.980      208.855      347.747      195.431        0.092        0.038       31.387       14.107        0.202      336.999        8.675      865.459
11/18/2014  15:33:00       41.534       51.759       49.957       29.163       23.659       19.742      850.460      559.760      389.758        0.435        0.090       66.363       10.117        0.023      337.011        8.695      865.455
11/18/2014  15:34:00       22.872       35.410       34.991       19.545       14.151       18.631      382.017      200.237      347.127        0.197        0.046       42.155        8.886        0.044      337.037        8.739      865.456
11/18/2014  15:35:00       43.246       38.453       22.330       24.831       19.222       21.284      616.557      369.467      453.020        0.264        0.072       57.870       19.966        0.119      337.010        8.694      865.465
11/18/2014  15:36:00       33.132        5.447        8.981       10.120       28.165        9.766      102.416      793.278       95.378        0.110        0.050       33.577        9.098        0.073      337.008        8.689      865.481
11/18/2014  15:37:00       19.658       -6.953        5.302       14.243       13.495       10.524      202.865      182.113      110.760        0.048        0.025       20.851       10.899        0.273      337.054        8.765      865.496
11/18/2014  15:38:00       49.255       30.699       15.077       10.345       10.182       10.049      107.029      103.666      100.990        0.195        0.016       58.039        6.682        0.013      337.034        8.735      865.508
11/18/2014  15:39:00       60.910       31.262       11.926       17.455       12.347       13.592      304.691      152.437      184.746        0.274        0.032       68.464        6.187        0.008      337.021        8.712      865.518
11/18/2014  15:40:00       44.104       35.873       13.093       12.365        9.883       13.872      152.884       97.680      192.439        0.192        0.022       56.851        4.322        0.006      337.025        8.716      865.519
11/18/2014  15:41:00       26.634       16.658        1.591       15.190        9.785       14.782      230.732       95.738      218.508        0.077        0.027       31.414       11.695        0.139      337.023        8.716      865.515
11/18/2014  15:42:00       -8.740       16.082       -5.859        6.400        7.356        4.030       40.960       54.111       16.239        0.024        0.006       18.304        3.169        0.030      337.029        8.728      865.509
11/18/2014  15:43:00       -4.981       -1.313       -1.453        5.740        4.120        5.228       32.947       16.976       27.330        0.005        0.004        5.151        4.866        0.892      337.134        8.901      865.503
11/18/2014  15:44:00       18.077        1.366        4.990       15.490        6.895        8.005      239.930       47.546       64.085        0.035        0.018       18.128        3.727        0.042      337.044        8.749      865.503
11/18/2014  15:45:00       15.934       -0.224       -0.645       11.930       14.170       12.330      142.331      200.792      152.027        0.037        0.025       15.935        8.900        0.312      337.067        8.790      865.516
11/18/2014  15:46:00       25.310       -2.020        2.862       18.478        7.357        6.519      341.424       54.132       42.495        0.055        0.022       25.391        4.512        0.032      337.064        8.786      865.524
11/18/2014  15:47:00       29.941       -2.399        3.950       10.348        8.480        8.618      107.089       71.910       74.262        0.059        0.013       30.036        7.039        0.055      337.057        8.773      865.531
11/18/2014  15:48:00       37.567       38.506       18.992       12.879       12.860       16.490      165.867      165.391      271.905        0.193        0.030       53.796        7.724        0.021      337.077        8.806      865.533
11/18/2014  15:49:00       49.410       17.431        9.355       13.840       17.429       13.220      191.549      303.755      174.779        0.175        0.034       52.395        6.960        0.018      337.053        8.766      865.529
11/18/2014  15:50:00       16.945        9.510        9.741       11.208       10.744       12.394      125.624      115.431      153.600        0.043        0.020       19.431       10.346        0.284      337.083        8.817      865.520
11/18/2014  15:51:00       14.933        8.600        6.565       19.961        9.914       16.735      398.460       98.285      280.066        0.056        0.039       17.232        7.321        0.180      337.115        8.870      865.508
11/18/2014  15:52:00       17.884       14.619        9.862       22.661       16.620        7.989      513.504      276.222       63.832        0.074        0.043       23.099        5.413        0.055      337.133        8.900      865.503
11/18/2014  15:53:00       45.055       29.081        6.177       11.573        9.176        7.938      133.930       84.199       63.012        0.160        0.014       53.625        6.611        0.015      337.081        8.811      865.502
11/18/2014  15:54:00       21.364       33.491       -0.421       12.092       11.263        6.225      146.228      126.863       38.749        0.094        0.016       39.725        6.317        0.025      337.070        8.795      865.502
11/18/2014  15:55:00       23.426       18.293       -5.186        9.034       11.979       11.483       81.609      143.497      131.848        0.063        0.018       29.722        8.504        0.082      337.094        8.837      865.498
11/18/2014  15:56:00       26.679       13.336       -4.546        9.463        9.082        9.348       89.553       82.491       87.392        0.058        0.013       29.827        6.671        0.050      337.095        8.836      865.488
11/18/2014  15:57:00       52.322       50.419        5.109       19.768       14.824       13.985      390.779      219.742      195.575        0.306        0.040       72.661        7.893        0.012      337.127        8.892      865.471
11/18/2014  15:58:00       51.361       52.092       -9.332       24.126       23.516       13.732      582.074      553.010      188.563        0.338        0.066       73.154       11.240        0.024      337.095        8.838      865.465
11/18/2014  15:59:00       36.640       28.136       -0.237       26.138       17.520       14.279      683.208      306.934      203.885        0.166        0.060       46.196       11.464        0.062      337.082        8.815      865.465
11/18/2014  16:00:00       90.769       41.677       -0.152       25.315       21.187       21.634      640.844      448.895      468.012        0.577        0.078       99.880       16.002        0.026      337.075        8.804      865.458
11/18/2014  16:01:00       76.559       41.098        9.040       26.855       23.905       16.962      721.167      571.446      287.715        0.461        0.079       86.893       12.876        0.022      337.056        8.771      865.460
11/18/2014  16:02:00       87.736       38.659       10.846       12.831       12.127       14.532      164.641      147.072      211.190        0.492        0.026       95.876        8.768        0.008      337.043        8.751      865.466
11/18/2014  16:03:00       72.540       46.422        9.623       14.235       15.840       13.941      202.633      250.903      194.347        0.408        0.032       86.123        6.804        0.006      337.064        8.785      865.470
11/18/2014  16:04:00       80.504       45.678       17.369       13.696       14.658       14.599      187.575      214.869      213.121        0.474        0.031       92.560       10.476        0.013      337.041        8.747      865.456
11/18/2014  16:05:00       78.387       49.085       10.411       15.307       14.144       12.738      234.295      200.059      162.250        0.463        0.030       92.487        6.221        0.005      337.055        8.770      865.436
11/18/2014  16:06:00       91.946       59.732       11.644       25.775       18.806       16.306      664.356      353.678      265.894        0.672        0.064      109.645       14.773        0.018      337.024        8.718      865.410
11/18/2014  16:07:00       94.678       50.574       11.936       35.834       23.764       20.158     1284.066      564.748      406.331        0.696        0.113      107.339       11.377        0.011      337.043        8.751      865.382
11/18/2014  16:08:00       74.315       62.697       36.834       25.835       16.700       22.206      667.423      278.897      493.090        0.612        0.072       97.229       14.098        0.021      337.054        8.767      865.357
11/18/2014  16:09:00       60.542       32.505       27.905       35.218       19.065       24.281     1240.340      363.456      589.588        0.385        0.110       68.716       15.536        0.051      337.059        8.777      865.347
11/18/2014  16:10:00       40.782       23.879       10.490       29.811       18.570       27.559      888.724      344.840      759.484        0.217        0.100       47.259       23.389        0.245      337.069        8.792      865.356
11/18/2014  16:11:00       38.309       38.541        4.626       19.469       22.084       21.161      379.061      487.690      447.782        0.214        0.066       54.342       13.659        0.063      337.059        8.776      865.360
11/18/2014  16:12:00       65.199       35.774       11.952       25.419       13.900       20.853      646.135      193.216      434.861        0.347        0.064       74.369        7.645        0.011      337.064        8.784      865.360
11/18/2014  16:13:00       83.271       21.373       13.270       14.866       19.148       15.752      220.997      366.657      248.127        0.420        0.042       85.970       11.086        0.017      337.080        8.811      865.354
11/18/2014  16:14:00       71.189       35.506       16.298       18.196       15.949       16.655      331.110      254.368      277.399        0.373        0.043       79.552       13.719        0.030      337.053        8.764      865.348
11/18/2014  16:15:00       34.112       51.211       48.092       26.136       27.647       26.950      683.099      764.347      726.277        0.414        0.109       61.532       24.585        0.160      337.038        8.742      865.338
11/18/2014  16:16:00       77.177       69.961       37.438       31.231       22.853       31.381      975.372      522.254      984.795        0.737        0.124      104.167       17.221        0.027      337.080        8.812      865.339
11/18/2014  16:17:00       64.421       41.861       52.465       40.837       34.196       27.980     1667.677     1169.345      782.892        0.614        0.181       76.827       20.396        0.070      337.076        8.804      865.338
11/18/2014  16:18:00       67.305       30.578       45.340       59.770       42.515       38.540     3572.503     1807.536     1485.310        0.719        0.343       73.926       34.128        0.213      337.036        8.736      865.330
11/18/2014  16:19:00       56.563       45.803       36.562       49.324       33.714       33.696     2432.814     1136.626     1135.440        0.567        0.235       72.782       29.290        0.162      337.050        8.761      865.328
11/18/2014  16:20:00       19.522       56.274       62.403       28.170       27.653       28.183      793.553      764.663      794.302        0.490        0.118       59.564       25.554        0.184      337.109        8.861      865.334
11/18/2014  16:21:00       12.533       26.036       49.579       25.085       32.179       20.871      629.249     1035.491      435.588        0.270        0.105       28.895       17.612        0.372      337.149        8.928      865.344
11/18/2014  16:22:00       11.221       12.946       31.920       15.952       21.059       13.534      254.458      443.464      183.176        0.110        0.044       17.132        9.973        0.339      337.077        8.806      865.335
11/18/2014  16:23:00       37.949       38.519       35.456       26.069       21.366       15.778      679.583      456.505      248.952        0.278        0.069       54.073       13.091        0.059      337.030        8.727      865.325
11/18/2014  16:24:00       25.615       25.867       44.501       23.276       25.149       14.262      541.752      632.451      203.393        0.234        0.069       36.404       13.584        0.139      336.969        8.625      865.327
11/18/2014  16:25:00       48.379       44.102       36.230       20.133       17.762       20.069      405.341      315.503      402.749        0.336        0.056       65.464       14.322        0.048      337.001        8.679      865.315
11/18/2014  16:26:00       40.087       43.973       36.886       20.767       17.090       19.367      431.279      292.073      375.065        0.300        0.055       59.503        5.078        0.007      337.007        8.689      865.313
11/18/2014  16:27:00       42.422       22.733       21.568       22.206       19.321       16.534      493.106      373.292      273.362        0.196        0.057       48.129        9.886        0.042      336.942        8.581      865.315
11/18/2014  16:28:00       70.342       43.565       38.319       24.499       28.388       21.976      600.208      805.862      482.938        0.510        0.094       82.740        8.724        0.011      336.972        8.631      865.325
11/18/2014  16:29:00       83.407       15.091       26.777       35.349       33.383       30.667     1249.563     1114.393      940.490        0.560        0.165       84.761       26.328        0.096      336.965        8.619      865.330
11/18/2014  16:30:00       52.027        9.991       16.177       45.023       24.314       27.120     2027.055      591.191      735.500        0.321        0.168       52.977       20.307        0.147      336.958        8.607      865.340
11/18/2014  16:31:00       53.786       22.235       40.405       24.514       22.592       19.746      600.950      510.417      389.920        0.326        0.075       58.201        9.491        0.027      336.914        8.534      865.345
11/18/2014  16:32:00       65.328       25.024       38.025       40.434       26.032       28.507     1634.905      677.675      812.642        0.473        0.156       69.957       19.058        0.074      336.943        8.582      865.336
11/18/2014  16:33:00       65.029       15.753       29.761       23.658       17.001       23.131      559.694      289.040      535.058        0.337        0.069       66.910       15.795        0.056      336.911        8.530      865.356
11/18/2014  16:34:00       49.967       18.399       22.577       24.154       22.256       19.004      583.426      495.348      361.151        0.239        0.072       53.247       11.183        0.044      336.903        8.517      865.355
11/18/2014  16:35:00       63.465        9.646       17.433       22.419       18.370       19.790      502.596      337.453      391.646        0.283        0.062       64.194       15.531        0.059      336.951        8.596      865.353
11/18/2014  16:36:00       50.663       29.807       33.531       20.731       20.979       20.720      429.775      440.111      429.315        0.294        0.065       58.780       12.017        0.042      336.947        8.589      865.341
11/18/2014  16:37:00       60.004       16.095       21.611       21.710       21.443       18.105      471.318      459.795      327.780        0.279        0.063       62.125       10.897        0.031      336.935        8.570      865.312
11/18/2014  16:38:00       57.629       24.140       14.825       22.730       28.182       17.770      516.660      794.211      315.782        0.287        0.081       62.481        3.835        0.004      336.930        8.562      865.296
11/18/2014  16:39:00       73.174       28.327       24.513       31.324       22.158       26.032      981.177      490.991      677.642        0.445        0.107       78.466       18.598        0.056      336.940        8.578      865.281
11/18/2014  16:40:00       45.606       24.288       28.497       39.188       30.265       25.982     1535.736      915.943      675.054        0.330        0.156       51.670        8.676        0.028      336.902        8.515      865.273
11/18/2014  16:41:00       56.487       38.351       41.727       30.784       31.647       26.447      947.666     1001.550      699.445        0.453        0.132       68.276       24.125        0.125      336.954        8.602      865.284
11/18/2014  16:42:00       39.389       58.332       56.400       36.072       23.727       22.227     1301.158      562.967      494.043        0.525        0.118       70.385       21.946        0.097      336.969        8.627      865.286
11/18/2014  16:43:00       25.093       56.833       68.581       32.322       25.620       26.773     1044.741      656.403      716.770        0.549        0.121       62.126       18.473        0.088      336.989        8.659      865.294
11/18/2014  16:44:00       27.518       57.290       72.095       35.700       33.330       32.331     1274.456     1110.919     1045.263        0.633        0.172       63.556       27.697        0.190      336.937        8.573      865.296
11/18/2014  16:45:00       72.959       21.985       47.736       52.486       32.009       31.786     2754.823     1024.555     1010.332        0.644        0.239       76.199       28.380        0.139      336.887        8.490      865.298
11/18/2014  16:46:00       69.033      -10.400       13.270       35.146       19.170       21.176     1235.274      367.482      448.430        0.355        0.103       69.812       17.441        0.062      336.881        8.480      865.313
11/18/2014  16:47:00       72.893       16.224       34.085       34.598       22.823       22.307     1197.038      520.907      497.610        0.448        0.111       74.677       19.309        0.067      336.868        8.458      865.323
11/18/2014  16:48:00       74.074       -1.577       26.254       38.791       28.275       24.796     1504.709      799.488      614.864        0.455        0.146       74.091       23.599        0.101      336.868        8.457      865.339
11/18/2014  16:49:00       58.761       28.626       29.503       34.553       28.640       29.568     1193.906      820.261      874.286        0.401        0.144       65.363       15.936        0.059      336.840        8.413      865.330
11/18/2014  16:50:00       79.626       29.357       28.216       36.473       22.782       25.902     1330.287      519.021      670.894        0.526        0.126       84.866       22.041        0.067      336.867        8.456      865.330
11/18/2014  16:51:00       84.064       15.329       19.447       43.478       29.863       29.998     1890.346      891.796      899.896        0.568        0.184       85.450       20.228        0.056      336.830        8.396      865.314
11/18/2014  16:52:00       55.951       22.661       24.265       30.792       20.500       23.545      948.158      420.249      554.348        0.308        0.096       60.366       21.472        0.127      336.809        8.360      865.333
11/18/2014  16:53:00       41.339       45.458       30.104       30.041       25.455       29.101      902.440      647.974      846.886        0.354        0.120       61.443       17.988        0.086      336.786        8.324      865.349
11/18/2014  16:54:00       66.180        4.426       20.954       39.329       25.530       23.761     1546.785      651.760      564.576        0.380        0.138       66.327       20.531        0.096      336.845        8.420      865.373
11/18/2014  16:55:00       35.260        9.581       17.882       29.627       17.511       18.784      877.747      306.640      352.821        0.160        0.077       36.538       10.865        0.088      336.846        8.422      865.413
11/18/2014  16:56:00       28.677      -35.401        9.573       34.670       31.201       19.968     1202.033      973.532      398.713        0.237        0.129       45.559       21.027        0.213      336.874        8.468      865.431
11/18/2014  16:57:00       54.283      -78.457       -4.042       26.745       26.404       19.054      715.320      697.149      363.066        0.545        0.089       95.405       14.102        0.022      336.932        8.564      865.445
11/18/2014  16:58:00       58.335      -56.148       -1.568       19.309       24.502       15.089      372.835      600.356      227.673        0.388        0.060       80.967       11.711        0.021      336.899        8.510      865.445
11/18/2014  16:59:00       32.127       12.580       14.035       19.710       24.821       18.149      388.471      616.077      329.398        0.136        0.067       34.502       10.405        0.091      336.836        8.405      865.444
11/18/2014  17:00:00       -0.665       31.693       32.644       12.578       19.350       22.854      158.206      374.439      522.323        0.156        0.053       31.700       16.645        0.276      336.843        8.419      865.437
11/18/2014  17:01:00       16.042       43.123       47.203       21.189       19.071       10.685      448.989      363.689      114.167        0.264        0.046       46.010       10.653        0.054      336.825        8.389      865.427
11/18/2014  17:02:00       42.563       37.780       18.309       22.474       19.384       17.583      505.074      375.743      309.169        0.238        0.059       56.912       14.189        0.062      336.834        8.401      865.438
11/18/2014  17:03:00       27.055       13.414       18.826       14.352       11.216       15.162      205.970      125.788      229.899        0.091        0.028       30.198        9.315        0.095      336.797        8.340      865.441
11/18/2014  17:04:00       54.945       38.088       24.936       16.943       12.594       13.542      287.054      158.603      183.378        0.286        0.031       66.855        9.149        0.019      336.857        8.441      865.441
11/18/2014  17:05:00       39.191       35.912       32.598       10.823       12.991       14.568      117.145      168.765      212.235        0.219        0.025       53.156        9.194        0.030      336.828        8.393      865.442
11/18/2014  17:06:00       40.210       40.995       36.618       11.537       14.199        9.915      133.105      201.601       98.316        0.254        0.022       57.423        6.906        0.014      336.865        8.453      865.420
11/18/2014  17:07:00       48.110       36.424       28.753       20.838       20.652       15.216      434.220      426.490      231.534        0.278        0.055       60.343       11.109        0.034      336.838        8.409      865.422
11/18/2014  17:08:00       18.297       25.482       22.297       18.598       13.960       11.592      345.876      194.874      134.369        0.108        0.034       31.370        7.287        0.054      336.807        8.358      865.418
11/18/2014  17:09:00       13.191        8.372       17.350       16.841       14.011       11.721      283.632      196.301      137.379        0.058        0.031       15.623        9.194        0.346      336.776        8.306      865.426
11/18/2014  17:10:00        0.894        1.908       18.928        9.145       18.923       11.841       83.629      358.081      140.208        0.047        0.029        2.107       10.692       25.761      336.766        8.290      865.453
11/18/2014  17:11:00        5.739      -31.698        2.363       15.442       13.534       14.959      238.464      183.161      223.779        0.084        0.032       32.214       10.493        0.106      336.827        8.391      865.481
11/18/2014  17:12:00      -11.533      -29.552       -5.449       17.484       12.325        9.499      305.677      151.908       90.240        0.079        0.027       31.723        4.567        0.021      336.816        8.372      865.500
11/18/2014  17:13:00      -13.594      -10.708       -3.203       28.395       37.819       15.139      806.289     1430.276      229.198        0.139        0.123       17.305       20.051        1.343      336.902        8.514      865.517
11/18/2014  17:14:00      -67.518       32.013       -7.330       13.188        9.605       11.627      173.912       92.247      135.187        0.302        0.020       74.722        7.195        0.009      336.790        8.329      865.518
11/18/2014  17:15:00      -51.767        1.006       -7.521       11.769       11.851        8.766      138.521      140.435       76.847        0.155        0.018       51.777        8.869        0.029      336.739        8.243      865.505
11/18/2014  17:16:00      -50.304      -22.709       -2.904       11.920        9.978        5.186      142.076       99.553       26.892        0.166        0.013       55.192        4.406        0.006      336.529        7.893      865.492
11/18/2014  17:17:00      -18.023      -26.298        3.100        9.530        7.878        6.475       90.821       62.058       41.926        0.061        0.010       31.881        5.833        0.033      336.592        7.997      865.474
11/18/2014  17:18:00      -19.313        1.308       -2.532       20.213        6.254        6.910      408.573       39.109       47.746        0.044        0.025       19.358        9.219        0.227      336.665        8.120      865.451
11/18/2014  17:19:00       14.578       -2.244        3.339       13.681        9.958        7.636      187.173       99.171       58.308        0.029        0.017       14.749        7.118        0.233      336.741        8.246      865.425
11/18/2014  17:20:00       43.586       27.034        9.731       16.806       14.441       13.783      282.451      208.539      189.980        0.170        0.034       51.289        9.262        0.033      336.608        8.025      865.409
11/18/2014  17:21:00       38.599       31.809       21.195       20.872       18.814       18.194      435.643      353.965      331.021        0.204        0.056       50.017        7.986        0.025      336.700        8.179      865.397
11/18/2014  17:22:00       67.876       30.396       21.533       25.598       19.095       17.275      655.251      364.616      298.421        0.366        0.066       74.371       10.502        0.020      336.734        8.235      865.380
11/18/2014  17:23:00       57.541       17.973       17.792       19.060       19.370       17.626      363.281      375.209      310.685        0.250        0.052       60.283       10.845        0.032      336.732        8.234      865.374
11/18/2014  17:24:00       57.729       24.414       18.339       25.671       18.707       17.350      659.023      349.955      301.018        0.279        0.065       62.679        8.471        0.018      336.729        8.229      865.373
11/18/2014  17:25:00       55.423       27.220       19.056       24.475       17.742       15.012      599.019      314.796      225.359        0.266        0.057       61.746        7.640        0.015      336.749        8.260      865.374
11/18/2014  17:26:00       14.326       -2.883       10.003       17.208       14.610        9.919      296.110      213.454       98.394        0.046        0.030       14.613        6.632        0.206      336.686        8.155      865.364
11/18/2014  17:27:00       32.912       -1.755        4.523       22.523       13.715       11.023      507.290      188.100      121.501        0.096        0.041       32.959       10.154        0.095      336.701        8.181      865.364
11/18/2014  17:28:00       10.316       23.716       22.233       15.739       18.213       11.233      247.702      331.707      126.188        0.093        0.035       25.862        7.405        0.082      336.685        8.154      865.360
11/18/2014  17:29:00      -24.342      -10.842        4.360       11.623        6.567       11.127      135.100       43.125      123.814        0.052        0.015       26.648       10.135        0.145      336.455        7.768      865.367
11/18/2014  17:30:00      -20.784       -5.729       -0.609        8.314       10.110        8.020       69.122      102.209       64.319        0.035        0.012       21.559        4.930        0.052      336.391        7.661      865.373
11/18/2014  17:31:00      -21.028       -8.741        4.640       13.276       10.195        7.220      176.242      103.931       52.135        0.044        0.017       22.772        6.786        0.089      336.341        7.578      865.384
11/18/2014  17:32:00      -22.741      -20.739       -2.710       12.700        7.114        5.356      161.295       50.616       28.681        0.060        0.012       30.778        2.207        0.005      336.400        7.675      865.395
11/18/2014  17:33:00      -10.418      -19.685       -3.994        7.504        6.582        9.019       56.311       43.327       81.343        0.035        0.009       22.271        5.601        0.063      336.546        7.922      865.414
11/18/2014  17:34:00       -1.271      -19.258        2.352       13.591       11.367       11.941      184.704      129.202      142.593        0.042        0.023       19.300        6.869        0.127      336.681        8.147      865.420
11/18/2014  17:35:00       27.109      -45.050       -5.130       31.672       21.474       14.389     1003.094      461.150      207.045        0.223        0.084       52.578       13.935        0.070      336.807        8.356      865.416
11/18/2014  17:36:00       36.457      -59.703       -0.153       28.199       19.796       15.049      795.183      391.883      226.474        0.315        0.071       69.954       10.798        0.024      336.833        8.400      865.402
11/18/2014  17:37:00       -2.766       -7.197        9.082       11.133       10.227       10.435      123.948      104.582      108.890        0.024        0.017        7.710        7.432        0.929      336.714        8.202      865.404
11/18/2014  17:38:00      -18.128      -12.886       -2.620       10.671        7.634       10.086      113.875       58.278      101.718        0.039        0.014       22.241        7.030        0.100      336.685        8.154      865.408
11/18/2014  17:39:00        7.848        1.597        6.031       11.815        6.777        7.062      139.590       45.923       49.865        0.017        0.012        8.009        7.279        0.826      336.614        8.035      865.413
11/18/2014  17:40:00       31.920       11.852       11.197       11.524       11.324        9.896      132.808      128.240       97.926        0.082        0.018       34.050        6.268        0.034      336.605        8.019      865.409
11/18/2014  17:41:00       27.761       15.215        9.490       10.966        8.350       10.090      120.250       69.728      101.817        0.069        0.015       31.657        2.834        0.008      336.542        7.915      865.403
11/18/2014  17:42:00       33.603       12.888        3.946       15.024       10.809       14.142      225.717      116.826      199.998        0.093        0.027       35.990        8.480        0.056      336.566        7.955      865.400
11/18/2014  17:43:00       38.522        7.817       10.922       12.963       14.052       11.031      168.043      197.471      121.678        0.108        0.024       39.307        7.966        0.041      336.508        7.856      865.412
11/18/2014  17:44:00       24.930       11.660        6.819       14.558       10.191       11.687      211.948      103.850      136.585        0.063        0.023       27.522        4.896        0.032      336.452        7.764      865.434
11/18/2014  17:45:00       36.124       17.256        7.519       16.292       13.374        8.476      265.431      178.861       71.846        0.109        0.026       40.034        4.235        0.011      336.489        7.826      865.452
11/18/2014  17:46:00       12.652        7.891        7.978       13.659       13.227       12.532      186.562      174.959      157.043        0.040        0.026       14.911        5.296        0.126      336.449        7.759      865.459
11/18/2014  17:47:00        4.853       -6.346       -3.847       11.603       10.415        9.102      134.637      108.470       82.849        0.020        0.016        7.989        9.337        1.366      336.424        7.717      865.472
11/18/2014  17:48:00       -4.373       26.443       -7.646       12.304       11.593        8.341      151.394      134.390       69.573        0.057        0.018       26.802        7.227        0.073      336.586        7.987      865.490
11/18/2014  17:49:00       18.215       11.253       -5.293       20.077       16.439       10.309      403.084      270.225      106.278        0.063        0.039       21.411       11.958        0.312      336.572        7.965      865.520
11/18/2014  17:50:00       18.558       19.313        4.976       20.796       18.158       13.497      432.460      329.724      182.168        0.084        0.047       26.784       11.103        0.172      336.496        7.836      865.542
11/18/2014  17:51:00       36.761       32.727       14.311       14.117       12.146       14.405      199.296      147.529      207.516        0.159        0.028       49.218        6.645        0.018      336.502        7.848      865.547
11/18/2014  17:52:00       62.836       39.182        5.682       20.196       21.609       12.842      407.875      466.938      164.923        0.328        0.052       74.051       13.158        0.032      336.438        7.739      865.557
11/18/2014  17:53:00       48.823       29.595        3.758       16.972       13.331       10.692      288.032      177.709      114.321        0.193        0.029       57.093        4.999        0.008      336.431        7.729      865.566
11/18/2014  17:54:00       27.382       16.454       -5.636        9.763        7.272        8.519       95.325       52.882       72.571        0.064        0.011       31.945        5.682        0.032      336.438        7.745      865.570
11/18/2014  17:55:00       27.946        0.416       -6.810        5.278        5.578        4.091       27.861       31.117       16.737        0.045        0.004       27.949        2.963        0.011      336.448        7.757      865.578
11/18/2014  17:56:00       27.624       -2.769       -1.575        8.804        9.277        8.631       77.508       86.064       74.501        0.051        0.012       27.763        5.197        0.035      336.441        7.746      865.592
11/18/2014  17:57:00       25.791       -4.474       -1.405       10.992        9.699        8.612      120.815       94.075       74.158        0.049        0.014       26.176        6.756        0.067      336.474        7.800      865.589
11/18/2014  17:58:00       14.845       -8.706       -2.028        6.589       13.067        6.035       43.412      170.758       36.426        0.028        0.013       17.210        6.496        0.142      336.482        7.813      865.582
11/18/2014  17:59:00       11.205        8.930        1.380        5.512        4.414        5.386       30.384       19.484       29.014        0.014        0.004       14.328        1.612        0.013      336.456        7.769      865.568
11/18/2014  18:00:00        1.104       17.718       -4.564        3.266        6.607        5.213       10.668       43.658       27.178        0.021        0.004       17.753        3.425        0.037      336.440        7.748      865.549
11/18/2014  18:01:00       -4.427        3.887       -2.722        3.512        5.374        2.384       12.331       28.882        5.685        0.004        0.002        5.892        1.554        0.070      336.405        7.688      865.540
11/18/2014  18:02:00       -2.617        1.728       -5.374        4.818        5.174        4.341       23.210       26.766       18.847        0.005        0.003        3.136        3.814        1.479      336.431        7.729      865.540
11/18/2014  18:03:00      -10.194       -4.837       -1.152        7.960        6.924        3.713       63.355       47.937       13.789        0.013        0.006       11.284        2.610        0.054      336.429        7.726      865.551
11/18/2014  18:04:00      -39.954       -9.613       -7.049       10.548        4.950        4.416      111.268       24.506       19.497        0.095        0.008       41.095        3.747        0.008      336.388        7.653      865.553
11/18/2014  18:05:00      -52.180      -18.611       -8.868        7.427        4.751        4.689       55.154       22.575       21.982        0.162        0.005       55.400        1.092        0.000      336.369        7.624      865.561
11/18/2014  18:06:00      -37.877      -16.425       -7.474       11.384        4.427        5.910      129.601       19.602       34.923        0.097        0.009       41.285        4.927        0.014      336.392        7.661      865.558
11/18/2014  18:07:00      -30.077      -18.313       -2.289        8.727        4.798        3.397       76.162       23.020       11.541        0.068        0.006       35.214        2.078        0.003      336.333        7.565      865.562
11/18/2014  18:08:00      -34.705        3.768       -6.026       14.348       11.999        5.737      205.865      143.982       32.913        0.082        0.019       34.909        5.008        0.021      336.396        7.670      865.559
11/18/2014  18:09:00      -12.742        9.656        4.927       10.137       12.271       11.269      102.751      150.582      126.989        0.033        0.019       15.988        9.703        0.368      336.388        7.656      865.545
11/18/2014  18:10:00        1.937        3.733        2.831        4.168        3.957        3.970       17.375       15.661       15.764        0.004        0.002        4.206        2.039        0.235      336.430        7.724      865.530
11/18/2014  18:11:00       10.727       14.915       -4.841        6.295        6.520        4.693       39.633       42.509       22.025        0.023        0.005       18.372        4.478        0.059      336.452        7.761      865.522
11/18/2014  18:12:00        2.502        8.885       -5.685        8.618        6.374        3.596       74.261       40.628       12.928        0.012        0.006        9.231        1.485        0.026      336.458        7.773      865.507
11/18/2014  18:13:00        0.762        5.323       -3.097        2.829        4.646        3.052        8.005       21.581        9.313        0.004        0.002        5.377        1.933        0.129      336.486        7.822      865.496
11/18/2014  18:14:00        9.726       16.470        2.103        8.730        7.721        8.728       76.210       59.620       76.187        0.029        0.011       19.128        6.454        0.114      336.473        7.799      865.483
11/18/2014  18:15:00       20.088       25.370        3.419        6.664        5.008        4.748       44.403       25.083       22.542        0.058        0.005       32.360        1.988        0.004      336.461        7.777      865.459
11/18/2014  18:16:00       16.231       14.647       -0.127        3.341        3.914        2.749       11.163       15.321        7.559        0.026        0.002       21.863        1.215        0.003      336.496        7.837      865.451
11/18/2014  18:17:00       14.706        9.825        1.177        5.430        5.753        4.255       29.483       33.103       18.104        0.020        0.004       17.686        3.754        0.045      336.459        7.772      865.457
11/18/2014  18:18:00       23.708        6.267       -4.485        4.262        3.682        2.298       18.168       13.555        5.280        0.033        0.002       24.522        1.865        0.006      336.429        7.725      865.476
11/18/2014  18:19:00       20.280        1.311       -3.521        5.952        5.324        4.773       35.427       28.341       22.780        0.026        0.004       20.322        2.675        0.017      336.461        7.777      865.505
11/18/2014  18:20:00       30.000       -2.920       -2.432        4.781        4.488        2.775       22.857       20.146        7.698        0.048        0.003       30.141        2.586        0.007      336.464        7.783      865.530
11/18/2014  18:21:00       29.454        8.326        5.268        6.020        8.415       11.705       36.246       70.806      137.010        0.060        0.012       30.608        7.774        0.065      336.340        7.576      865.546
11/18/2014  18:22:00       58.850       22.439        6.935        7.616        7.348        7.478       57.999       53.999       55.926        0.209        0.008       62.983        3.047        0.002      336.440        7.745      865.536
11/18/2014  18:23:00       66.419       29.393        8.775       10.882        6.745        8.934      118.410       45.494       79.818        0.280        0.012       72.632        4.927        0.005      336.496        7.837      865.521
11/18/2014  18:24:00       50.201       23.205       14.109       16.473       14.403       16.144      271.365      207.446      260.635        0.200        0.037       55.305       11.676        0.045      336.325        7.550      865.496
11/18/2014  18:25:00       65.299       26.466        7.937       19.306       11.444       10.627      372.712      130.974      112.926        0.282        0.031       70.459        7.985        0.013      336.310        7.525      865.482
11/18/2014  18:26:00       66.440       30.620        9.275       14.753       10.302       10.705      217.646      106.127      114.598        0.294        0.022       73.156        8.247        0.013      336.320        7.542      865.470
11/18/2014  18:27:00       77.132       35.063        7.689       16.144       11.751       10.893      260.638      138.093      118.664        0.388        0.026       84.727        4.238        0.003      336.336        7.568      865.461
11/18/2014  18:28:00       75.241       35.306        3.214       15.690       14.847       13.756      246.173      220.443      189.215        0.379        0.033       83.112        9.349        0.013      336.229        7.390      865.455
11/18/2014  18:29:00       62.558       39.211        8.463       17.984       10.808        7.829      323.439      116.813       61.300        0.301        0.025       73.831        6.105        0.007      336.160        7.276      865.449
11/18/2014  18:30:00       65.527       39.460        4.187       11.644       12.867        8.369      135.581      165.551       70.042        0.312        0.019       76.491        5.334        0.005      336.163        7.279      865.448
11/18/2014  18:31:00       55.468       34.046        1.909       14.731       12.258        9.432      217.016      150.256       88.957        0.235        0.023       65.083        8.790        0.018      336.144        7.248      865.445
11/18/2014  18:32:00       58.891       38.230        0.022       19.957       10.678        8.661      398.282      114.022       75.009        0.276        0.029       70.211        6.704        0.009      336.180        7.309      865.443
11/18/2014  18:33:00       61.767       31.287        3.692       14.745       11.385       11.906      217.426      129.618      141.755        0.265        0.024       69.239        6.262        0.008      336.177        7.304      865.437
11/18/2014  18:34:00       60.452       26.284        6.003       13.896       10.680       10.295      193.098      114.062      105.989        0.240        0.021       65.919        8.240        0.016      336.158        7.270      865.437
11/18/2014  18:35:00       66.024       49.897        4.749       14.362        9.784        8.458      206.261       95.719       71.539        0.362        0.019       82.758        5.701        0.005      336.152        7.261      865.439
11/18/2014  18:36:00       63.595       48.277        5.254       10.191       10.530        9.284      103.852      110.885       86.195        0.335        0.015       79.843        7.310        0.008      336.122        7.212      865.432
11/18/2014  18:37:00       32.394       25.713       -0.675       20.298       11.636        9.135      412.023      135.393       83.455        0.117        0.032       41.359       10.490        0.064      336.011        7.027      865.428
11/18/2014  18:38:00       17.501       15.738        3.073       12.085        9.065        7.978      146.042       82.177       63.643        0.043        0.015       23.537        5.526        0.055      335.989        6.990      865.417
11/18/2014  18:39:00       11.233       14.747       -1.230       10.019       12.865        8.429      100.378      165.503       71.049        0.034        0.017       18.538        7.067        0.145      336.057        7.101      865.411
11/18/2014  18:40:00       12.285       25.258       -5.950        7.657        6.507        4.546       58.629       42.340       20.667        0.047        0.006       28.087        4.734        0.028      336.118        7.206      865.405
11/18/2014  18:41:00       11.460       15.885       -0.226        8.806        8.696        4.766       77.543       75.613       22.710        0.028        0.009       19.587        3.643        0.035      336.095        7.167      865.405
11/18/2014  18:42:00       22.055       25.755       -7.226        5.998        6.770        4.776       35.973       45.830       22.808        0.065        0.005       33.908        4.284        0.016      336.146        7.252      865.402
11/18/2014  18:43:00       14.847       24.002       -2.719        9.795        8.961        8.767       95.944       80.307       76.868        0.053        0.013       28.222        7.628        0.073      336.139        7.239      865.397
11/18/2014  18:44:00        7.564       21.107       -5.445        6.636        6.050        3.542       44.040       36.600       12.544        0.031        0.005       22.421        1.850        0.007      336.171        7.294      865.401
11/18/2014  18:45:00       -9.973       22.231       -6.211       10.413        8.587        5.166      108.435       73.740       26.683        0.042        0.010       24.365        3.484        0.020      336.179        7.307      865.403
11/18/2014  18:46:00      -29.454      -19.937       -7.081       11.192       14.850        8.293      125.261      220.515       68.769        0.086        0.021       35.567        4.601        0.017      335.890        6.825      865.409
11/18/2014  18:47:00      -63.417      -16.450       -7.593       12.820       10.356        9.966      164.356      107.237       99.321        0.236        0.019       65.516        6.522        0.010      335.806        6.685      865.417
11/18/2014  18:48:00      -70.140      -29.789       -8.571       16.450       12.186        9.504      270.598      148.499       90.329        0.319        0.025       76.204        3.467        0.002      335.743        6.580      865.422
11/18/2014  18:49:00      -58.705       -7.449       -9.975       14.980       12.037        9.560      224.414      144.900       91.385        0.203        0.023       59.176        7.011        0.014      335.683        6.480      865.427
11/18/2014  18:50:00      -39.112       -9.192       -6.211       14.804       14.526        8.743      219.145      211.013       76.438        0.108        0.025       40.178        9.054        0.051      335.773        6.630      865.436
11/18/2014  18:51:00      -70.702      -10.785       -8.054       15.139       10.478       10.687      229.189      109.791      114.209        0.282        0.023       71.520        3.235        0.002      335.789        6.658      865.430
11/18/2014  18:52:00      -59.195      -10.103      -11.685       24.163       14.718        8.063      583.844      216.615       65.012        0.230        0.043       60.051        2.031        0.001      335.852        6.762      865.426
11/18/2014  18:53:00      -32.108      -13.723       -6.864       15.134       15.060        8.152      229.034      226.805       66.459        0.089        0.026       34.918        5.165        0.022      335.705        6.519      865.424
11/18/2014  18:54:00      -25.666      -21.189       -0.496       13.388        9.543        9.999      179.229       91.065       99.971        0.074        0.019       33.282        7.959        0.057      335.799        6.675      865.429
11/18/2014  18:55:00      -18.914      -23.578       -2.642       17.866        9.807        9.489      319.180       96.168       90.035        0.071        0.025       30.227        4.371        0.021      335.820        6.709      865.436
11/18/2014  18:56:00        5.499      -40.235       14.333        9.823       10.477        7.851       96.488      109.770       61.640        0.106        0.013       40.609        6.113        0.023      335.859        6.775      865.439
11/18/2014  18:57:00       -6.919      -26.754       -3.651        7.176        6.222        7.506       51.495       38.708       56.345        0.046        0.007       27.634        4.017        0.021      335.833        6.728      865.444
11/18/2014  18:58:00      -12.583      -21.775      -14.431        8.512        8.300        6.190       72.460       68.893       38.320        0.051        0.009       25.149        6.323        0.063      335.862        6.778      865.441
11/18/2014  18:59:00       -5.990      -12.697       -2.579        6.202        6.341        3.420       38.459       40.215       11.694        0.015        0.005       14.039        1.843        0.017      335.969        6.956      865.434
11/18/2014  19:00:00        1.579        2.048        0.151        6.839        7.092        5.746       46.770       50.303       33.020        0.007        0.007        2.586        3.625        1.965      335.972        6.960      865.439
11/18/2014  19:01:00        4.391        5.239       -1.011        6.180        5.582        4.188       38.189       31.155       17.539        0.007        0.004        6.836        2.318        0.115      335.946        6.917      865.439
11/18/2014  19:02:00       15.444        7.321        3.797       11.190        3.964        3.797      125.226       15.713       14.414        0.023        0.008       17.091        4.691        0.075      335.967        6.952      865.432
11/18/2014  19:03:00       33.782       12.524        6.660       14.240        8.576        6.878      202.772       73.542       47.308        0.083        0.016       36.029        6.937        0.037      335.991        6.993      865.435
11/18/2014  19:04:00       29.659        4.959       11.332       21.310       13.363       13.715      454.101      178.560      188.112        0.093        0.041       30.071       12.032        0.160      335.897        6.837      865.453
11/18/2014  19:05:00       22.719        9.337       15.725       16.257       17.907       13.683      264.306      320.663      187.221        0.081        0.039       24.563       10.376        0.178      335.907        6.854      865.470
11/18/2014  19:06:00        1.679        1.867       19.539       10.915       17.879       14.673      119.128      319.662      215.304        0.052        0.033        2.511       11.632       21.462      335.953        6.929      865.494
11/18/2014  19:07:00       17.649        2.573       14.095       19.387       13.722       12.870      375.870      188.289      165.628        0.062        0.036       17.835        9.612        0.290      335.943        6.913      865.498
11/18/2014  19:08:00       11.590       -5.381        4.089       11.632       18.958        9.907      135.309      359.401       98.142        0.039        0.030       12.778        1.234        0.009      335.911        6.860      865.492
11/18/2014  19:09:00      -10.785      -14.664       12.940        7.690       15.858       10.791       59.131      251.463      116.450        0.046        0.021       18.203        9.701        0.284      335.894        6.832      865.478
11/18/2014  19:10:00       -3.397        8.644       18.095       13.108       14.304       15.282      171.824      204.603      233.551        0.051        0.030        9.288       10.487        1.275      335.824        6.718      865.468
11/18/2014  19:11:00       -3.708        3.096       16.642        7.605        8.199        8.939       57.838       67.224       79.907        0.025        0.010        4.831        7.040        2.124      335.812        6.695      865.460
11/18/2014  19:12:00        9.853      -53.898       -3.535       31.048       22.801       17.843      963.984      519.878      318.383        0.241        0.090       54.791       12.840        0.055      335.888        6.821      865.459
11/18/2014  19:13:00       61.576      -77.165       -9.770       26.340       25.081       15.369      693.816      629.079      236.201        0.570        0.078       98.722        8.803        0.008      335.838        6.740      865.450
11/18/2014  19:14:00       57.392      -49.398       -3.199       21.003       26.451       17.719      441.131      699.679      313.975        0.360        0.073       75.724       11.781        0.024      335.873        6.798      865.443
11/18/2014  19:15:00       41.387      -44.351       -4.281       21.918       26.224       14.651      480.413      687.719      214.647        0.254        0.069       60.663        9.542        0.025      335.912        6.860      865.437
11/18/2014  19:16:00       10.382      -44.918        1.008       16.600       18.425       19.916      275.547      339.487      396.642        0.157        0.051       46.102       13.188        0.082      335.804        6.683      865.434
11/18/2014  19:17:00       13.244       -9.458       13.395       12.623       22.580       12.297      159.335      509.853      151.218        0.063        0.041       16.275        7.105        0.191      335.717        6.536      865.446
11/18/2014  19:18:00       41.366      -59.717       -6.580       35.316       37.778       16.366     1247.224     1427.184      267.839        0.413        0.147       72.645       16.524        0.052      335.767        6.622      865.460
11/18/2014  19:19:00       47.742      -56.345       -8.340       31.060       33.798       24.690      964.708     1142.337      609.621        0.412        0.136       73.852       14.268        0.037      335.774        6.634      865.481
11/18/2014  19:20:00      -24.325      -60.452       -8.906       45.853       36.623       15.147     2102.498     1341.254      229.418        0.400        0.184       65.163       18.101        0.077      335.684        6.482      865.487
11/18/2014  19:21:00      -35.945      -13.884       -5.654        8.504       13.372        5.456       72.322      178.808       29.765        0.090        0.014       38.534        3.217        0.007      335.561        6.277      865.493
11/18/2014  19:22:00      -22.286        1.877       -2.117        8.120       12.541        6.416       65.930      157.278       41.161        0.038        0.013       22.365        3.308        0.022      335.605        6.350      865.508
11/18/2014  19:23:00      -34.827       -9.614       -4.239       19.554       13.247        8.394      382.376      175.495       70.459        0.098        0.031       36.130        5.492        0.023      335.662        6.445      865.512
11/18/2014  19:24:00      -31.099       -7.852       -4.460       11.947        9.643        5.926      142.733       92.995       35.114        0.066        0.014       32.075        4.935        0.024      335.658        6.440      865.506
11/18/2014  19:25:00      -29.643      -10.908       -2.188        9.440        8.755        8.047       89.106       76.652       64.761        0.062        0.012       31.586        6.392        0.041      335.739        6.574      865.490
11/18/2014  19:26:00      -40.141      -10.865       -2.311        7.217        7.749        5.620       52.086       60.047       31.582        0.094        0.007       41.585        3.389        0.007      335.733        6.564      865.482
11/18/2014  19:27:00      -54.080      -21.722       -4.158       11.272        7.241        5.987      127.051       52.439       35.848        0.181        0.011       58.279        2.971        0.003      335.738        6.572      865.467
11/18/2014  19:28:00      -71.370      -18.616      -12.769       10.782       10.214        6.101      116.249      104.330       37.228        0.293        0.013       73.758        1.837        0.001      335.745        6.583      865.441
11/18/2014  19:29:00      -65.879      -18.850       -5.801       21.592       18.541       12.549      466.195      343.773      157.490        0.285        0.048       68.523       11.825        0.030      335.645        6.416      865.423
11/18/2014  19:30:00      -57.402      -18.840       -0.518       30.571       19.699       14.278      934.572      388.044      203.871        0.259        0.076       60.415       16.672        0.076      335.622        6.379      865.423
11/18/2014  19:31:00      -25.568      -13.030        8.527       24.955       15.885       10.864      622.748      252.346      118.032        0.094        0.050       28.696        9.127        0.101      335.616        6.371      865.422
11/18/2014  19:32:00      -62.681      -19.139        4.926       28.104       17.999       11.739      789.838      323.966      137.795        0.279        0.063       65.538       11.510        0.031      335.665        6.450      865.420
11/18/2014  19:33:00      -48.893      -14.676        4.763       34.254       21.278       14.644     1173.351      452.763      214.439        0.223        0.092       51.048       15.701        0.095      335.604        6.348      865.424
11/18/2014  19:34:00      -54.358      -23.991       -1.848       20.914       16.058       12.973      437.398      257.870      168.286        0.220        0.043       59.417       11.643        0.038      335.591        6.328      865.427
11/18/2014  19:35:00      -55.728       -8.768        0.157       26.932       16.309       13.111      725.329      265.974      171.894        0.217        0.058       56.413       10.706        0.036      335.599        6.341      865.430
11/18/2014  19:36:00      -60.393      -32.634        1.298       30.023       21.250       15.389      901.383      451.554      236.833        0.315        0.079       68.646       13.665        0.040      335.706        6.519      865.443
11/18/2014  19:37:00      -63.858      -27.537       -4.051       22.123       24.732       13.830      489.435      611.670      191.264        0.307        0.065       69.542        7.828        0.013      335.728        6.553      865.440
11/18/2014  19:38:00      -61.908      -15.369        0.497       26.936       26.576       16.791      725.544      706.285      281.928        0.289        0.086       63.787       17.833        0.078      335.679        6.475      865.431
11/18/2014  19:39:00      -83.691      -16.249       -2.107       26.426       16.892       13.617      698.336      285.350      185.430        0.422        0.058       85.253       14.885        0.030      335.612        6.362      865.419
11/18/2014  19:40:00      -76.724      -18.993       -8.088       20.627       18.259       12.458      425.464      333.387      155.196        0.361        0.046       79.040       11.019        0.019      335.636        6.402      865.406
11/18/2014  19:41:00      -20.395      -14.957        3.159       22.965       14.985       14.982      527.410      224.543      224.459        0.081        0.049       25.291       14.306        0.320      335.584        6.315      865.398
11/18/2014  19:42:00      -29.454       -6.138        2.909       19.206       18.141       12.388      368.880      329.100      153.471        0.088        0.043       30.087       10.171        0.114      335.613        6.364      865.397
11/18/2014  19:43:00      -15.591      -25.455        2.758        9.632       17.899       10.170       92.775      320.367      103.425        0.071        0.026       29.850        5.418        0.033      335.591        6.326      865.399
11/18/2014  19:44:00      -29.153      -27.116       -1.974       13.502       16.575       10.399      182.298      274.747      108.135        0.108        0.028       39.814       10.193        0.066      335.578        6.306      865.399
11/18/2014  19:45:00      -60.844      -22.700       -3.976       23.225       10.230        7.769      539.421      104.662       60.358        0.247        0.035       64.941        8.866        0.019      335.454        6.098      865.394
11/18/2014  19:46:00      -93.499       -3.618      -11.751       15.868       16.488       11.442      251.781      271.850      130.925        0.477        0.033       93.569        7.859        0.007      335.404        6.016      865.394
11/18/2014  19:47:00     -108.985       -7.757      -15.131       11.604        9.678        9.805      134.649       93.667       96.132        0.625        0.016      109.260        3.472        0.001      335.312        5.861      865.395
11/18/2014  19:48:00     -111.141      -10.937      -17.120       12.686       11.778        8.533      160.943      138.730       72.820        0.657        0.019      111.678        4.128        0.001      335.323        5.881      865.397
11/18/2014  19:49:00      -94.648      -26.091       -8.005       16.392       15.985        9.642      268.709      255.518       92.969        0.516        0.031       98.178        9.283        0.009      335.254        5.764      865.394
11/18/2014  19:50:00     -106.666      -23.488      -14.074       10.667       12.346        9.131      113.795      152.412       83.382        0.624        0.017      109.221        4.655        0.002      335.242        5.744      865.396
11/18/2014  19:51:00      -80.263      -17.831      -13.628       27.016       13.141       12.438      729.890      172.698      154.697        0.400        0.053       82.219       13.747        0.028      335.206        5.685      865.385
11/18/2014  19:52:00      -68.871      -16.753       -1.421       31.788       26.122       17.539     1010.464      682.379      307.609        0.351        0.100       70.880       14.350        0.041      335.241        5.743      865.370
11/18/2014  19:53:00      -28.654       -3.496       -7.049       36.450       33.547       24.413     1328.583     1125.392      596.009        0.197        0.152       28.867       20.916        0.525      335.428        6.055      865.360
11/18/2014  19:54:00      -30.031      -16.580        1.864       49.700       30.102       22.902     2470.089      906.105      524.500        0.254        0.195       34.303       26.280        0.587      335.391        5.992      865.348
11/18/2014  19:55:00      -50.674       -2.069        1.832       40.955       28.914       23.872     1677.304      836.037      569.857        0.283        0.154       50.717       23.370        0.212      335.469        6.122      865.329
11/18/2014  19:56:00      -61.912      -29.680       -2.840       33.824       36.847       19.650     1144.080     1357.712      386.106        0.380        0.144       68.658       19.264        0.079      335.286        5.818      865.316
11/18/2014  19:57:00      -64.171      -38.599       -1.515       25.061       23.991       12.736      628.040      575.565      162.218        0.349        0.068       74.885        9.035        0.015      335.243        5.746      865.299
11/18/2014  19:58:00      -71.429      -36.367       -4.884       16.781       16.391       12.991      281.600      268.665      168.763        0.358        0.036       80.154       11.654        0.021      335.293        5.830      865.273
11/18/2014  19:59:00      -55.765      -29.432        0.275       19.967       11.959       10.977      398.686      143.027      120.499        0.232        0.033       63.055        4.378        0.005      335.261        5.776      865.257
11/18/2014  20:00:00      -50.760      -33.482       -7.254       21.935       18.361       11.573      481.152      337.113      133.938        0.235        0.048       60.808        7.499        0.015      335.208        5.687      865.250
11/18/2014  20:01:00      -92.107      -17.576       -7.547       23.471       21.501       13.344      550.909      462.309      178.054        0.502        0.060       93.769        1.784        0.000      335.153        5.596      865.243
11/18/2014  20:02:00     -104.948       -9.727       -4.386       31.149       23.123       17.841      970.250      534.657      318.318        0.648        0.091      105.398       16.102        0.023      335.127        5.557      865.257
11/18/2014  20:03:00      -96.697       -3.547       -5.953       38.154       26.621       21.969     1455.731      708.652      482.619        0.602        0.132       96.762       19.262        0.040      335.242        5.746      865.273
11/18/2014  20:04:00     -119.708       -4.171      -10.175       33.226       21.063       17.171     1103.962      443.655      294.849        0.815        0.092      119.780       11.478        0.009      335.185        5.651      865.283
11/18/2014  20:05:00      -64.716       -3.612       -1.543       40.327       32.385       22.725     1626.269     1048.800      516.425        0.370        0.160       64.816       22.362        0.119      335.242        5.744      865.271
11/18/2014  20:06:00      -43.991      -26.855        9.197       32.217       30.839       17.586     1037.961      951.072      309.282        0.252        0.115       51.540       15.154        0.086      335.269        5.790      865.257
11/18/2014  20:07:00      -43.237      -37.194       10.390       33.474       35.821       18.801     1120.479     1283.117      353.460        0.306        0.138       57.034       15.861        0.077      335.267        5.787      865.247
11/18/2014  20:08:00      -65.996      -23.037        4.788       37.051       32.975       22.785     1372.760     1087.334      519.156        0.394        0.149       69.902       19.929        0.081      335.229        5.723      865.245
11/18/2014  20:09:00     -112.672      -54.347       -7.858       16.143       20.075       13.493      260.585      402.992      182.054        0.828        0.042      125.094        8.580        0.005      335.190        5.658      865.267
11/18/2014  20:10:00      -59.110      -23.367       10.881       48.418       24.853       19.037     2344.347      617.681      362.417        0.374        0.166       63.561       22.264        0.123      335.228        5.720      865.303
11/18/2014  20:11:00     -127.607      -44.122       -5.101       34.176       26.420       14.861     1167.991      698.026      220.836        1.017        0.104      135.019       15.120        0.013      335.307        5.852      865.319
11/18/2014  20:12:00     -113.218      -51.395        0.083       30.153       24.655       16.753      909.225      607.874      280.654        0.863        0.090      124.337       14.300        0.013      335.427        6.053      865.335
11/18/2014  20:13:00     -100.398      -54.519       -3.446       30.770       16.970       16.758      946.769      287.997      280.840        0.729        0.076      114.245       14.742        0.017      335.399        6.006      865.330
11/18/2014  20:14:00     -108.784      -46.190       -5.669       17.861       17.822       13.611      319.023      317.622      185.271        0.741        0.041      118.184       10.549        0.008      335.470        6.125      865.322
11/18/2014  20:15:00      -71.955      -25.511        2.305       25.325       16.059       12.886      641.351      257.883      166.045        0.345        0.053       76.343       12.610        0.027      335.475        6.133      865.322
11/18/2014  20:16:00      -65.856      -25.063       -8.898       16.520       13.730        9.255      272.896      188.502       85.647        0.280        0.027       70.464        6.215        0.008      335.480        6.141      865.308
11/18/2014  20:17:00      -50.513      -14.136       -4.734       15.906       16.418       16.104      253.010      269.547      259.340        0.178        0.039       52.454       12.272        0.055      335.510        6.192      865.293
11/18/2014  20:18:00      -68.502      -16.933       -4.628       12.259       11.753        9.799      150.286      138.141       96.030        0.269        0.019       70.564        8.381        0.014      335.501        6.175      865.284
11/18/2014  20:19:00      -92.892      -25.455      -11.921        8.998        9.709        9.697       80.957       94.273       94.039        0.484        0.013       96.317        5.442        0.003      335.423        6.045      865.280
11/18/2014  20:20:00     -108.711      -25.627      -15.141       11.608       10.849        7.137      134.737      117.694       50.934        0.650        0.015      111.691        2.849        0.001      335.324        5.880      865.287
11/18/2014  20:21:00      -82.672      -31.139       -2.209       19.982       23.632       12.852      399.279      558.494      165.182        0.447        0.056       88.342        7.041        0.006      335.260        5.775      865.294
11/18/2014  20:22:00      -71.711      -10.956       -1.998       19.654       16.651       13.058      386.278      277.246      170.508        0.305        0.042       72.543       11.511        0.025      335.152        5.596      865.291
11/18/2014  20:23:00      -89.797      -19.052      -13.166       12.219       12.145       11.077      149.295      147.503      122.691        0.451        0.021       91.796        2.156        0.001      335.222        5.711      865.286
11/18/2014  20:24:00      -57.532      -12.293       -4.414       39.634       22.508       15.583     1570.819      506.601      242.841        0.290        0.116       58.830       12.284        0.044      335.335        5.899      865.268
11/18/2014  20:25:00      -63.464       -3.101        2.831       38.344       33.020       23.269     1470.282     1090.321      541.424        0.357        0.155       63.540       21.564        0.115      335.537        6.238      865.239
11/18/2014  20:26:00      -98.953       -5.241       -6.406       42.097       27.534       18.773     1772.122      758.131      352.437        0.637        0.144       99.091       19.900        0.040      335.398        6.003      865.219
11/18/2014  20:27:00      -60.388       -1.746       -0.509       41.200       35.811       18.503     1697.472     1282.412      342.347        0.349        0.166       60.414       14.635        0.059      335.320        5.873      865.209
11/18/2014  20:28:00      -57.841       -3.189        0.109       33.064       30.147       20.008     1093.201      908.864      400.327        0.288        0.120       57.929       19.951        0.119      335.173        5.630      865.206
11/18/2014  20:29:00      -50.337       13.875       -0.701       43.912       32.445       20.420     1928.290     1052.695      416.975        0.306        0.170       52.215       21.584        0.171      335.313        5.862      865.206
11/18/2014  20:30:00      -73.380      -17.149      -10.300       34.332       23.554       16.715     1178.653      554.792      279.386        0.390        0.101       75.358       15.594        0.043      335.272        5.793      865.204
11/18/2014  20:31:00     -100.960       -6.887       -7.386       26.766       29.475       17.940      716.430      868.801      321.837        0.610        0.095      101.194       15.872        0.025      335.275        5.801      865.206
11/18/2014  20:32:00      -78.150       -3.547       -6.291       26.061       21.057       15.450      679.187      443.413      238.711        0.376        0.068       78.230       14.439        0.034      335.367        5.952      865.215
11/18/2014  20:33:00      -54.142      -33.014       -0.029       12.464       18.403        9.181      155.359      338.688       84.286        0.230        0.029       63.413        5.109        0.006      335.281        5.810      865.221
11/18/2014  20:34:00      -55.852        3.967       -1.203       20.679       32.287       18.636      427.636     1042.460      347.305        0.248        0.091       55.993       11.325        0.041      335.429        6.055      865.207
11/18/2014  20:35:00      -51.885       13.498       -9.253       31.240       19.009       16.980      975.923      361.341      288.318        0.229        0.081       53.612       16.301        0.092      335.596        6.334      865.220
11/18/2014  20:36:00      -39.481        7.842       -3.949       21.932       23.152       15.833      481.031      536.023      250.671        0.145        0.063       40.252       12.248        0.093      335.515        6.200      865.203
11/18/2014  20:37:00       -7.660      -13.828        3.113       19.841       17.655        8.842      393.683      311.699       78.174        0.052        0.039       15.807        6.649        0.177      335.417        6.036      865.200
11/18/2014  20:38:00       -5.896      -11.496        6.665       15.939       17.666       12.722      254.049      312.094      161.843        0.047        0.036       12.920        9.581        0.550      335.361        5.945      865.192
11/18/2014  20:39:00      -11.374      -17.836        7.843       22.909       14.605        8.599      524.818      213.317       73.950        0.066        0.041       21.154        6.992        0.109      335.309        5.857      865.181
11/18/2014  20:40:00       -4.457      -27.621        0.269       15.674       11.733        9.338      245.676      137.667       87.206        0.063        0.024       27.978        8.448        0.091      335.306        5.850      865.175
11/18/2014  20:41:00       -9.186      -22.982       -3.116       12.790        9.571        9.209      163.580       91.610       84.811        0.048        0.017       24.750        6.031        0.059      335.364        5.946      865.183
11/18/2014  20:42:00      -16.244      -20.978        5.697       10.352        6.982       10.248      107.154       48.752      105.012        0.050        0.013       26.532        4.681        0.031      335.315        5.865      865.196
11/18/2014  20:43:00      -14.197       -7.632        1.256       11.104        6.705        7.780      123.304       44.950       60.533        0.025        0.011       16.119        6.472        0.161      335.268        5.790      865.213
11/18/2014  20:44:00      -39.782      -10.460       -7.301       10.494       10.477       11.113      110.116      109.761      123.509        0.104        0.017       41.134        7.661        0.035      335.235        5.733      865.214
11/18/2014  20:45:00      -34.572      -25.175       -1.314       14.048        9.974        7.093      197.355       99.485       50.308        0.109        0.017       42.767        4.777        0.012      335.241        5.743      865.215
11/18/2014  20:46:00      -47.334       -7.459       -4.085       14.351       12.977        9.743      205.959      168.412       94.922        0.139        0.023       47.918        5.941        0.015      335.299        5.840      865.216
11/18/2014  20:47:00      -53.443      -24.785       -1.323       10.711       12.131        9.182      114.733      147.160       84.305        0.191        0.017       58.911        7.645        0.017      335.306        5.852      865.220
11/18/2014  20:48:00      -32.634      -25.297       -7.772       18.402       12.847        7.998      338.648      165.038       63.970        0.117        0.028       41.291        6.059        0.022      335.293        5.827      865.220
11/18/2014  20:49:00      -22.874       -8.428       -3.142        8.957       10.173        9.890       80.231      103.481       97.806        0.044        0.014       24.377        4.543        0.035      335.295        5.832      865.218
11/18/2014  20:50:00      -11.517       15.998       -2.812       12.636       20.853       13.987      159.658      434.844      195.632        0.059        0.040       19.712       14.904        0.572      335.417        6.035      865.213
11/18/2014  20:51:00      -11.364       31.676       -6.711       13.271       11.302        7.749      176.107      127.742       60.049        0.077        0.018       33.653        5.727        0.029      335.575        6.299      865.215
11/18/2014  20:52:00       -3.753        0.472       -0.983        6.942       12.770        6.479       48.198      163.072       41.974        0.013        0.013        3.783        7.242        3.665      335.485        6.151      865.217
11/18/2014  20:53:00      -29.061      -23.733       -6.098       11.211        8.917        8.049      125.695       79.509       64.793        0.086        0.013       37.521        4.688        0.016      335.355        5.930      865.223
11/18/2014  20:54:00      -42.610      -31.115       -5.106       17.038        7.945       12.063      290.308       63.115      145.515        0.165        0.025       52.761       10.566        0.040      335.192        5.661      865.225
11/18/2014  20:55:00      -69.882      -28.453       -2.587        9.645        9.861        7.777       93.018       97.239       60.481        0.298        0.013       75.452        5.924        0.006      335.052        5.432      865.223
11/18/2014  20:56:00      -60.794      -15.814       -4.165       18.676       17.111       14.929      348.810      292.770      222.880        0.241        0.043       62.817       10.838        0.030      335.041        5.413      865.224
11/18/2014  20:57:00      -71.966      -12.929       -4.737       20.189       15.945       10.514      407.601      254.228      110.554        0.307        0.039       73.118        9.652        0.017      335.009        5.359      865.214
11/18/2014  20:58:00      -71.579       -8.591       -6.298       15.068       11.780       10.283      227.042      138.778      105.749        0.285        0.024       72.093        2.920        0.002      335.066        5.453      865.197
11/18/2014  20:59:00      -46.762      -19.585        4.723       19.955       19.290       11.161      398.205      372.095      124.565        0.174        0.045       50.698        8.816        0.030      335.043        5.415      865.178
11/18/2014  21:00:00      -57.062      -27.438       -7.987       11.934       11.215        9.087      142.413      125.769       82.575        0.221        0.018       63.315        4.697        0.006      335.003        5.348      865.170
11/18/2014  21:01:00      -24.139       -5.381       -2.548       11.733        8.101        8.911      137.672       65.622       79.411        0.045        0.014       24.731        7.335        0.088      335.054        5.433      865.161
11/18/2014  21:02:00        1.747      -13.265       -9.684        9.030       11.861        8.134       81.536      140.684       66.170        0.028        0.014       13.380        6.345        0.225      335.108        5.523      865.164
11/18/2014  21:03:00       -8.011      -10.510       -4.228       12.623        9.805       12.265      159.338       96.130      150.440        0.030        0.020       13.215        9.373        0.503      335.101        5.512      865.174
11/18/2014  21:04:00      -43.255      -14.946       -5.801       34.906       16.449        9.857     1218.432      270.554       97.160        0.186        0.079       45.764       13.154        0.083      334.983        5.317      865.192
11/18/2014  21:05:00      -65.649      -33.969       -6.064       20.642       14.314        9.961      426.112      204.881       99.217        0.312        0.037       73.917        3.939        0.003      334.912        5.199      865.218
11/18/2014  21:06:00      -63.404      -38.321        0.156       24.602       16.561       13.024      605.280      274.269      169.626        0.327        0.052       74.085       14.405        0.038      334.949        5.259      865.239
11/18/2014  21:07:00      -22.214      -15.535        9.188       35.877       14.493       17.374     1287.144      210.045      301.853        0.131        0.090       27.108       19.909        0.539      335.011        5.364      865.264
11/18/2014  21:08:00      -22.773      -16.057        3.397       18.369       17.811       13.775      337.430      317.233      189.751        0.082        0.042       27.865       14.090        0.256      335.006        5.355      865.270
11/18/2014  21:09:00      -30.870      -28.061        5.654       41.164       35.311       12.540     1694.475     1246.862      157.242        0.243        0.155       41.718        8.270        0.039      335.034        5.400      865.275
11/18/2014  21:10:00      -84.063      -73.319       -3.580       33.338       27.708       17.266     1111.437      767.716      298.115        0.732        0.109      111.545       16.734        0.023      335.194        5.666      865.287
11/18/2014  21:11:00      -41.342      -57.501        4.270       28.928       31.582       20.520      836.837      997.411      421.058        0.364        0.113       70.820       21.203        0.090      335.229        5.723      865.291
11/18/2014  21:12:00      -53.626     -101.179       -1.983       26.845       36.142       20.961      720.678     1306.261      439.363        0.779        0.123      114.512       14.098        0.015      335.245        5.750      865.296
11/18/2014  21:13:00      -57.065      -50.310       -1.133       28.954       22.265       16.549      838.337      495.720      273.877        0.370        0.080       76.076       18.164        0.057      335.177        5.635      865.292
11/18/2014  21:14:00      -45.104      -20.551        1.566       34.186       24.529       15.873     1168.698      601.674      251.950        0.224        0.101       49.565       12.995        0.069      335.170        5.626      865.283
11/18/2014  21:15:00      -34.207      -26.680        3.318       24.976       14.663       14.697      623.825      215.000      216.009        0.147        0.053       43.381       15.515        0.128      335.223        5.712      865.272
11/18/2014  21:16:00      -66.160      -49.433       -2.901       23.568       26.263       15.785      555.456      689.769      249.161        0.416        0.075       82.588       11.583        0.020      335.188        5.654      865.268
11/18/2014  21:17:00      -49.932      -40.785        1.423       31.471       22.745       13.751      990.444      517.315      189.102        0.293        0.085       64.471       13.919        0.047      335.222        5.710      865.268
11/18/2014  21:18:00      -43.709      -15.658        2.809       39.200       13.794       11.278     1536.601      190.286      127.195        0.201        0.093       46.429       14.491        0.097      335.138        5.573      865.269
11/18/2014  21:19:00      -46.439      -16.294       -1.593       26.863       12.703       10.533      721.644      161.371      110.936        0.171        0.050       49.215       12.760        0.067      335.073        5.467      865.253
11/18/2014  21:20:00      -11.599       -8.212        0.753       20.509       15.500        9.559      420.623      240.260       91.384        0.048        0.038       14.212        8.695        0.374      335.098        5.505      865.232
11/18/2014  21:21:00       -9.743       20.919       -1.928       11.097       16.806        9.297      123.140      282.442       86.438        0.051        0.025       23.077       10.006        0.188      335.245        5.749      865.219
11/18/2014  21:22:00      -17.688       -8.272       -6.146       14.660       14.624        9.056      214.920      213.854       82.008        0.046        0.026       19.526       10.407        0.284      335.180        5.643      865.213
11/18/2014  21:23:00      -16.551      -20.909       -7.319       10.665        8.428        6.826      113.747       71.039       46.591        0.050        0.012       26.667        1.852        0.005      335.156        5.603      865.232
11/18/2014  21:24:00       -9.963      -22.466        6.558        7.150        8.579        9.430       51.116       73.596       88.934        0.043        0.011       24.576        5.171        0.044      335.176        5.638      865.263
11/18/2014  21:25:00      -16.396      -10.587       -3.158        8.594        6.774        5.829       73.858       45.886       33.976        0.027        0.008       19.517        2.276        0.014      335.124        5.551      865.290
11/18/2014  21:26:00      -16.762        0.785        0.397        4.189        3.186        3.000       17.547       10.150        8.999        0.016        0.002       16.780        2.478        0.022      335.099        5.509      865.307
11/18/2014  21:27:00      -14.952        3.376        0.203        3.447        3.044        1.741       11.881        9.265        3.031        0.013        0.001       15.329        1.224        0.006      335.137        5.572      865.303
11/18/2014  21:28:00       -9.546        7.184        1.209        6.490        5.395        4.572       42.116       29.103       20.902        0.012        0.005       11.947        2.335        0.038      335.152        5.593      865.307
11/18/2014  21:29:00      -13.930        7.981       -0.196       11.271        9.552        4.570      127.029       91.244       20.889        0.025        0.012       16.054        4.510        0.079      335.239        5.741      865.311
11/18/2014  21:30:00        0.308       -0.429        2.214        7.318        5.041        4.409       53.556       25.408       19.437        0.005        0.005        0.529        2.783       27.710      335.153        5.601      865.310
11/18/2014  21:31:00       19.916       19.403       -4.845        8.322        9.504        6.874       69.251       90.327       47.247        0.050        0.010       27.805        3.774        0.018      335.180        5.643      865.305
11/18/2014  21:32:00       27.712       22.447        1.923       13.367       16.693       11.339      178.680      278.641      128.565        0.093        0.029       35.663        8.833        0.061      335.093        5.499      865.297
11/18/2014  21:33:00       37.168       33.480        3.082       22.002       20.687       18.401      484.079      427.945      338.593        0.188        0.063       50.024       13.616        0.074      335.085        5.485      865.274
11/18/2014  21:34:00       34.061       29.017        5.644       24.474       15.976       10.644      598.981      255.233      113.298        0.150        0.048       44.745        8.479        0.036      334.982        5.314      865.255
11/18/2014  21:35:00       37.345       23.869        6.032       15.435       12.149       13.632      238.252      147.598      185.841        0.129        0.029       44.321        9.265        0.044      334.968        5.290      865.237
11/18/2014  21:36:00       55.909       22.183        3.392       20.589       12.060       14.892      423.888      145.453      221.773        0.221        0.040       60.149        5.688        0.009      334.954        5.267      865.221
11/18/2014  21:37:00       61.670       31.009        2.887       18.413       14.056       16.156      339.037      197.574      261.018        0.279        0.040       69.027        9.331        0.018      334.878        5.141      865.215
11/18/2014  21:38:00       57.503       38.670       -3.504       14.499       17.077       14.297      210.215      291.628      204.394        0.276        0.035       69.296       12.113        0.031      334.865        5.120      865.221
11/18/2014  21:39:00       62.013       43.669        1.234       20.998       17.435       12.077      440.908      303.964      145.850        0.332        0.045       75.846       12.521        0.027      334.840        5.077      865.228
11/18/2014  21:40:00       66.812       41.800       -1.250       18.419       18.075       16.508      339.252      326.715      272.509        0.358        0.047       78.810        8.717        0.012      334.825        5.055      865.227
11/18/2014  21:41:00       70.732       56.266       -0.741       18.691       14.128       11.956      349.357      199.593      142.944        0.443        0.035       90.382        6.126        0.005      334.878        5.141      865.220
11/18/2014  21:42:00       65.465       48.873        2.869       16.705       19.919       13.987      279.067      396.753      195.645        0.378        0.044       81.696       10.659        0.017      334.883        5.148      865.212
11/18/2014  21:43:00       66.406       47.030       13.545       19.595       13.382       12.764      383.966      179.090      162.911        0.377        0.036       81.373        9.110        0.013      334.895        5.169      865.209
11/18/2014  21:44:00       64.532       47.922        9.810       19.855       15.280       18.762      394.232      233.469      352.004        0.377        0.049       80.380       15.063        0.035      334.880        5.144      865.206
11/18/2014  21:45:00       83.380       42.676        6.496       19.499       14.815       13.044      380.215      219.482      170.138        0.479        0.038       93.667       11.307        0.015      334.914        5.200      865.204
11/18/2014  21:46:00       73.622       47.085       13.069       18.488       13.771       12.615      341.792      189.631      159.126        0.425        0.035       87.391       10.114        0.013      334.887        5.156      865.208
11/18/2014  21:47:00       80.231       43.217        4.451       28.952       17.736       16.678      838.202      314.571      278.142        0.488        0.072       91.130       15.495        0.029      334.916        5.206      865.205
11/18/2014  21:48:00       92.720       43.799        9.653       25.388       14.710       20.721      644.562      216.398      429.357        0.595        0.065      102.544       14.365        0.020      334.949        5.259      865.212
11/18/2014  21:49:00       37.973       23.526        7.002       22.435       18.475       15.780      503.328      341.333      249.002        0.157        0.055       44.670       12.198        0.075      334.901        5.179      865.217
11/18/2014  21:50:00       39.982       21.585       12.010       14.121       10.690       11.222      199.389      114.271      125.924        0.132        0.022       45.437        8.129        0.032      334.986        5.320      865.224
11/18/2014  21:51:00       33.660       13.610        7.705        8.702        7.905        6.306       75.731       62.487       39.764        0.078        0.009       36.307        3.566        0.010      335.066        5.453      865.242
11/18/2014  21:52:00        8.872       -2.270        1.040       10.676        4.496        3.010      113.973       20.218        9.059        0.011        0.007        9.158        3.514        0.147      335.147        5.588      865.261
11/18/2014  21:53:00      -37.039      -19.472       -4.297       17.943       15.465        6.693      321.944      239.159       44.790        0.119        0.030       41.846        6.983        0.028      334.926        5.221      865.287
11/18/2014  21:54:00      -33.667      -23.857        2.850       20.574       12.868       10.350      423.278      165.576      107.117        0.120        0.035       41.263        9.368        0.052      334.905        5.187      865.304
11/18/2014  21:55:00      -42.178      -39.778        2.855       23.896       22.583       15.809      571.013      510.012      249.938        0.235        0.067       57.977       14.409        0.062      335.023        5.382      865.300
11/18/2014  21:56:00      -37.791      -30.686        1.535       34.382       15.945        8.968     1182.148      254.244       80.433        0.194        0.076       48.680       10.585        0.047      335.086        5.488      865.294
11/18/2014  21:57:00      -46.571      -36.151        3.778       21.180       19.031       13.140      448.583      362.184      172.656        0.224        0.049       58.956       13.892        0.056      334.999        5.341      865.279
11/18/2014  21:58:00      -28.968      -24.994       -0.358       33.642       13.140       12.180     1131.802      172.652      148.359        0.146        0.073       38.260       14.450        0.143      334.955        5.269      865.260
11/18/2014  21:59:00      -60.252       -8.695       -4.791       12.958       12.432        8.476      167.907      154.551       71.834        0.206        0.020       60.876        4.808        0.006      334.984        5.318      865.243
11/18/2014  22:00:00      -31.576       -6.099        1.282       28.753       13.795       10.423      826.729      190.304      108.643        0.108        0.056       32.160       10.302        0.103      334.965        5.287      865.223
11/18/2014  22:01:00      -60.946      -23.540       -5.172       11.657       13.463        5.498      135.883      181.246       30.233        0.232        0.017       65.334        3.256        0.002      335.005        5.351      865.210
11/18/2014  22:02:00      -52.930      -24.405       -3.068        8.705        6.800        3.935       75.778       46.240       15.481        0.177        0.007       58.286        2.995        0.003      335.026        5.386      865.198
11/18/2014  22:03:00      -49.032      -27.246       -4.662       10.112        4.323        6.025      102.258       18.690       36.305        0.166        0.008       56.094        5.969        0.011      334.942        5.247      865.191
11/18/2014  22:04:00      -72.649      -24.348      -10.869       14.275       10.105        8.253      203.762      102.117       68.118        0.318        0.019       76.620        6.459        0.007      334.745        4.920      865.187
11/18/2014  22:05:00     -113.345      -11.510      -10.966       25.879       20.621       14.637      669.748      425.217      214.233        0.720        0.065      113.928       10.865        0.009      334.599        4.677      865.184
11/18/2014  22:06:00      -71.373      -15.563        3.196       46.117       25.494       22.802     2126.766      649.937      519.933        0.432        0.165       73.051       21.969        0.090      334.632        4.732      865.185
11/18/2014  22:07:00      -93.199       -1.402       -6.892       34.237       36.962       24.104     1172.192     1366.206      581.023        0.593        0.156       93.210       23.464        0.063      334.989        5.326      865.188
11/18/2014  22:08:00     -106.424       -1.983       -2.333       37.705       28.048       27.861     1421.663      786.692      776.241        0.716        0.149      106.443       27.002        0.064      334.912        5.197      865.194
11/18/2014  22:09:00      -69.439        4.556        0.795       36.969       27.648       21.490     1366.701      764.417      461.824        0.372        0.130       69.588       23.898        0.118      334.837        5.074      865.190
11/18/2014  22:10:00      -82.084       -4.139       -5.905       39.098       23.520       22.619     1528.658      553.214      511.626        0.469        0.130       82.188       23.008        0.078      334.905        5.186      865.175
11/18/2014  22:11:00      -53.175       -3.433       -3.445       41.360       31.969       18.912     1710.656     1022.039      357.662        0.297        0.155       53.286       21.065        0.156      335.008        5.358      865.150
11/18/2014  22:12:00      -74.752       -5.828        1.551       38.654       24.808       22.267     1494.145      615.453      495.828        0.411        0.130       74.979       22.598        0.091      334.879        5.142      865.135
11/18/2014  22:13:00      -28.134       -4.499        3.420       33.000       22.120       17.610     1089.013      489.296      310.109        0.136        0.094       28.492       15.491        0.296      334.844        5.085      865.124
11/18/2014  22:14:00      -84.311       -3.822        2.026       56.764       24.489       26.976     3222.122      599.699      727.718        0.584        0.227       84.397       31.197        0.137      334.902        5.181      865.111
11/18/2014  22:15:00      -41.160       -5.522        0.786       32.868       36.507       21.075     1080.304     1332.786      444.162        0.229        0.143       41.529       20.865        0.252      334.947        5.257      865.105
11/18/2014  22:16:00      -33.829       -2.725       -1.882       23.843       22.567       15.939      568.504      509.259      254.053        0.124        0.067       33.939        8.550        0.063      334.967        5.289      865.086
11/18/2014  22:17:00      -49.754      -38.314      -10.402       13.093       16.034        8.666      171.418      257.100       75.098        0.228        0.025       62.797        5.003        0.006      334.737        4.908      865.078
11/18/2014  22:18:00      -47.209      -41.872      -18.489       12.083       10.108        8.779      145.987      102.170       77.070        0.232        0.016       63.103        5.789        0.008      334.700        4.846      865.082
11/18/2014  22:19:00      -75.099      -15.078      -12.163       14.423       17.197        6.887      208.017      295.725       47.430        0.328        0.028       76.597        5.787        0.006      334.632        4.733      865.094
11/18/2014  22:20:00      -72.453      -12.129      -10.080       12.517       10.955        8.919      156.687      120.003       79.541        0.293        0.018       73.462        3.206        0.002      334.628        4.725      865.092
11/18/2014  22:21:00      -54.028      -15.632       -0.559       21.858       16.821       13.079      477.762      282.962      171.052        0.205        0.047       56.243       11.893        0.045      334.602        4.682      865.092
11/18/2014  22:22:00      -84.244      -14.171      -10.985       19.840       14.317       13.391      393.608      204.982      179.313        0.410        0.039       85.428       12.062        0.020      334.592        4.664      865.104
11/18/2014  22:23:00     -102.408      -17.057      -13.930       10.934       10.113       12.245      119.546      102.268      149.946        0.567        0.019      103.819        6.298        0.004      334.558        4.609      865.107
11/18/2014  22:24:00      -60.591      -32.059       -4.360       27.992       22.035       12.259      783.535      485.541      150.295        0.307        0.071       68.550       11.208        0.027      334.515        4.539      865.101
11/18/2014  22:25:00      -42.050        5.592        0.826       32.980       19.947       14.199     1087.673      397.879      201.616        0.174        0.084       42.420       10.699        0.064      334.584        4.653      865.079
11/18/2014  22:26:00      -16.831       10.792        3.802       21.334       21.047       15.299      455.156      442.995      234.058        0.077        0.057       19.994       11.627        0.338      334.694        4.835      865.065
11/18/2014  22:27:00       -2.673      -15.158        1.896       11.100       17.518        9.314      123.210      306.884       86.748        0.038        0.026       15.392        8.242        0.287      334.780        4.978      865.056
11/18/2014  22:28:00       -5.465      -11.706       -7.273        5.961       11.963        6.395       35.537      143.104       40.901        0.022        0.011       12.919        3.382        0.069      334.781        4.981      865.061
11/18/2014  22:29:00       -9.844      -10.879       -5.651        5.261        4.411        3.378       27.676       19.453       11.409        0.015        0.003       14.672        1.500        0.010      334.873        5.133      865.083
11/18/2014  22:30:00      -26.863      -27.102       -5.118       12.847       10.309        6.181      165.056      106.283       38.209        0.090        0.015       38.159        1.822        0.002      334.783        4.983      865.103
11/18/2014  22:31:00      -60.063      -19.161       -7.982        4.882        7.924        4.575       23.835       62.792       20.933        0.207        0.005       63.045        3.089        0.002      334.596        4.674      865.113
11/18/2014  22:32:00      -67.339       -6.576      -11.667       23.657       13.532       10.510      559.638      183.113      110.467        0.278        0.043       67.660        7.959        0.014      334.628        4.726      865.109
11/18/2014  22:33:00      -67.700       -7.435       -8.916       15.154       13.528        9.302      229.655      183.000       86.526        0.261        0.025       68.107        6.585        0.009      334.509        4.528      865.100
11/18/2014  22:34:00      -66.071       -6.932       -5.784       12.462        8.192        6.953      155.310       67.109       48.342        0.236        0.014       66.433        5.625        0.007      334.579        4.644      865.090
11/18/2014  22:35:00      -38.452       -5.273        3.096       19.835       11.209        7.045      393.408      125.647       49.638        0.104        0.028       38.812        5.785        0.022      334.799        5.013      865.085
11/18/2014  22:36:00        9.190       21.639        3.716       14.422       12.745        9.379      208.001      162.427       87.966        0.051        0.023       23.510        6.520        0.077      335.050        5.427      865.074
11/18/2014  22:37:00       20.674       44.577        0.192       10.678       18.371       10.375      114.016      337.504      107.641        0.149        0.028       49.137       10.612        0.047      335.122        5.546      865.069
11/18/2014  22:38:00       22.851       24.247       -0.819       11.317       13.542        9.445      128.072      183.375       89.203        0.076        0.020       33.318        7.313        0.048      334.937        5.239      865.067
11/18/2014  22:39:00       28.136       23.084       -2.047        8.323        8.475        6.405       69.269       71.818       41.030        0.076        0.009       36.394        4.140        0.013      334.848        5.092      865.060
11/18/2014  22:40:00       12.797       40.751       -4.520        9.223        8.447        3.950       85.060       71.353       15.601        0.101        0.009       42.713        4.350        0.010      334.945        5.254      865.048
11/18/2014  22:41:00        3.722       46.473       -6.341        3.529        5.586        3.109       12.455       31.204        9.669        0.113        0.003       46.622        1.756        0.001      335.070        5.461      865.031
11/18/2014  22:42:00        2.263       32.192       -1.199        4.511        7.132        3.779       20.349       50.863       14.279        0.056        0.004       32.271        2.964        0.008      335.158        5.605      865.015
11/18/2014  22:43:00        1.415       27.562       -1.488        4.579        4.297        4.281       20.967       18.463       18.330        0.041        0.003       27.598        2.559        0.009      335.170        5.626      865.010
11/18/2014  22:44:00      -29.733        7.867       -3.917       18.247       15.457        6.237      332.965      238.927       38.906        0.079        0.031       30.756        9.668        0.099      334.849        5.092      864.999
11/18/2014  22:45:00      -35.248      -12.784      -15.424       18.475        9.247        6.615      341.336       85.501       43.752        0.106        0.024       37.494        4.159        0.012      334.479        4.479      864.985
11/18/2014  22:46:00      -50.303      -19.928       -9.918       13.828       11.294       10.624      191.222      127.556      112.878        0.173        0.022       54.106        7.578        0.020      334.428        4.393      864.968
11/18/2014  22:47:00      -45.084      -18.247      -11.855       12.962       12.425        7.907      168.021      154.377       62.524        0.145        0.019       48.637        6.811        0.020      334.456        4.441      864.954
11/18/2014  22:48:00      -16.857      -27.240       -5.876       14.464        9.528       10.470      209.221       90.776      109.625        0.074        0.020       32.034        3.455        0.012      334.549        4.595      864.956
11/18/2014  22:49:00        2.495      -34.754       -6.461        9.539        9.824       10.794       91.002       96.507      116.511        0.078        0.015       34.843        4.891        0.020      334.593        4.667      864.976
11/18/2014  22:50:00       -1.505      -37.172       -5.853        8.700        9.035        6.360       75.682       81.635       40.452        0.081        0.010       37.203        4.359        0.014      334.582        4.650      864.992
11/18/2014  22:51:00      -25.176      -13.834       -7.964       14.796        8.951        7.358      218.915       80.113       54.145        0.062        0.018       28.726        5.224        0.033      334.489        4.496      865.007
11/18/2014  22:52:00      -61.508       -8.372       -8.920       15.146        7.692        6.209      229.405       59.163       38.558        0.213        0.016       62.075        3.459        0.003      334.473        4.468      865.013
11/18/2014  22:53:00     -122.052      -11.866      -17.478       24.896       15.071       10.776      619.817      227.141      116.112        0.815        0.048      122.628        8.624        0.005      334.354        4.274      865.028
11/18/2014  22:54:00     -138.176       -4.807      -17.773       37.351       27.092       21.685     1395.109      733.958      470.235        1.101        0.130      138.260       20.657        0.022      334.332        4.236      865.044
11/18/2014  22:55:00      -89.474      -14.814       -0.518       42.485       38.838       24.967     1804.993     1508.357      623.360        0.608        0.197       90.692       24.115        0.071      334.385        4.323      865.064
11/18/2014  22:56:00      -95.500        4.478       -2.590       46.164       30.880       27.051     2131.117      953.556      731.735        0.648        0.191       95.605       28.150        0.087      334.602        4.683      865.088
11/18/2014  22:57:00      -97.672        0.716      -11.966       23.481       26.124       20.452      551.335      682.456      418.273        0.567        0.083       97.675       17.338        0.032      334.604        4.687      865.097
11/18/2014  22:58:00      -87.216      -16.540       -8.662       17.408       15.908       13.152      303.029      253.066      172.984        0.434        0.036       88.770       10.576        0.014      334.533        4.569      865.094
11/18/2014  22:59:00      -63.661      -29.140       -3.597        9.628        8.211        8.631       92.692       67.414       74.488        0.257        0.012       70.013        4.536        0.004      334.561        4.613      865.088
11/18/2014  23:00:00      -12.928      -17.097        4.162       20.818        8.968        8.004      433.387       80.427       64.059        0.053        0.029       21.435        8.456        0.156      334.582        4.649      865.095
11/18/2014  23:01:00        1.343      -13.849        5.761        9.900        9.176       10.749       98.015       84.203      115.550        0.026        0.015       13.914        4.262        0.094      334.589        4.662      865.108
11/18/2014  23:02:00      -17.046      -10.380        1.931       10.641        9.600        8.162      113.238       92.152       66.611        0.034        0.014       19.957        7.526        0.142      334.658        4.775      865.117
11/18/2014  23:03:00      -31.671       15.546       -6.817        7.219        8.853        6.748       52.108       78.384       45.540        0.073        0.009       35.281        5.816        0.027      334.607        4.690      865.110
11/18/2014  23:04:00       -6.204        9.891       23.035       15.871       11.578       10.023      251.903      134.043      100.452        0.058        0.024       11.676        8.815        0.570      334.573        4.634      865.083
11/18/2014  23:05:00       15.948       15.568       13.261       18.507       10.669       12.126      342.523      113.834      147.048        0.064        0.030       22.287       12.822        0.331      334.542        4.582      865.047
11/18/2014  23:06:00       29.234       22.247        2.476       18.308       13.214       11.723      335.176      174.597      137.430        0.100        0.032       36.736        7.026        0.037      334.546        4.589      865.016
11/18/2014  23:07:00        4.833       10.689        2.397       14.131       12.012        9.081      199.678      144.278       82.460        0.028        0.021       11.730        6.287        0.287      334.559        4.610      865.005
11/18/2014  23:08:00      -30.834        7.502       -3.456       22.292       18.342        5.962      496.932      336.442       35.551        0.094        0.043       31.733        4.838        0.023      334.565        4.620      865.033
11/18/2014  23:09:00      -75.676      -37.021       -9.107       22.504       18.503       11.606      506.436      342.354      134.703        0.408        0.049       84.246        7.455        0.008      334.322        4.220      865.074
11/18/2014  23:10:00     -100.286      -48.382       -4.833       29.326       20.718       14.996      859.986      429.244      224.879        0.697        0.076      111.347       12.933        0.013      334.271        4.134      865.098
11/18/2014  23:11:00     -112.669      -26.017       -4.358       22.851       24.421       16.713      522.183      596.364      279.326        0.739        0.070      115.634       12.584        0.012      334.302        4.184      865.094
11/18/2014  23:12:00      -98.449      -28.004       -8.759       17.725       19.393       11.408      314.168      376.081      130.141        0.569        0.041      102.354        3.021        0.001      334.316        4.209      865.073
11/18/2014  23:13:00      -72.763       -3.819       -5.149       43.497       21.083       18.455     1891.984      444.491      340.570        0.401        0.134       72.863       21.290        0.085      334.470        4.465      865.046
11/18/2014  23:14:00      -31.820        8.796       -1.657       23.415       16.865       18.245      548.263      284.437      332.888        0.113        0.058       33.013       15.214        0.212      334.542        4.584      865.029
11/18/2014  23:15:00        4.028       -2.503        3.988       13.178       18.119       11.311      173.658      328.297      127.932        0.033        0.031        4.742        5.976        1.588      334.412        4.370      865.023
11/18/2014  23:16:00      -19.339      -18.075       -0.136       16.338       20.559       18.423      266.942      422.693      339.411        0.086        0.051       26.471       14.245        0.290      334.473        4.469      865.029
11/18/2014  23:17:00      -33.865      -32.909        5.525       34.858       19.180       14.140     1215.075      367.870      199.947        0.202        0.089       47.221       13.704        0.084      334.370        4.299      865.034
11/18/2014  23:18:00      -96.620      -35.019       -2.383       22.188       33.292       15.322      492.320     1108.383      234.765        0.620        0.092      102.770        9.889        0.009      334.249        4.097      865.042
11/18/2014  23:19:00     -109.412      -36.097       -7.798       20.467       19.372       14.504      418.902      375.276      210.359        0.717        0.050      115.213       11.685        0.010      334.191        4.001      865.043
11/18/2014  23:20:00      -61.872      -40.449       -8.745       46.806       23.742       18.383     2190.847      563.663      337.947        0.432        0.155       73.920       14.564        0.039      334.233        4.072      865.041
11/18/2014  23:21:00      -50.411      -38.774        3.948       42.140       19.706       20.409     1775.800      388.332      416.542        0.332        0.129       63.598       23.178        0.133      334.246        4.092      865.044
11/18/2014  23:22:00      -37.677      -17.489        4.764       29.354       18.820       16.080      861.629      354.181      258.558        0.161        0.074       41.539       15.874        0.146      334.229        4.064      865.053
11/18/2014  23:23:00      -42.343      -26.903        3.969       24.224       16.448       11.133      586.795      270.550      123.944        0.176        0.049       50.167        9.039        0.032      334.228        4.064      865.049
11/18/2014  23:24:00      -67.923      -12.973       -3.758       23.858       17.651       13.373      569.223      311.550      178.847        0.293        0.053       69.151       12.223        0.031      334.251        4.101      865.037
11/18/2014  23:25:00        8.810       -5.104       -0.295       10.285       10.307       11.224      105.789      106.242      125.979        0.022        0.017       10.182        5.874        0.333      334.287        4.161      865.013
11/18/2014  23:26:00       12.540      -12.161        4.481       10.875       13.950       14.493      118.274      194.613      210.045        0.042        0.026       17.468        3.808        0.048      334.307        4.194      865.016
11/18/2014  23:27:00        4.361       10.315       -2.928       11.988       14.505        9.655      143.701      210.399       93.215        0.029        0.022       11.199        5.219        0.217      334.333        4.237      865.022
11/18/2014  23:28:00      -17.460       -8.965        3.693       20.410       10.215        8.829      416.551      104.348       77.954        0.050        0.030       19.627       12.624        0.414      334.323        4.222      865.025
11/18/2014  23:29:00      -36.009       -7.032        0.695       24.401       27.414       12.272      595.387      751.501      150.594        0.142        0.075       36.689       11.173        0.093      334.329        4.230      865.030
11/18/2014  23:30:00      -55.531      -18.328       -9.094       28.156       18.233       12.371      792.771      332.426      153.052        0.239        0.064       58.477       13.919        0.057      334.237        4.077      865.035
11/18/2014  23:31:00      -65.546      -19.922      -10.404       17.172       11.276       11.498      294.877      127.158      132.196        0.268        0.028       68.507       11.894        0.030      334.164        3.955      865.047
11/18/2014  23:32:00      -64.901       -9.002       -7.467       14.802       13.998        7.781      219.095      195.937       60.539        0.241        0.024       65.523        4.670        0.005      334.214        4.040      865.056
11/18/2014  23:33:00      -36.547      -11.797       -2.061       10.815       12.242       10.355      116.961      149.875      107.220        0.093        0.019       38.404        6.485        0.029      334.310        4.200      865.055
11/18/2014  23:34:00      -39.055      -10.747       -3.695       15.419       15.274       14.248      237.747      233.288      203.012        0.116        0.034       40.507       12.194        0.091      334.455        4.440      865.039
11/18/2014  23:35:00      -31.806        6.821       -1.006       24.273       24.757       15.087      589.179      612.899      227.607        0.124        0.071       32.529        5.970        0.034      334.300        4.184      865.020
11/18/2014  23:36:00       -8.731       13.648      -10.635       12.602       24.015       12.833      158.816      576.706      164.674        0.064        0.045       16.202       10.428        0.414      334.282        4.153      865.029
11/18/2014  23:37:00       -8.241        4.268       -0.304       14.094       17.594       10.416      198.643      309.549      108.491        0.035        0.031        9.280       11.093        1.429      334.283        4.154      865.052
11/18/2014  23:38:00      -37.874      -16.042       -4.690       24.867       12.546       12.188      618.364      157.413      148.537        0.132        0.046       41.131        9.880        0.058      334.133        3.904      865.058
11/18/2014  23:39:00      -47.847      -35.197      -10.158       35.148       15.877       11.646     1235.349      252.064      135.636        0.263        0.081       59.399        9.268        0.024      334.116        3.876      865.065
11/18/2014  23:40:00      -91.779      -12.030      -11.899       16.025       17.066       10.716      256.791      291.243      114.826        0.469        0.033       92.564        7.406        0.006      334.007        3.698      865.061
11/18/2014  23:41:00      -82.745      -25.396      -13.295       13.351       13.617       10.663      178.240      185.411      113.704        0.407        0.024       86.555        6.637        0.006      334.020        3.717      865.040
11/18/2014  23:42:00      -99.828       -5.934      -14.329       22.337       12.901       12.100      498.927      166.431      146.410        0.551        0.041      100.005        7.634        0.006      333.997        3.681      865.012
11/18/2014  23:43:00      -73.261      -11.336       -8.129       29.180       26.887       18.853      851.448      722.926      355.445        0.375        0.096       74.133       16.729        0.051      333.991        3.671      865.011
11/18/2014  23:44:00      -66.586      -32.809       -6.219       15.200       17.018       14.524      231.054      289.600      210.936        0.314        0.037       74.230       10.399        0.020      333.981        3.656      865.022
11/18/2014  23:45:00      -61.973      -37.257       -7.971       14.619       17.585       11.029      213.712      309.245      121.636        0.297        0.032       72.310        6.819        0.009      334.000        3.686      865.041
11/18/2014  23:46:00      -93.362      -40.342       -9.571       21.504       20.571       11.835      462.428      423.159      140.072        0.573        0.051      101.705        9.539        0.009      334.016        3.711      865.028
11/18/2014  23:47:00     -105.080        7.379      -10.941       21.742       17.246       18.375      472.721      297.425      337.652        0.616        0.055      105.339       15.897        0.023      334.134        3.905      864.994
11/18/2014  23:48:00      -71.613       36.100      -10.341       19.300       18.183       16.230      372.494      330.619      263.425        0.375        0.048       80.198        9.425        0.014      334.349        4.262      864.935
11/18/2014  23:49:00      -43.619       72.012      -21.553       20.910       16.343        9.261      437.221      267.096       85.760        0.417        0.040       84.192       10.649        0.016      334.429        4.396      864.897
11/18/2014  23:50:00      -24.455       73.389       -9.904       20.229       25.275       14.113      409.200      638.809      199.185        0.366        0.062       77.356       11.198        0.021      334.510        4.529      864.890
11/18/2014  23:51:00      -47.711       57.687      -10.842       17.279       23.684       12.364      298.574      560.953      152.864        0.337        0.051       74.861       13.412        0.032      334.461        4.450      864.901
11/18/2014  23:52:00       -8.144       15.752        7.239       11.045       17.970       10.598      122.001      322.908      112.313        0.046        0.028       17.733        8.179        0.213      334.399        4.346      864.918
11/18/2014  23:53:00       -0.068        0.081       11.310       10.590       13.317       10.989      112.139      177.355      120.758        0.027        0.021        0.106        7.231     4666.136      334.431        4.398      864.934
11/18/2014  23:54:00      -15.887      -15.996       -3.895       21.039       13.980        8.083      442.624      195.443       65.335        0.061        0.035       22.545        6.831        0.092      334.251        4.101      864.937
11/18/2014  23:55:00      -87.345       -5.127      -11.257       17.160        8.558        8.814      294.482       73.246       77.694        0.411        0.022       87.496        5.443        0.004      334.010        3.701      864.914
11/18/2014  23:56:00      -85.117       -0.078      -18.004       18.025       11.409       13.122      324.910      130.166      172.195        0.410        0.031       85.117       11.976        0.020      334.062        3.786      864.881
11/18/2014  23:57:00      -30.561      -16.430       -6.333       19.864       17.100        8.000      394.561      292.401       64.002        0.100        0.038       34.697        4.852        0.020      334.131        3.902      864.867
11/18/2014  23:58:00        2.128      -27.428        0.581       13.693       12.033        9.079      187.499      144.790       82.427        0.059        0.021       27.510        5.160        0.035      334.101        3.852      864.867
11/18/2014  23:59:00       -1.079      -16.030       -1.972        6.480        7.517        8.108       41.991       56.501       65.735        0.021        0.008       16.067        4.745        0.087      334.330        4.234      864.873
